<?xml version="1.0" encoding="UTF-8" standalone="no" ?>
<gpx xmlns="http://www.topografix.com/GPX/1/1" xmlns:xsi="http://www.w3.org/2001/XMLSchema-instance" xsi:schemaLocation="http://www.topografix.com/GPX/1/1 http://www.topografix.com/GPX/1/1/gpx.xsd" version="1.1" creator="VisuGPX - https://www.visugpx.com">
  <metadata>
    <name>RANDO LAC BLEU LAC DE ST FRONT 30KM</name>
    <desc><![CDATA[RANDO LAC BLEU LAC DE ST FRONT 30KM.DEPART ARRIVEE BOUSSOULET.LAC BLEU.MONTBRAC ROFFIAC.LAC DE ST FRONT.CROS DE MONTROY. MONTUSCLAT]]></desc>
  </metadata>
  <trk>
    <name><![CDATA[23-MAI-21 16:48:02]]></name>
    <extensions>
      <line xmlns="http://www.topografix.com/GPX/gpx_style/0/2">
        <color>0000FF</color>
        <width>4</width>
      </line>
    </extensions>
    <trkseg>
      <trkpt lat="45.03041" lon="4.12334">
        <ele>1199.86</ele>
        <time>2021-05-23T07:26:03Z</time>
      </trkpt>
      <trkpt lat="45.03041" lon="4.12334">
        <ele>1198.42</ele>
        <time>2021-05-23T07:26:25Z</time>
      </trkpt>
      <trkpt lat="45.03041" lon="4.12333">
        <ele>1197.94</ele>
        <time>2021-05-23T07:26:41Z</time>
      </trkpt>
      <trkpt lat="45.03043" lon="4.12333">
        <ele>1197.94</ele>
        <time>2021-05-23T07:26:58Z</time>
      </trkpt>
      <trkpt lat="45.0304" lon="4.12333">
        <ele>1197.94</ele>
        <time>2021-05-23T07:27:10Z</time>
      </trkpt>
      <trkpt lat="45.03037" lon="4.12332">
        <ele>1197.94</ele>
        <time>2021-05-23T07:27:15Z</time>
      </trkpt>
      <trkpt lat="45.03024" lon="4.12331">
        <ele>1194.58</ele>
        <time>2021-05-23T07:27:28Z</time>
      </trkpt>
      <trkpt lat="45.03021" lon="4.1233">
        <ele>1193.61</ele>
        <time>2021-05-23T07:27:48Z</time>
      </trkpt>
      <trkpt lat="45.03006" lon="4.12322">
        <ele>1196.98</ele>
        <time>2021-05-23T07:28:02Z</time>
      </trkpt>
      <trkpt lat="45.03004" lon="4.12321">
        <ele>1197.46</ele>
        <time>2021-05-23T07:28:04Z</time>
      </trkpt>
      <trkpt lat="45.02991" lon="4.12313">
        <ele>1199.86</ele>
        <time>2021-05-23T07:28:20Z</time>
      </trkpt>
      <trkpt lat="45.02973" lon="4.12305">
        <ele>1200.34</ele>
        <time>2021-05-23T07:28:36Z</time>
      </trkpt>
      <trkpt lat="45.02957" lon="4.12299">
        <ele>1199.38</ele>
        <time>2021-05-23T07:28:49Z</time>
      </trkpt>
      <trkpt lat="45.02941" lon="4.12298">
        <ele>1199.38</ele>
        <time>2021-05-23T07:29:02Z</time>
      </trkpt>
      <trkpt lat="45.02926" lon="4.12298">
        <ele>1200.34</ele>
        <time>2021-05-23T07:29:20Z</time>
      </trkpt>
      <trkpt lat="45.02926" lon="4.12299">
        <ele>1199.86</ele>
        <time>2021-05-23T07:29:21Z</time>
      </trkpt>
      <trkpt lat="45.02929" lon="4.12332">
        <ele>1195.54</ele>
        <time>2021-05-23T07:29:39Z</time>
      </trkpt>
      <trkpt lat="45.02926" lon="4.12338">
        <ele>1195.06</ele>
        <time>2021-05-23T07:29:44Z</time>
      </trkpt>
      <trkpt lat="45.02909" lon="4.12346">
        <ele>1200.34</ele>
        <time>2021-05-23T07:29:58Z</time>
      </trkpt>
      <trkpt lat="45.02903" lon="4.12345">
        <ele>1201.3</ele>
        <time>2021-05-23T07:30:03Z</time>
      </trkpt>
      <trkpt lat="45.0289" lon="4.12342">
        <ele>1199.86</ele>
        <time>2021-05-23T07:30:14Z</time>
      </trkpt>
      <trkpt lat="45.02889" lon="4.12341">
        <ele>1199.86</ele>
        <time>2021-05-23T07:30:16Z</time>
      </trkpt>
      <trkpt lat="45.02877" lon="4.12344">
        <ele>1197.94</ele>
        <time>2021-05-23T07:30:27Z</time>
      </trkpt>
      <trkpt lat="45.02865" lon="4.12347">
        <ele>1197.46</ele>
        <time>2021-05-23T07:30:33Z</time>
      </trkpt>
      <trkpt lat="45.02862" lon="4.1235">
        <ele>1197.46</ele>
        <time>2021-05-23T07:30:37Z</time>
      </trkpt>
      <trkpt lat="45.02868" lon="4.12359">
        <ele>1196.98</ele>
        <time>2021-05-23T07:30:42Z</time>
      </trkpt>
      <trkpt lat="45.0288" lon="4.12371">
        <ele>1197.94</ele>
        <time>2021-05-23T07:30:53Z</time>
      </trkpt>
      <trkpt lat="45.02888" lon="4.1239">
        <ele>1197.94</ele>
        <time>2021-05-23T07:31:08Z</time>
      </trkpt>
      <trkpt lat="45.02894" lon="4.1241">
        <ele>1196.5</ele>
        <time>2021-05-23T07:31:23Z</time>
      </trkpt>
      <trkpt lat="45.029" lon="4.12435">
        <ele>1192.65</ele>
        <time>2021-05-23T07:31:35Z</time>
      </trkpt>
      <trkpt lat="45.02902" lon="4.1246">
        <ele>1190.25</ele>
        <time>2021-05-23T07:31:46Z</time>
      </trkpt>
      <trkpt lat="45.02906" lon="4.12481">
        <ele>1188.33</ele>
        <time>2021-05-23T07:31:56Z</time>
      </trkpt>
      <trkpt lat="45.02909" lon="4.12492">
        <ele>1185.44</ele>
        <time>2021-05-23T07:32:04Z</time>
      </trkpt>
      <trkpt lat="45.02925" lon="4.12506">
        <ele>1181.6</ele>
        <time>2021-05-23T07:32:15Z</time>
      </trkpt>
      <trkpt lat="45.02936" lon="4.12515">
        <ele>1178.71</ele>
        <time>2021-05-23T07:32:24Z</time>
      </trkpt>
      <trkpt lat="45.02944" lon="4.12524">
        <ele>1177.75</ele>
        <time>2021-05-23T07:32:34Z</time>
      </trkpt>
      <trkpt lat="45.02954" lon="4.12536">
        <ele>1176.79</ele>
        <time>2021-05-23T07:32:45Z</time>
      </trkpt>
      <trkpt lat="45.02957" lon="4.12566">
        <ele>1176.79</ele>
        <time>2021-05-23T07:32:57Z</time>
      </trkpt>
      <trkpt lat="45.02954" lon="4.12583">
        <ele>1175.35</ele>
        <time>2021-05-23T07:33:06Z</time>
      </trkpt>
      <trkpt lat="45.02953" lon="4.12585">
        <ele>1174.87</ele>
        <time>2021-05-23T07:33:07Z</time>
      </trkpt>
      <trkpt lat="45.02952" lon="4.12591">
        <ele>1174.87</ele>
        <time>2021-05-23T07:33:11Z</time>
      </trkpt>
      <trkpt lat="45.02946" lon="4.12614">
        <ele>1171.98</ele>
        <time>2021-05-23T07:33:25Z</time>
      </trkpt>
      <trkpt lat="45.02942" lon="4.1263">
        <ele>1171.5</ele>
        <time>2021-05-23T07:33:33Z</time>
      </trkpt>
      <trkpt lat="45.02942" lon="4.12659">
        <ele>1171.5</ele>
        <time>2021-05-23T07:33:45Z</time>
      </trkpt>
      <trkpt lat="45.02933" lon="4.12671">
        <ele>1171.5</ele>
        <time>2021-05-23T07:33:55Z</time>
      </trkpt>
      <trkpt lat="45.02921" lon="4.12687">
        <ele>1173.43</ele>
        <time>2021-05-23T07:34:06Z</time>
      </trkpt>
      <trkpt lat="45.02917" lon="4.12693">
        <ele>1174.39</ele>
        <time>2021-05-23T07:34:12Z</time>
      </trkpt>
      <trkpt lat="45.02912" lon="4.12712">
        <ele>1175.35</ele>
        <time>2021-05-23T07:34:22Z</time>
      </trkpt>
      <trkpt lat="45.02913" lon="4.1273">
        <ele>1176.31</ele>
        <time>2021-05-23T07:34:33Z</time>
      </trkpt>
      <trkpt lat="45.02913" lon="4.12739">
        <ele>1176.31</ele>
        <time>2021-05-23T07:34:37Z</time>
      </trkpt>
      <trkpt lat="45.02911" lon="4.12756">
        <ele>1178.23</ele>
        <time>2021-05-23T07:34:48Z</time>
      </trkpt>
      <trkpt lat="45.02907" lon="4.12773">
        <ele>1178.71</ele>
        <time>2021-05-23T07:34:58Z</time>
      </trkpt>
      <trkpt lat="45.02906" lon="4.12778">
        <ele>1179.19</ele>
        <time>2021-05-23T07:35:02Z</time>
      </trkpt>
      <trkpt lat="45.02897" lon="4.12799">
        <ele>1180.64</ele>
        <time>2021-05-23T07:35:14Z</time>
      </trkpt>
      <trkpt lat="45.0289" lon="4.12816">
        <ele>1181.12</ele>
        <time>2021-05-23T07:35:24Z</time>
      </trkpt>
      <trkpt lat="45.02882" lon="4.12829">
        <ele>1182.56</ele>
        <time>2021-05-23T07:35:34Z</time>
      </trkpt>
      <trkpt lat="45.02872" lon="4.12839">
        <ele>1184</ele>
        <time>2021-05-23T07:35:42Z</time>
      </trkpt>
      <trkpt lat="45.0286" lon="4.1285">
        <ele>1184.96</ele>
        <time>2021-05-23T07:35:53Z</time>
      </trkpt>
      <trkpt lat="45.02848" lon="4.12858">
        <ele>1186.88</ele>
        <time>2021-05-23T07:36:03Z</time>
      </trkpt>
      <trkpt lat="45.02838" lon="4.12865">
        <ele>1187.85</ele>
        <time>2021-05-23T07:36:12Z</time>
      </trkpt>
      <trkpt lat="45.02818" lon="4.12879">
        <ele>1189.29</ele>
        <time>2021-05-23T07:36:27Z</time>
      </trkpt>
      <trkpt lat="45.02801" lon="4.12895">
        <ele>1190.25</ele>
        <time>2021-05-23T07:36:42Z</time>
      </trkpt>
      <trkpt lat="45.02791" lon="4.12911">
        <ele>1191.69</ele>
        <time>2021-05-23T07:36:51Z</time>
      </trkpt>
      <trkpt lat="45.02789" lon="4.12912">
        <ele>1192.17</ele>
        <time>2021-05-23T07:36:54Z</time>
      </trkpt>
      <trkpt lat="45.02784" lon="4.12919">
        <ele>1192.65</ele>
        <time>2021-05-23T07:36:58Z</time>
      </trkpt>
      <trkpt lat="45.02775" lon="4.12936">
        <ele>1193.13</ele>
        <time>2021-05-23T07:37:10Z</time>
      </trkpt>
      <trkpt lat="45.02771" lon="4.12951">
        <ele>1195.06</ele>
        <time>2021-05-23T07:37:21Z</time>
      </trkpt>
      <trkpt lat="45.02762" lon="4.12972">
        <ele>1197.46</ele>
        <time>2021-05-23T07:37:33Z</time>
      </trkpt>
      <trkpt lat="45.02759" lon="4.12991">
        <ele>1198.9</ele>
        <time>2021-05-23T07:37:43Z</time>
      </trkpt>
      <trkpt lat="45.02758" lon="4.12994">
        <ele>1198.9</ele>
        <time>2021-05-23T07:37:45Z</time>
      </trkpt>
      <trkpt lat="45.02755" lon="4.13018">
        <ele>1199.38</ele>
        <time>2021-05-23T07:37:57Z</time>
      </trkpt>
      <trkpt lat="45.02755" lon="4.13033">
        <ele>1198.9</ele>
        <time>2021-05-23T07:38:07Z</time>
      </trkpt>
      <trkpt lat="45.02751" lon="4.13054">
        <ele>1198.9</ele>
        <time>2021-05-23T07:38:19Z</time>
      </trkpt>
      <trkpt lat="45.02741" lon="4.13076">
        <ele>1199.86</ele>
        <time>2021-05-23T07:38:35Z</time>
      </trkpt>
      <trkpt lat="45.02724" lon="4.13108">
        <ele>1202.75</ele>
        <time>2021-05-23T07:38:56Z</time>
      </trkpt>
      <trkpt lat="45.0271" lon="4.13138">
        <ele>1205.63</ele>
        <time>2021-05-23T07:39:16Z</time>
      </trkpt>
      <trkpt lat="45.02715" lon="4.13167">
        <ele>1208.03</ele>
        <time>2021-05-23T07:39:35Z</time>
      </trkpt>
      <trkpt lat="45.0272" lon="4.13195">
        <ele>1208.03</ele>
        <time>2021-05-23T07:39:54Z</time>
      </trkpt>
      <trkpt lat="45.02719" lon="4.13206">
        <ele>1208.51</ele>
        <time>2021-05-23T07:40:01Z</time>
      </trkpt>
      <trkpt lat="45.02724" lon="4.13236">
        <ele>1210.44</ele>
        <time>2021-05-23T07:40:21Z</time>
      </trkpt>
      <trkpt lat="45.02728" lon="4.13273">
        <ele>1214.28</ele>
        <time>2021-05-23T07:40:40Z</time>
      </trkpt>
      <trkpt lat="45.02727" lon="4.13306">
        <ele>1219.57</ele>
        <time>2021-05-23T07:40:59Z</time>
      </trkpt>
      <trkpt lat="45.0273" lon="4.13338">
        <ele>1220.05</ele>
        <time>2021-05-23T07:41:18Z</time>
      </trkpt>
      <trkpt lat="45.02723" lon="4.13369">
        <ele>1221.49</ele>
        <time>2021-05-23T07:41:37Z</time>
      </trkpt>
      <trkpt lat="45.02717" lon="4.13382">
        <ele>1222.93</ele>
        <time>2021-05-23T07:41:46Z</time>
      </trkpt>
      <trkpt lat="45.02707" lon="4.13416">
        <ele>1228.7</ele>
        <time>2021-05-23T07:42:06Z</time>
      </trkpt>
      <trkpt lat="45.02704" lon="4.13421">
        <ele>1230.14</ele>
        <time>2021-05-23T07:42:09Z</time>
      </trkpt>
      <trkpt lat="45.02692" lon="4.13446">
        <ele>1235.91</ele>
        <time>2021-05-23T07:42:24Z</time>
      </trkpt>
      <trkpt lat="45.02689" lon="4.13459">
        <ele>1236.39</ele>
        <time>2021-05-23T07:42:33Z</time>
      </trkpt>
      <trkpt lat="45.02687" lon="4.13466">
        <ele>1236.87</ele>
        <time>2021-05-23T07:42:35Z</time>
      </trkpt>
      <trkpt lat="45.02683" lon="4.13469">
        <ele>1236.87</ele>
        <time>2021-05-23T07:42:39Z</time>
      </trkpt>
      <trkpt lat="45.02676" lon="4.13484">
        <ele>1238.8</ele>
        <time>2021-05-23T07:42:49Z</time>
      </trkpt>
      <trkpt lat="45.02675" lon="4.13492">
        <ele>1238.8</ele>
        <time>2021-05-23T07:42:52Z</time>
      </trkpt>
      <trkpt lat="45.02666" lon="4.13509">
        <ele>1238.8</ele>
        <time>2021-05-23T07:43:02Z</time>
      </trkpt>
      <trkpt lat="45.02657" lon="4.13523">
        <ele>1240.24</ele>
        <time>2021-05-23T07:43:12Z</time>
      </trkpt>
      <trkpt lat="45.02651" lon="4.13543">
        <ele>1242.64</ele>
        <time>2021-05-23T07:43:23Z</time>
      </trkpt>
      <trkpt lat="45.02651" lon="4.13545">
        <ele>1243.6</ele>
        <time>2021-05-23T07:43:26Z</time>
      </trkpt>
      <trkpt lat="45.02649" lon="4.13549">
        <ele>1243.6</ele>
        <time>2021-05-23T07:43:28Z</time>
      </trkpt>
      <trkpt lat="45.02644" lon="4.1356">
        <ele>1243.6</ele>
        <time>2021-05-23T07:43:33Z</time>
      </trkpt>
      <trkpt lat="45.02632" lon="4.13578">
        <ele>1245.04</ele>
        <time>2021-05-23T07:43:46Z</time>
      </trkpt>
      <trkpt lat="45.02628" lon="4.13581">
        <ele>1245.53</ele>
        <time>2021-05-23T07:43:50Z</time>
      </trkpt>
      <trkpt lat="45.02624" lon="4.13588">
        <ele>1246.49</ele>
        <time>2021-05-23T07:43:54Z</time>
      </trkpt>
      <trkpt lat="45.02606" lon="4.13607">
        <ele>1246.49</ele>
        <time>2021-05-23T07:44:07Z</time>
      </trkpt>
      <trkpt lat="45.02603" lon="4.13611">
        <ele>1246.01</ele>
        <time>2021-05-23T07:44:11Z</time>
      </trkpt>
      <trkpt lat="45.02592" lon="4.13619">
        <ele>1245.53</ele>
        <time>2021-05-23T07:44:18Z</time>
      </trkpt>
      <trkpt lat="45.02587" lon="4.13622">
        <ele>1245.53</ele>
        <time>2021-05-23T07:44:22Z</time>
      </trkpt>
      <trkpt lat="45.02586" lon="4.13624">
        <ele>1245.53</ele>
        <time>2021-05-23T07:44:24Z</time>
      </trkpt>
      <trkpt lat="45.0258" lon="4.13639">
        <ele>1244.56</ele>
        <time>2021-05-23T07:44:31Z</time>
      </trkpt>
      <trkpt lat="45.02577" lon="4.13642">
        <ele>1243.6</ele>
        <time>2021-05-23T07:44:34Z</time>
      </trkpt>
      <trkpt lat="45.0257" lon="4.13651">
        <ele>1244.08</ele>
        <time>2021-05-23T07:44:41Z</time>
      </trkpt>
      <trkpt lat="45.02561" lon="4.13664">
        <ele>1244.56</ele>
        <time>2021-05-23T07:44:51Z</time>
      </trkpt>
      <trkpt lat="45.02549" lon="4.13679">
        <ele>1244.08</ele>
        <time>2021-05-23T07:45:02Z</time>
      </trkpt>
      <trkpt lat="45.02539" lon="4.13685">
        <ele>1243.6</ele>
        <time>2021-05-23T07:45:10Z</time>
      </trkpt>
      <trkpt lat="45.0253" lon="4.137">
        <ele>1244.08</ele>
        <time>2021-05-23T07:45:21Z</time>
      </trkpt>
      <trkpt lat="45.02527" lon="4.13723">
        <ele>1245.04</ele>
        <time>2021-05-23T07:45:30Z</time>
      </trkpt>
      <trkpt lat="45.02528" lon="4.1374">
        <ele>1246.49</ele>
        <time>2021-05-23T07:45:39Z</time>
      </trkpt>
      <trkpt lat="45.0253" lon="4.13755">
        <ele>1246.97</ele>
        <time>2021-05-23T07:45:47Z</time>
      </trkpt>
      <trkpt lat="45.02532" lon="4.13773">
        <ele>1246.01</ele>
        <time>2021-05-23T07:45:57Z</time>
      </trkpt>
      <trkpt lat="45.02533" lon="4.13776">
        <ele>1246.01</ele>
        <time>2021-05-23T07:46:01Z</time>
      </trkpt>
      <trkpt lat="45.02535" lon="4.13793">
        <ele>1245.53</ele>
        <time>2021-05-23T07:46:08Z</time>
      </trkpt>
      <trkpt lat="45.02536" lon="4.13801">
        <ele>1246.01</ele>
        <time>2021-05-23T07:46:13Z</time>
      </trkpt>
      <trkpt lat="45.0254" lon="4.13822">
        <ele>1246.97</ele>
        <time>2021-05-23T07:46:24Z</time>
      </trkpt>
      <trkpt lat="45.02541" lon="4.1383">
        <ele>1246.97</ele>
        <time>2021-05-23T07:46:29Z</time>
      </trkpt>
      <trkpt lat="45.02544" lon="4.13836">
        <ele>1247.45</ele>
        <time>2021-05-23T07:46:32Z</time>
      </trkpt>
      <trkpt lat="45.02542" lon="4.13841">
        <ele>1246.97</ele>
        <time>2021-05-23T07:46:36Z</time>
      </trkpt>
      <trkpt lat="45.02543" lon="4.13852">
        <ele>1246.49</ele>
        <time>2021-05-23T07:46:41Z</time>
      </trkpt>
      <trkpt lat="45.02545" lon="4.13876">
        <ele>1244.56</ele>
        <time>2021-05-23T07:46:53Z</time>
      </trkpt>
      <trkpt lat="45.0255" lon="4.13897">
        <ele>1242.16</ele>
        <time>2021-05-23T07:47:04Z</time>
      </trkpt>
      <trkpt lat="45.02551" lon="4.13919">
        <ele>1238.32</ele>
        <time>2021-05-23T07:47:16Z</time>
      </trkpt>
      <trkpt lat="45.02552" lon="4.13941">
        <ele>1237.35</ele>
        <time>2021-05-23T07:47:28Z</time>
      </trkpt>
      <trkpt lat="45.02553" lon="4.13952">
        <ele>1236.39</ele>
        <time>2021-05-23T07:47:34Z</time>
      </trkpt>
      <trkpt lat="45.02556" lon="4.13982">
        <ele>1237.35</ele>
        <time>2021-05-23T07:47:47Z</time>
      </trkpt>
      <trkpt lat="45.02559" lon="4.14004">
        <ele>1235.91</ele>
        <time>2021-05-23T07:47:59Z</time>
      </trkpt>
      <trkpt lat="45.02561" lon="4.14023">
        <ele>1236.87</ele>
        <time>2021-05-23T07:48:08Z</time>
      </trkpt>
      <trkpt lat="45.02565" lon="4.14049">
        <ele>1239.28</ele>
        <time>2021-05-23T07:48:19Z</time>
      </trkpt>
      <trkpt lat="45.02565" lon="4.1405">
        <ele>1239.28</ele>
        <time>2021-05-23T07:48:21Z</time>
      </trkpt>
      <trkpt lat="45.02569" lon="4.1407">
        <ele>1241.68</ele>
        <time>2021-05-23T07:48:29Z</time>
      </trkpt>
      <trkpt lat="45.02571" lon="4.14089">
        <ele>1242.64</ele>
        <time>2021-05-23T07:48:40Z</time>
      </trkpt>
      <trkpt lat="45.02573" lon="4.14111">
        <ele>1242.64</ele>
        <time>2021-05-23T07:48:52Z</time>
      </trkpt>
      <trkpt lat="45.02578" lon="4.14134">
        <ele>1242.64</ele>
        <time>2021-05-23T07:49:03Z</time>
      </trkpt>
      <trkpt lat="45.02581" lon="4.14151">
        <ele>1243.6</ele>
        <time>2021-05-23T07:49:13Z</time>
      </trkpt>
      <trkpt lat="45.02586" lon="4.1417">
        <ele>1243.6</ele>
        <time>2021-05-23T07:49:23Z</time>
      </trkpt>
      <trkpt lat="45.02591" lon="4.14191">
        <ele>1243.6</ele>
        <time>2021-05-23T07:49:34Z</time>
      </trkpt>
      <trkpt lat="45.02594" lon="4.14207">
        <ele>1244.08</ele>
        <time>2021-05-23T07:49:43Z</time>
      </trkpt>
      <trkpt lat="45.02598" lon="4.14226">
        <ele>1248.41</ele>
        <time>2021-05-23T07:49:53Z</time>
      </trkpt>
      <trkpt lat="45.02608" lon="4.14253">
        <ele>1248.41</ele>
        <time>2021-05-23T07:50:09Z</time>
      </trkpt>
      <trkpt lat="45.02614" lon="4.14271">
        <ele>1251.77</ele>
        <time>2021-05-23T07:50:19Z</time>
      </trkpt>
      <trkpt lat="45.02622" lon="4.1429">
        <ele>1252.74</ele>
        <time>2021-05-23T07:50:28Z</time>
      </trkpt>
      <trkpt lat="45.02628" lon="4.14307">
        <ele>1254.18</ele>
        <time>2021-05-23T07:50:39Z</time>
      </trkpt>
      <trkpt lat="45.02635" lon="4.14323">
        <ele>1253.22</ele>
        <time>2021-05-23T07:50:49Z</time>
      </trkpt>
      <trkpt lat="45.02642" lon="4.14339">
        <ele>1253.22</ele>
        <time>2021-05-23T07:50:58Z</time>
      </trkpt>
      <trkpt lat="45.02645" lon="4.14347">
        <ele>1251.77</ele>
        <time>2021-05-23T07:51:06Z</time>
      </trkpt>
      <trkpt lat="45.02651" lon="4.14353">
        <ele>1251.77</ele>
        <time>2021-05-23T07:51:10Z</time>
      </trkpt>
      <trkpt lat="45.02659" lon="4.14363">
        <ele>1252.25</ele>
        <time>2021-05-23T07:51:20Z</time>
      </trkpt>
      <trkpt lat="45.02678" lon="4.14381">
        <ele>1251.77</ele>
        <time>2021-05-23T07:51:33Z</time>
      </trkpt>
      <trkpt lat="45.02695" lon="4.14395">
        <ele>1252.25</ele>
        <time>2021-05-23T07:51:47Z</time>
      </trkpt>
      <trkpt lat="45.02708" lon="4.14409">
        <ele>1252.74</ele>
        <time>2021-05-23T07:52:00Z</time>
      </trkpt>
      <trkpt lat="45.02719" lon="4.14421">
        <ele>1253.7</ele>
        <time>2021-05-23T07:52:11Z</time>
      </trkpt>
      <trkpt lat="45.02721" lon="4.14426">
        <ele>1253.22</ele>
        <time>2021-05-23T07:52:13Z</time>
      </trkpt>
      <trkpt lat="45.02726" lon="4.14435">
        <ele>1253.22</ele>
        <time>2021-05-23T07:52:21Z</time>
      </trkpt>
      <trkpt lat="45.02721" lon="4.14454">
        <ele>1252.25</ele>
        <time>2021-05-23T07:52:35Z</time>
      </trkpt>
      <trkpt lat="45.02719" lon="4.1447">
        <ele>1252.74</ele>
        <time>2021-05-23T07:52:43Z</time>
      </trkpt>
      <trkpt lat="45.02725" lon="4.14487">
        <ele>1254.18</ele>
        <time>2021-05-23T07:52:54Z</time>
      </trkpt>
      <trkpt lat="45.02729" lon="4.14496">
        <ele>1254.18</ele>
        <time>2021-05-23T07:53:03Z</time>
      </trkpt>
      <trkpt lat="45.02737" lon="4.14505">
        <ele>1254.66</ele>
        <time>2021-05-23T07:53:12Z</time>
      </trkpt>
      <trkpt lat="45.02742" lon="4.14509">
        <ele>1255.14</ele>
        <time>2021-05-23T07:53:18Z</time>
      </trkpt>
      <trkpt lat="45.02751" lon="4.14524">
        <ele>1255.14</ele>
        <time>2021-05-23T07:53:29Z</time>
      </trkpt>
      <trkpt lat="45.02758" lon="4.14537">
        <ele>1254.66</ele>
        <time>2021-05-23T07:53:39Z</time>
      </trkpt>
      <trkpt lat="45.0277" lon="4.14551">
        <ele>1257.06</ele>
        <time>2021-05-23T07:53:51Z</time>
      </trkpt>
      <trkpt lat="45.02778" lon="4.14566">
        <ele>1256.58</ele>
        <time>2021-05-23T07:54:02Z</time>
      </trkpt>
      <trkpt lat="45.02787" lon="4.14579">
        <ele>1256.1</ele>
        <time>2021-05-23T07:54:12Z</time>
      </trkpt>
      <trkpt lat="45.028" lon="4.14594">
        <ele>1257.54</ele>
        <time>2021-05-23T07:54:23Z</time>
      </trkpt>
      <trkpt lat="45.0281" lon="4.14609">
        <ele>1258.98</ele>
        <time>2021-05-23T07:54:33Z</time>
      </trkpt>
      <trkpt lat="45.02808" lon="4.14623">
        <ele>1255.62</ele>
        <time>2021-05-23T07:54:49Z</time>
      </trkpt>
      <trkpt lat="45.02805" lon="4.14623">
        <ele>1255.14</ele>
        <time>2021-05-23T07:54:52Z</time>
      </trkpt>
      <trkpt lat="45.02799" lon="4.14625">
        <ele>1255.62</ele>
        <time>2021-05-23T07:55:06Z</time>
      </trkpt>
      <trkpt lat="45.02799" lon="4.14626">
        <ele>1255.62</ele>
        <time>2021-05-23T07:55:07Z</time>
      </trkpt>
      <trkpt lat="45.02812" lon="4.1463">
        <ele>1255.62</ele>
        <time>2021-05-23T07:55:21Z</time>
      </trkpt>
      <trkpt lat="45.02827" lon="4.14638">
        <ele>1256.58</ele>
        <time>2021-05-23T07:55:33Z</time>
      </trkpt>
      <trkpt lat="45.02844" lon="4.14645">
        <ele>1256.1</ele>
        <time>2021-05-23T07:55:46Z</time>
      </trkpt>
      <trkpt lat="45.02859" lon="4.14654">
        <ele>1256.58</ele>
        <time>2021-05-23T07:55:57Z</time>
      </trkpt>
      <trkpt lat="45.02872" lon="4.14664">
        <ele>1256.58</ele>
        <time>2021-05-23T07:56:09Z</time>
      </trkpt>
      <trkpt lat="45.02876" lon="4.14668">
        <ele>1256.1</ele>
        <time>2021-05-23T07:56:12Z</time>
      </trkpt>
      <trkpt lat="45.02881" lon="4.14671">
        <ele>1256.58</ele>
        <time>2021-05-23T07:56:16Z</time>
      </trkpt>
      <trkpt lat="45.02897" lon="4.14679">
        <ele>1254.66</ele>
        <time>2021-05-23T07:56:29Z</time>
      </trkpt>
      <trkpt lat="45.02908" lon="4.14686">
        <ele>1255.14</ele>
        <time>2021-05-23T07:56:40Z</time>
      </trkpt>
      <trkpt lat="45.02923" lon="4.14694">
        <ele>1255.62</ele>
        <time>2021-05-23T07:56:53Z</time>
      </trkpt>
      <trkpt lat="45.02939" lon="4.14699">
        <ele>1254.66</ele>
        <time>2021-05-23T07:57:05Z</time>
      </trkpt>
      <trkpt lat="45.02962" lon="4.14701">
        <ele>1255.62</ele>
        <time>2021-05-23T07:57:17Z</time>
      </trkpt>
      <trkpt lat="45.02975" lon="4.14703">
        <ele>1256.58</ele>
        <time>2021-05-23T07:57:29Z</time>
      </trkpt>
      <trkpt lat="45.02989" lon="4.14703">
        <ele>1256.1</ele>
        <time>2021-05-23T07:57:41Z</time>
      </trkpt>
      <trkpt lat="45.03007" lon="4.14705">
        <ele>1256.58</ele>
        <time>2021-05-23T07:57:50Z</time>
      </trkpt>
      <trkpt lat="45.0302" lon="4.14707">
        <ele>1257.54</ele>
        <time>2021-05-23T07:58:00Z</time>
      </trkpt>
      <trkpt lat="45.03042" lon="4.14707">
        <ele>1258.98</ele>
        <time>2021-05-23T07:58:14Z</time>
      </trkpt>
      <trkpt lat="45.0306" lon="4.14709">
        <ele>1259.94</ele>
        <time>2021-05-23T07:58:27Z</time>
      </trkpt>
      <trkpt lat="45.03067" lon="4.14712">
        <ele>1259.46</ele>
        <time>2021-05-23T07:58:34Z</time>
      </trkpt>
      <trkpt lat="45.03074" lon="4.14729">
        <ele>1258.5</ele>
        <time>2021-05-23T07:58:45Z</time>
      </trkpt>
      <trkpt lat="45.03087" lon="4.14751">
        <ele>1259.94</ele>
        <time>2021-05-23T07:58:58Z</time>
      </trkpt>
      <trkpt lat="45.03089" lon="4.14754">
        <ele>1259.94</ele>
        <time>2021-05-23T07:59:00Z</time>
      </trkpt>
      <trkpt lat="45.03093" lon="4.14768">
        <ele>1258.98</ele>
        <time>2021-05-23T07:59:11Z</time>
      </trkpt>
      <trkpt lat="45.03092" lon="4.14782">
        <ele>1258.98</ele>
        <time>2021-05-23T07:59:16Z</time>
      </trkpt>
      <trkpt lat="45.03087" lon="4.14799">
        <ele>1261.39</ele>
        <time>2021-05-23T07:59:27Z</time>
      </trkpt>
      <trkpt lat="45.03082" lon="4.14821">
        <ele>1259.94</ele>
        <time>2021-05-23T07:59:38Z</time>
      </trkpt>
      <trkpt lat="45.03075" lon="4.14836">
        <ele>1258.02</ele>
        <time>2021-05-23T07:59:47Z</time>
      </trkpt>
      <trkpt lat="45.03075" lon="4.14856">
        <ele>1258.5</ele>
        <time>2021-05-23T07:59:57Z</time>
      </trkpt>
      <trkpt lat="45.03083" lon="4.14873">
        <ele>1258.5</ele>
        <time>2021-05-23T08:00:07Z</time>
      </trkpt>
      <trkpt lat="45.0309" lon="4.14899">
        <ele>1257.06</ele>
        <time>2021-05-23T08:00:24Z</time>
      </trkpt>
      <trkpt lat="45.03099" lon="4.14926">
        <ele>1257.06</ele>
        <time>2021-05-23T08:00:39Z</time>
      </trkpt>
      <trkpt lat="45.03107" lon="4.14952">
        <ele>1257.06</ele>
        <time>2021-05-23T08:00:53Z</time>
      </trkpt>
      <trkpt lat="45.03109" lon="4.1497">
        <ele>1256.58</ele>
        <time>2021-05-23T08:01:03Z</time>
      </trkpt>
      <trkpt lat="45.03111" lon="4.14982">
        <ele>1256.58</ele>
        <time>2021-05-23T08:01:08Z</time>
      </trkpt>
      <trkpt lat="45.03122" lon="4.15004">
        <ele>1257.06</ele>
        <time>2021-05-23T08:01:19Z</time>
      </trkpt>
      <trkpt lat="45.03121" lon="4.15006">
        <ele>1255.62</ele>
        <time>2021-05-23T08:01:30Z</time>
      </trkpt>
      <trkpt lat="45.03119" lon="4.15008">
        <ele>1254.18</ele>
        <time>2021-05-23T08:01:44Z</time>
      </trkpt>
      <trkpt lat="45.03118" lon="4.15024">
        <ele>1253.22</ele>
        <time>2021-05-23T08:01:54Z</time>
      </trkpt>
      <trkpt lat="45.03122" lon="4.15043">
        <ele>1252.25</ele>
        <time>2021-05-23T08:02:06Z</time>
      </trkpt>
      <trkpt lat="45.03126" lon="4.15064">
        <ele>1249.85</ele>
        <time>2021-05-23T08:02:19Z</time>
      </trkpt>
      <trkpt lat="45.03131" lon="4.15089">
        <ele>1246.49</ele>
        <time>2021-05-23T08:02:31Z</time>
      </trkpt>
      <trkpt lat="45.03139" lon="4.15117">
        <ele>1239.28</ele>
        <time>2021-05-23T08:02:46Z</time>
      </trkpt>
      <trkpt lat="45.03144" lon="4.15145">
        <ele>1233.99</ele>
        <time>2021-05-23T08:03:00Z</time>
      </trkpt>
      <trkpt lat="45.03144" lon="4.15149">
        <ele>1233.03</ele>
        <time>2021-05-23T08:03:03Z</time>
      </trkpt>
      <trkpt lat="45.03147" lon="4.15163">
        <ele>1229.66</ele>
        <time>2021-05-23T08:03:12Z</time>
      </trkpt>
      <trkpt lat="45.03156" lon="4.15189">
        <ele>1226.3</ele>
        <time>2021-05-23T08:03:30Z</time>
      </trkpt>
      <trkpt lat="45.0316" lon="4.152">
        <ele>1225.82</ele>
        <time>2021-05-23T08:03:39Z</time>
      </trkpt>
      <trkpt lat="45.03161" lon="4.15202">
        <ele>1225.82</ele>
        <time>2021-05-23T08:03:40Z</time>
      </trkpt>
      <trkpt lat="45.03167" lon="4.15214">
        <ele>1224.86</ele>
        <time>2021-05-23T08:03:49Z</time>
      </trkpt>
      <trkpt lat="45.03176" lon="4.15233">
        <ele>1224.86</ele>
        <time>2021-05-23T08:04:00Z</time>
      </trkpt>
      <trkpt lat="45.03178" lon="4.1524">
        <ele>1223.42</ele>
        <time>2021-05-23T08:04:05Z</time>
      </trkpt>
      <trkpt lat="45.03181" lon="4.15247">
        <ele>1221.97</ele>
        <time>2021-05-23T08:04:09Z</time>
      </trkpt>
      <trkpt lat="45.0319" lon="4.15264">
        <ele>1218.61</ele>
        <time>2021-05-23T08:04:21Z</time>
      </trkpt>
      <trkpt lat="45.03195" lon="4.1527">
        <ele>1217.17</ele>
        <time>2021-05-23T08:04:27Z</time>
      </trkpt>
      <trkpt lat="45.03201" lon="4.15282">
        <ele>1216.69</ele>
        <time>2021-05-23T08:04:33Z</time>
      </trkpt>
      <trkpt lat="45.03207" lon="4.1529">
        <ele>1215.24</ele>
        <time>2021-05-23T08:04:37Z</time>
      </trkpt>
      <trkpt lat="45.03218" lon="4.15309">
        <ele>1213.32</ele>
        <time>2021-05-23T08:04:49Z</time>
      </trkpt>
      <trkpt lat="45.03223" lon="4.15317">
        <ele>1214.28</ele>
        <time>2021-05-23T08:04:58Z</time>
      </trkpt>
      <trkpt lat="45.03235" lon="4.15331">
        <ele>1214.28</ele>
        <time>2021-05-23T08:05:07Z</time>
      </trkpt>
      <trkpt lat="45.03236" lon="4.15333">
        <ele>1214.76</ele>
        <time>2021-05-23T08:05:09Z</time>
      </trkpt>
      <trkpt lat="45.03243" lon="4.15344">
        <ele>1216.21</ele>
        <time>2021-05-23T08:05:18Z</time>
      </trkpt>
      <trkpt lat="45.03252" lon="4.15351">
        <ele>1217.17</ele>
        <time>2021-05-23T08:05:23Z</time>
      </trkpt>
      <trkpt lat="45.03266" lon="4.15369">
        <ele>1220.05</ele>
        <time>2021-05-23T08:05:34Z</time>
      </trkpt>
      <trkpt lat="45.03272" lon="4.15378">
        <ele>1221.01</ele>
        <time>2021-05-23T08:05:44Z</time>
      </trkpt>
      <trkpt lat="45.03272" lon="4.1538">
        <ele>1220.53</ele>
        <time>2021-05-23T08:05:46Z</time>
      </trkpt>
      <trkpt lat="45.03278" lon="4.15394">
        <ele>1220.05</ele>
        <time>2021-05-23T08:05:54Z</time>
      </trkpt>
      <trkpt lat="45.0329" lon="4.15404">
        <ele>1221.49</ele>
        <time>2021-05-23T08:06:05Z</time>
      </trkpt>
      <trkpt lat="45.03293" lon="4.15406">
        <ele>1222.45</ele>
        <time>2021-05-23T08:06:09Z</time>
      </trkpt>
      <trkpt lat="45.03296" lon="4.15407">
        <ele>1222.45</ele>
        <time>2021-05-23T08:06:12Z</time>
      </trkpt>
      <trkpt lat="45.03299" lon="4.15412">
        <ele>1224.38</ele>
        <time>2021-05-23T08:06:21Z</time>
      </trkpt>
      <trkpt lat="45.03305" lon="4.1542">
        <ele>1223.9</ele>
        <time>2021-05-23T08:06:29Z</time>
      </trkpt>
      <trkpt lat="45.0331" lon="4.15424">
        <ele>1225.34</ele>
        <time>2021-05-23T08:06:35Z</time>
      </trkpt>
      <trkpt lat="45.03318" lon="4.15434">
        <ele>1225.34</ele>
        <time>2021-05-23T08:06:43Z</time>
      </trkpt>
      <trkpt lat="45.03325" lon="4.15443">
        <ele>1225.34</ele>
        <time>2021-05-23T08:06:53Z</time>
      </trkpt>
      <trkpt lat="45.03332" lon="4.15455">
        <ele>1224.86</ele>
        <time>2021-05-23T08:07:03Z</time>
      </trkpt>
      <trkpt lat="45.03342" lon="4.15469">
        <ele>1227.74</ele>
        <time>2021-05-23T08:07:20Z</time>
      </trkpt>
      <trkpt lat="45.03355" lon="4.1549">
        <ele>1229.66</ele>
        <time>2021-05-23T08:07:37Z</time>
      </trkpt>
      <trkpt lat="45.03365" lon="4.15506">
        <ele>1230.14</ele>
        <time>2021-05-23T08:07:53Z</time>
      </trkpt>
      <trkpt lat="45.03374" lon="4.15517">
        <ele>1230.14</ele>
        <time>2021-05-23T08:08:04Z</time>
      </trkpt>
      <trkpt lat="45.03384" lon="4.15532">
        <ele>1230.14</ele>
        <time>2021-05-23T08:08:20Z</time>
      </trkpt>
      <trkpt lat="45.0339" lon="4.15542">
        <ele>1229.66</ele>
        <time>2021-05-23T08:08:30Z</time>
      </trkpt>
      <trkpt lat="45.03403" lon="4.15567">
        <ele>1231.11</ele>
        <time>2021-05-23T08:08:44Z</time>
      </trkpt>
      <trkpt lat="45.03419" lon="4.15584">
        <ele>1233.03</ele>
        <time>2021-05-23T08:08:58Z</time>
      </trkpt>
      <trkpt lat="45.03433" lon="4.15601">
        <ele>1234.47</ele>
        <time>2021-05-23T08:09:13Z</time>
      </trkpt>
      <trkpt lat="45.03443" lon="4.15615">
        <ele>1234.95</ele>
        <time>2021-05-23T08:09:28Z</time>
      </trkpt>
      <trkpt lat="45.0346" lon="4.15639">
        <ele>1230.14</ele>
        <time>2021-05-23T08:09:43Z</time>
      </trkpt>
      <trkpt lat="45.03462" lon="4.15643">
        <ele>1229.66</ele>
        <time>2021-05-23T08:09:45Z</time>
      </trkpt>
      <trkpt lat="45.03475" lon="4.15653">
        <ele>1229.66</ele>
        <time>2021-05-23T08:09:53Z</time>
      </trkpt>
      <trkpt lat="45.0349" lon="4.15665">
        <ele>1227.74</ele>
        <time>2021-05-23T08:10:09Z</time>
      </trkpt>
      <trkpt lat="45.03492" lon="4.15668">
        <ele>1227.74</ele>
        <time>2021-05-23T08:10:12Z</time>
      </trkpt>
      <trkpt lat="45.03501" lon="4.15678">
        <ele>1226.78</ele>
        <time>2021-05-23T08:10:20Z</time>
      </trkpt>
      <trkpt lat="45.03511" lon="4.15688">
        <ele>1227.74</ele>
        <time>2021-05-23T08:10:29Z</time>
      </trkpt>
      <trkpt lat="45.03525" lon="4.157">
        <ele>1227.74</ele>
        <time>2021-05-23T08:10:42Z</time>
      </trkpt>
      <trkpt lat="45.0353" lon="4.15707">
        <ele>1227.74</ele>
        <time>2021-05-23T08:10:48Z</time>
      </trkpt>
      <trkpt lat="45.0355" lon="4.15726">
        <ele>1226.78</ele>
        <time>2021-05-23T08:11:02Z</time>
      </trkpt>
      <trkpt lat="45.03561" lon="4.15737">
        <ele>1228.22</ele>
        <time>2021-05-23T08:11:13Z</time>
      </trkpt>
      <trkpt lat="45.03575" lon="4.15747">
        <ele>1229.66</ele>
        <time>2021-05-23T08:11:24Z</time>
      </trkpt>
      <trkpt lat="45.03589" lon="4.15746">
        <ele>1231.59</ele>
        <time>2021-05-23T08:11:36Z</time>
      </trkpt>
      <trkpt lat="45.03603" lon="4.15747">
        <ele>1233.99</ele>
        <time>2021-05-23T08:11:47Z</time>
      </trkpt>
      <trkpt lat="45.03617" lon="4.1575">
        <ele>1237.83</ele>
        <time>2021-05-23T08:11:57Z</time>
      </trkpt>
      <trkpt lat="45.03632" lon="4.15751">
        <ele>1241.68</ele>
        <time>2021-05-23T08:12:10Z</time>
      </trkpt>
      <trkpt lat="45.03641" lon="4.15753">
        <ele>1245.04</ele>
        <time>2021-05-23T08:12:18Z</time>
      </trkpt>
      <trkpt lat="45.0366" lon="4.15764">
        <ele>1249.85</ele>
        <time>2021-05-23T08:12:38Z</time>
      </trkpt>
      <trkpt lat="45.03662" lon="4.1576">
        <ele>1249.85</ele>
        <time>2021-05-23T08:12:58Z</time>
      </trkpt>
      <trkpt lat="45.03661" lon="4.15752">
        <ele>1250.33</ele>
        <time>2021-05-23T08:13:03Z</time>
      </trkpt>
      <trkpt lat="45.03663" lon="4.15742">
        <ele>1250.33</ele>
        <time>2021-05-23T08:13:10Z</time>
      </trkpt>
      <trkpt lat="45.03667" lon="4.15715">
        <ele>1245.53</ele>
        <time>2021-05-23T08:13:25Z</time>
      </trkpt>
      <trkpt lat="45.03672" lon="4.15679">
        <ele>1242.64</ele>
        <time>2021-05-23T08:13:47Z</time>
      </trkpt>
      <trkpt lat="45.03673" lon="4.15644">
        <ele>1239.28</ele>
        <time>2021-05-23T08:14:07Z</time>
      </trkpt>
      <trkpt lat="45.03668" lon="4.15619">
        <ele>1239.28</ele>
        <time>2021-05-23T08:14:22Z</time>
      </trkpt>
      <trkpt lat="45.03662" lon="4.15598">
        <ele>1241.2</ele>
        <time>2021-05-23T08:14:36Z</time>
      </trkpt>
      <trkpt lat="45.03659" lon="4.15584">
        <ele>1241.2</ele>
        <time>2021-05-23T08:14:46Z</time>
      </trkpt>
      <trkpt lat="45.03662" lon="4.15567">
        <ele>1241.68</ele>
        <time>2021-05-23T08:15:00Z</time>
      </trkpt>
      <trkpt lat="45.03677" lon="4.15572">
        <ele>1242.64</ele>
        <time>2021-05-23T08:15:17Z</time>
      </trkpt>
      <trkpt lat="45.03695" lon="4.15554">
        <ele>1249.37</ele>
        <time>2021-05-23T08:15:35Z</time>
      </trkpt>
      <trkpt lat="45.03693" lon="4.1554">
        <ele>1251.77</ele>
        <time>2021-05-23T08:15:55Z</time>
      </trkpt>
      <trkpt lat="45.03685" lon="4.15518">
        <ele>1255.14</ele>
        <time>2021-05-23T08:16:14Z</time>
      </trkpt>
      <trkpt lat="45.03667" lon="4.15515">
        <ele>1259.94</ele>
        <time>2021-05-23T08:16:36Z</time>
      </trkpt>
      <trkpt lat="45.03674" lon="4.155">
        <ele>1261.87</ele>
        <time>2021-05-23T08:16:55Z</time>
      </trkpt>
      <trkpt lat="45.0368" lon="4.15481">
        <ele>1262.35</ele>
        <time>2021-05-23T08:17:12Z</time>
      </trkpt>
      <trkpt lat="45.03683" lon="4.15475">
        <ele>1259.46</ele>
        <time>2021-05-23T08:17:28Z</time>
      </trkpt>
      <trkpt lat="45.03688" lon="4.15469">
        <ele>1259.94</ele>
        <time>2021-05-23T08:17:43Z</time>
      </trkpt>
      <trkpt lat="45.03694" lon="4.15454">
        <ele>1259.46</ele>
        <time>2021-05-23T08:17:58Z</time>
      </trkpt>
      <trkpt lat="45.03692" lon="4.15451">
        <ele>1259.94</ele>
        <time>2021-05-23T08:18:14Z</time>
      </trkpt>
      <trkpt lat="45.03692" lon="4.15449">
        <ele>1261.87</ele>
        <time>2021-05-23T08:18:36Z</time>
      </trkpt>
      <trkpt lat="45.03694" lon="4.15446">
        <ele>1261.87</ele>
        <time>2021-05-23T08:18:53Z</time>
      </trkpt>
      <trkpt lat="45.03693" lon="4.15445">
        <ele>1260.91</ele>
        <time>2021-05-23T08:19:14Z</time>
      </trkpt>
      <trkpt lat="45.03694" lon="4.15449">
        <ele>1261.87</ele>
        <time>2021-05-23T08:19:23Z</time>
      </trkpt>
      <trkpt lat="45.03691" lon="4.15461">
        <ele>1263.31</ele>
        <time>2021-05-23T08:19:31Z</time>
      </trkpt>
      <trkpt lat="45.03687" lon="4.15468">
        <ele>1265.23</ele>
        <time>2021-05-23T08:19:42Z</time>
      </trkpt>
      <trkpt lat="45.03686" lon="4.15468">
        <ele>1265.23</ele>
        <time>2021-05-23T08:19:47Z</time>
      </trkpt>
      <trkpt lat="45.0368" lon="4.15481">
        <ele>1267.16</ele>
        <time>2021-05-23T08:19:57Z</time>
      </trkpt>
      <trkpt lat="45.03677" lon="4.15487">
        <ele>1267.16</ele>
        <time>2021-05-23T08:20:04Z</time>
      </trkpt>
      <trkpt lat="45.03672" lon="4.15499">
        <ele>1267.16</ele>
        <time>2021-05-23T08:20:13Z</time>
      </trkpt>
      <trkpt lat="45.03669" lon="4.15503">
        <ele>1267.16</ele>
        <time>2021-05-23T08:20:17Z</time>
      </trkpt>
      <trkpt lat="45.03668" lon="4.15506">
        <ele>1267.16</ele>
        <time>2021-05-23T08:20:19Z</time>
      </trkpt>
      <trkpt lat="45.03667" lon="4.15514">
        <ele>1266.67</ele>
        <time>2021-05-23T08:20:28Z</time>
      </trkpt>
      <trkpt lat="45.03674" lon="4.15517">
        <ele>1266.19</ele>
        <time>2021-05-23T08:20:37Z</time>
      </trkpt>
      <trkpt lat="45.03686" lon="4.1553">
        <ele>1263.79</ele>
        <time>2021-05-23T08:20:49Z</time>
      </trkpt>
      <trkpt lat="45.03686" lon="4.15532">
        <ele>1262.83</ele>
        <time>2021-05-23T08:20:51Z</time>
      </trkpt>
      <trkpt lat="45.0369" lon="4.15541">
        <ele>1261.39</ele>
        <time>2021-05-23T08:20:57Z</time>
      </trkpt>
      <trkpt lat="45.03693" lon="4.15546">
        <ele>1261.39</ele>
        <time>2021-05-23T08:21:04Z</time>
      </trkpt>
      <trkpt lat="45.03683" lon="4.1556">
        <ele>1261.87</ele>
        <time>2021-05-23T08:21:14Z</time>
      </trkpt>
      <trkpt lat="45.03682" lon="4.15562">
        <ele>1261.87</ele>
        <time>2021-05-23T08:21:16Z</time>
      </trkpt>
      <trkpt lat="45.0368" lon="4.15572">
        <ele>1261.39</ele>
        <time>2021-05-23T08:21:21Z</time>
      </trkpt>
      <trkpt lat="45.03673" lon="4.15575">
        <ele>1259.94</ele>
        <time>2021-05-23T08:21:33Z</time>
      </trkpt>
      <trkpt lat="45.03671" lon="4.15573">
        <ele>1259.46</ele>
        <time>2021-05-23T08:21:39Z</time>
      </trkpt>
      <trkpt lat="45.03663" lon="4.1557">
        <ele>1259.46</ele>
        <time>2021-05-23T08:21:46Z</time>
      </trkpt>
      <trkpt lat="45.03656" lon="4.15581">
        <ele>1257.54</ele>
        <time>2021-05-23T08:21:54Z</time>
      </trkpt>
      <trkpt lat="45.03657" lon="4.156">
        <ele>1257.06</ele>
        <time>2021-05-23T08:22:04Z</time>
      </trkpt>
      <trkpt lat="45.03657" lon="4.15601">
        <ele>1256.58</ele>
        <time>2021-05-23T08:22:05Z</time>
      </trkpt>
      <trkpt lat="45.03661" lon="4.15611">
        <ele>1256.1</ele>
        <time>2021-05-23T08:22:10Z</time>
      </trkpt>
      <trkpt lat="45.03666" lon="4.15626">
        <ele>1255.62</ele>
        <time>2021-05-23T08:22:20Z</time>
      </trkpt>
      <trkpt lat="45.03666" lon="4.15626">
        <ele>1255.62</ele>
        <time>2021-05-23T08:22:22Z</time>
      </trkpt>
      <trkpt lat="45.0367" lon="4.15642">
        <ele>1256.1</ele>
        <time>2021-05-23T08:22:30Z</time>
      </trkpt>
      <trkpt lat="45.03671" lon="4.15655">
        <ele>1253.7</ele>
        <time>2021-05-23T08:22:39Z</time>
      </trkpt>
      <trkpt lat="45.03669" lon="4.15658">
        <ele>1253.22</ele>
        <time>2021-05-23T08:22:43Z</time>
      </trkpt>
      <trkpt lat="45.03667" lon="4.15672">
        <ele>1252.74</ele>
        <time>2021-05-23T08:22:53Z</time>
      </trkpt>
      <trkpt lat="45.03665" lon="4.1569">
        <ele>1251.77</ele>
        <time>2021-05-23T08:23:03Z</time>
      </trkpt>
      <trkpt lat="45.03664" lon="4.15702">
        <ele>1252.25</ele>
        <time>2021-05-23T08:23:11Z</time>
      </trkpt>
      <trkpt lat="45.03661" lon="4.15731">
        <ele>1251.29</ele>
        <time>2021-05-23T08:23:24Z</time>
      </trkpt>
      <trkpt lat="45.03658" lon="4.15748">
        <ele>1249.85</ele>
        <time>2021-05-23T08:23:31Z</time>
      </trkpt>
      <trkpt lat="45.03658" lon="4.15762">
        <ele>1247.45</ele>
        <time>2021-05-23T08:23:39Z</time>
      </trkpt>
      <trkpt lat="45.03656" lon="4.15779">
        <ele>1244.08</ele>
        <time>2021-05-23T08:23:51Z</time>
      </trkpt>
      <trkpt lat="45.03653" lon="4.15798">
        <ele>1240.24</ele>
        <time>2021-05-23T08:24:04Z</time>
      </trkpt>
      <trkpt lat="45.03651" lon="4.1581">
        <ele>1239.28</ele>
        <time>2021-05-23T08:24:11Z</time>
      </trkpt>
      <trkpt lat="45.03647" lon="4.15842">
        <ele>1236.39</ele>
        <time>2021-05-23T08:24:28Z</time>
      </trkpt>
      <trkpt lat="45.03639" lon="4.15864">
        <ele>1235.91</ele>
        <time>2021-05-23T08:24:42Z</time>
      </trkpt>
      <trkpt lat="45.03637" lon="4.15867">
        <ele>1235.91</ele>
        <time>2021-05-23T08:24:45Z</time>
      </trkpt>
      <trkpt lat="45.03632" lon="4.15884">
        <ele>1235.91</ele>
        <time>2021-05-23T08:24:57Z</time>
      </trkpt>
      <trkpt lat="45.03625" lon="4.15896">
        <ele>1235.43</ele>
        <time>2021-05-23T08:25:06Z</time>
      </trkpt>
      <trkpt lat="45.03617" lon="4.15909">
        <ele>1233.99</ele>
        <time>2021-05-23T08:25:14Z</time>
      </trkpt>
      <trkpt lat="45.03609" lon="4.15924">
        <ele>1233.51</ele>
        <time>2021-05-23T08:25:21Z</time>
      </trkpt>
      <trkpt lat="45.03598" lon="4.15942">
        <ele>1233.03</ele>
        <time>2021-05-23T08:25:31Z</time>
      </trkpt>
      <trkpt lat="45.03588" lon="4.15955">
        <ele>1231.59</ele>
        <time>2021-05-23T08:25:42Z</time>
      </trkpt>
      <trkpt lat="45.03578" lon="4.15976">
        <ele>1230.14</ele>
        <time>2021-05-23T08:25:53Z</time>
      </trkpt>
      <trkpt lat="45.03569" lon="4.15992">
        <ele>1229.66</ele>
        <time>2021-05-23T08:26:07Z</time>
      </trkpt>
      <trkpt lat="45.03563" lon="4.15995">
        <ele>1228.7</ele>
        <time>2021-05-23T08:26:23Z</time>
      </trkpt>
      <trkpt lat="45.0356" lon="4.16002">
        <ele>1228.22</ele>
        <time>2021-05-23T08:26:27Z</time>
      </trkpt>
      <trkpt lat="45.03547" lon="4.16017">
        <ele>1227.26</ele>
        <time>2021-05-23T08:26:39Z</time>
      </trkpt>
      <trkpt lat="45.03538" lon="4.1603">
        <ele>1225.82</ele>
        <time>2021-05-23T08:26:49Z</time>
      </trkpt>
      <trkpt lat="45.03533" lon="4.16049">
        <ele>1221.49</ele>
        <time>2021-05-23T08:27:01Z</time>
      </trkpt>
      <trkpt lat="45.03526" lon="4.16065">
        <ele>1214.28</ele>
        <time>2021-05-23T08:27:12Z</time>
      </trkpt>
      <trkpt lat="45.03521" lon="4.16076">
        <ele>1212.84</ele>
        <time>2021-05-23T08:27:16Z</time>
      </trkpt>
      <trkpt lat="45.03517" lon="4.1608">
        <ele>1212.84</ele>
        <time>2021-05-23T08:27:19Z</time>
      </trkpt>
      <trkpt lat="45.03505" lon="4.16096">
        <ele>1212.84</ele>
        <time>2021-05-23T08:27:31Z</time>
      </trkpt>
      <trkpt lat="45.03503" lon="4.16098">
        <ele>1212.84</ele>
        <time>2021-05-23T08:27:32Z</time>
      </trkpt>
      <trkpt lat="45.03495" lon="4.16107">
        <ele>1211.4</ele>
        <time>2021-05-23T08:27:39Z</time>
      </trkpt>
      <trkpt lat="45.03492" lon="4.16113">
        <ele>1210.44</ele>
        <time>2021-05-23T08:27:43Z</time>
      </trkpt>
      <trkpt lat="45.03489" lon="4.16117">
        <ele>1209.96</ele>
        <time>2021-05-23T08:27:47Z</time>
      </trkpt>
      <trkpt lat="45.03493" lon="4.16136">
        <ele>1208.03</ele>
        <time>2021-05-23T08:27:57Z</time>
      </trkpt>
      <trkpt lat="45.03496" lon="4.16151">
        <ele>1206.59</ele>
        <time>2021-05-23T08:28:06Z</time>
      </trkpt>
      <trkpt lat="45.03499" lon="4.16162">
        <ele>1205.63</ele>
        <time>2021-05-23T08:28:14Z</time>
      </trkpt>
      <trkpt lat="45.03502" lon="4.16171">
        <ele>1205.63</ele>
        <time>2021-05-23T08:28:19Z</time>
      </trkpt>
      <trkpt lat="45.03507" lon="4.16185">
        <ele>1204.19</ele>
        <time>2021-05-23T08:28:28Z</time>
      </trkpt>
      <trkpt lat="45.03509" lon="4.1619">
        <ele>1204.19</ele>
        <time>2021-05-23T08:28:33Z</time>
      </trkpt>
      <trkpt lat="45.03507" lon="4.16208">
        <ele>1202.75</ele>
        <time>2021-05-23T08:28:44Z</time>
      </trkpt>
      <trkpt lat="45.03506" lon="4.16212">
        <ele>1202.75</ele>
        <time>2021-05-23T08:28:47Z</time>
      </trkpt>
      <trkpt lat="45.03495" lon="4.16222">
        <ele>1203.23</ele>
        <time>2021-05-23T08:28:57Z</time>
      </trkpt>
      <trkpt lat="45.03494" lon="4.16223">
        <ele>1203.23</ele>
        <time>2021-05-23T08:28:58Z</time>
      </trkpt>
      <trkpt lat="45.03482" lon="4.16238">
        <ele>1201.79</ele>
        <time>2021-05-23T08:29:08Z</time>
      </trkpt>
      <trkpt lat="45.03481" lon="4.16239">
        <ele>1201.79</ele>
        <time>2021-05-23T08:29:09Z</time>
      </trkpt>
      <trkpt lat="45.0348" lon="4.16247">
        <ele>1201.3</ele>
        <time>2021-05-23T08:29:13Z</time>
      </trkpt>
      <trkpt lat="45.03477" lon="4.16249">
        <ele>1200.34</ele>
        <time>2021-05-23T08:29:17Z</time>
      </trkpt>
      <trkpt lat="45.03469" lon="4.16264">
        <ele>1198.42</ele>
        <time>2021-05-23T08:29:26Z</time>
      </trkpt>
      <trkpt lat="45.03461" lon="4.1628">
        <ele>1198.42</ele>
        <time>2021-05-23T08:29:37Z</time>
      </trkpt>
      <trkpt lat="45.0346" lon="4.16282">
        <ele>1198.42</ele>
        <time>2021-05-23T08:29:39Z</time>
      </trkpt>
      <trkpt lat="45.03452" lon="4.163">
        <ele>1197.94</ele>
        <time>2021-05-23T08:29:49Z</time>
      </trkpt>
      <trkpt lat="45.03446" lon="4.16317">
        <ele>1197.94</ele>
        <time>2021-05-23T08:30:02Z</time>
      </trkpt>
      <trkpt lat="45.03442" lon="4.16325">
        <ele>1197.46</ele>
        <time>2021-05-23T08:30:08Z</time>
      </trkpt>
      <trkpt lat="45.03439" lon="4.16337">
        <ele>1196.5</ele>
        <time>2021-05-23T08:30:13Z</time>
      </trkpt>
      <trkpt lat="45.03437" lon="4.16339">
        <ele>1196.5</ele>
        <time>2021-05-23T08:30:16Z</time>
      </trkpt>
      <trkpt lat="45.0343" lon="4.16359">
        <ele>1196.98</ele>
        <time>2021-05-23T08:30:27Z</time>
      </trkpt>
      <trkpt lat="45.03422" lon="4.16376">
        <ele>1195.54</ele>
        <time>2021-05-23T08:30:36Z</time>
      </trkpt>
      <trkpt lat="45.03422" lon="4.16376">
        <ele>1195.54</ele>
        <time>2021-05-23T08:30:38Z</time>
      </trkpt>
      <trkpt lat="45.03416" lon="4.16392">
        <ele>1194.09</ele>
        <time>2021-05-23T08:30:46Z</time>
      </trkpt>
      <trkpt lat="45.03409" lon="4.1641">
        <ele>1194.09</ele>
        <time>2021-05-23T08:30:55Z</time>
      </trkpt>
      <trkpt lat="45.03403" lon="4.16426">
        <ele>1194.09</ele>
        <time>2021-05-23T08:31:05Z</time>
      </trkpt>
      <trkpt lat="45.03401" lon="4.16431">
        <ele>1194.09</ele>
        <time>2021-05-23T08:31:10Z</time>
      </trkpt>
      <trkpt lat="45.03397" lon="4.16444">
        <ele>1192.65</ele>
        <time>2021-05-23T08:31:16Z</time>
      </trkpt>
      <trkpt lat="45.03395" lon="4.16448">
        <ele>1192.17</ele>
        <time>2021-05-23T08:31:21Z</time>
      </trkpt>
      <trkpt lat="45.03392" lon="4.16459">
        <ele>1191.69</ele>
        <time>2021-05-23T08:31:28Z</time>
      </trkpt>
      <trkpt lat="45.03384" lon="4.16474">
        <ele>1191.21</ele>
        <time>2021-05-23T08:31:36Z</time>
      </trkpt>
      <trkpt lat="45.03375" lon="4.16491">
        <ele>1189.77</ele>
        <time>2021-05-23T08:31:46Z</time>
      </trkpt>
      <trkpt lat="45.03371" lon="4.16506">
        <ele>1189.29</ele>
        <time>2021-05-23T08:31:58Z</time>
      </trkpt>
      <trkpt lat="45.03366" lon="4.16523">
        <ele>1186.88</ele>
        <time>2021-05-23T08:32:07Z</time>
      </trkpt>
      <trkpt lat="45.0336" lon="4.16533">
        <ele>1186.88</ele>
        <time>2021-05-23T08:32:13Z</time>
      </trkpt>
      <trkpt lat="45.03359" lon="4.16541">
        <ele>1186.88</ele>
        <time>2021-05-23T08:32:17Z</time>
      </trkpt>
      <trkpt lat="45.03355" lon="4.16547">
        <ele>1186.88</ele>
        <time>2021-05-23T08:32:23Z</time>
      </trkpt>
      <trkpt lat="45.03349" lon="4.16563">
        <ele>1186.88</ele>
        <time>2021-05-23T08:32:33Z</time>
      </trkpt>
      <trkpt lat="45.03342" lon="4.16573">
        <ele>1186.4</ele>
        <time>2021-05-23T08:32:42Z</time>
      </trkpt>
      <trkpt lat="45.03331" lon="4.16588">
        <ele>1186.4</ele>
        <time>2021-05-23T08:32:52Z</time>
      </trkpt>
      <trkpt lat="45.03318" lon="4.16602">
        <ele>1186.4</ele>
        <time>2021-05-23T08:33:03Z</time>
      </trkpt>
      <trkpt lat="45.03305" lon="4.16613">
        <ele>1186.88</ele>
        <time>2021-05-23T08:33:13Z</time>
      </trkpt>
      <trkpt lat="45.03294" lon="4.16622">
        <ele>1187.37</ele>
        <time>2021-05-23T08:33:22Z</time>
      </trkpt>
      <trkpt lat="45.03289" lon="4.16626">
        <ele>1186.88</ele>
        <time>2021-05-23T08:33:27Z</time>
      </trkpt>
      <trkpt lat="45.03278" lon="4.16636">
        <ele>1186.88</ele>
        <time>2021-05-23T08:33:35Z</time>
      </trkpt>
      <trkpt lat="45.03276" lon="4.16637">
        <ele>1186.88</ele>
        <time>2021-05-23T08:33:37Z</time>
      </trkpt>
      <trkpt lat="45.03262" lon="4.16649">
        <ele>1186.88</ele>
        <time>2021-05-23T08:33:49Z</time>
      </trkpt>
      <trkpt lat="45.03256" lon="4.16656">
        <ele>1186.88</ele>
        <time>2021-05-23T08:33:53Z</time>
      </trkpt>
      <trkpt lat="45.03244" lon="4.16666">
        <ele>1187.37</ele>
        <time>2021-05-23T08:34:05Z</time>
      </trkpt>
      <trkpt lat="45.03229" lon="4.16677">
        <ele>1184</ele>
        <time>2021-05-23T08:34:18Z</time>
      </trkpt>
      <trkpt lat="45.03211" lon="4.16687">
        <ele>1177.75</ele>
        <time>2021-05-23T08:34:34Z</time>
      </trkpt>
      <trkpt lat="45.03194" lon="4.16695">
        <ele>1173.43</ele>
        <time>2021-05-23T08:34:47Z</time>
      </trkpt>
      <trkpt lat="45.03182" lon="4.16699">
        <ele>1171.98</ele>
        <time>2021-05-23T08:34:57Z</time>
      </trkpt>
      <trkpt lat="45.0317" lon="4.16703">
        <ele>1172.47</ele>
        <time>2021-05-23T08:35:07Z</time>
      </trkpt>
      <trkpt lat="45.0316" lon="4.16708">
        <ele>1172.95</ele>
        <time>2021-05-23T08:35:16Z</time>
      </trkpt>
      <trkpt lat="45.03149" lon="4.16713">
        <ele>1173.43</ele>
        <time>2021-05-23T08:35:26Z</time>
      </trkpt>
      <trkpt lat="45.03138" lon="4.16718">
        <ele>1173.43</ele>
        <time>2021-05-23T08:35:35Z</time>
      </trkpt>
      <trkpt lat="45.03137" lon="4.16719">
        <ele>1173.43</ele>
        <time>2021-05-23T08:35:37Z</time>
      </trkpt>
      <trkpt lat="45.03126" lon="4.16726">
        <ele>1174.39</ele>
        <time>2021-05-23T08:35:48Z</time>
      </trkpt>
      <trkpt lat="45.03115" lon="4.16733">
        <ele>1174.87</ele>
        <time>2021-05-23T08:35:58Z</time>
      </trkpt>
      <trkpt lat="45.03103" lon="4.16744">
        <ele>1175.83</ele>
        <time>2021-05-23T08:36:09Z</time>
      </trkpt>
      <trkpt lat="45.03101" lon="4.16745">
        <ele>1175.83</ele>
        <time>2021-05-23T08:36:12Z</time>
      </trkpt>
      <trkpt lat="45.03095" lon="4.16755">
        <ele>1176.31</ele>
        <time>2021-05-23T08:36:18Z</time>
      </trkpt>
      <trkpt lat="45.03092" lon="4.16764">
        <ele>1176.79</ele>
        <time>2021-05-23T08:36:22Z</time>
      </trkpt>
      <trkpt lat="45.03089" lon="4.16768">
        <ele>1177.27</ele>
        <time>2021-05-23T08:36:26Z</time>
      </trkpt>
      <trkpt lat="45.03088" lon="4.16775">
        <ele>1177.27</ele>
        <time>2021-05-23T08:36:29Z</time>
      </trkpt>
      <trkpt lat="45.03085" lon="4.16797">
        <ele>1178.23</ele>
        <time>2021-05-23T08:36:40Z</time>
      </trkpt>
      <trkpt lat="45.0308" lon="4.16815">
        <ele>1178.71</ele>
        <time>2021-05-23T08:36:49Z</time>
      </trkpt>
      <trkpt lat="45.03078" lon="4.16828">
        <ele>1179.19</ele>
        <time>2021-05-23T08:36:57Z</time>
      </trkpt>
      <trkpt lat="45.03071" lon="4.16861">
        <ele>1182.08</ele>
        <time>2021-05-23T08:37:17Z</time>
      </trkpt>
      <trkpt lat="45.03062" lon="4.169">
        <ele>1185.44</ele>
        <time>2021-05-23T08:37:39Z</time>
      </trkpt>
      <trkpt lat="45.03053" lon="4.16934">
        <ele>1187.85</ele>
        <time>2021-05-23T08:38:00Z</time>
      </trkpt>
      <trkpt lat="45.03049" lon="4.16947">
        <ele>1188.81</ele>
        <time>2021-05-23T08:38:06Z</time>
      </trkpt>
      <trkpt lat="45.03047" lon="4.16953">
        <ele>1188.81</ele>
        <time>2021-05-23T08:38:10Z</time>
      </trkpt>
      <trkpt lat="45.03034" lon="4.16971">
        <ele>1189.29</ele>
        <time>2021-05-23T08:38:25Z</time>
      </trkpt>
      <trkpt lat="45.03032" lon="4.16974">
        <ele>1188.81</ele>
        <time>2021-05-23T08:38:27Z</time>
      </trkpt>
      <trkpt lat="45.03018" lon="4.16985">
        <ele>1189.29</ele>
        <time>2021-05-23T08:38:38Z</time>
      </trkpt>
      <trkpt lat="45.03007" lon="4.16989">
        <ele>1186.4</ele>
        <time>2021-05-23T08:38:51Z</time>
      </trkpt>
      <trkpt lat="45.02992" lon="4.16992">
        <ele>1185.92</ele>
        <time>2021-05-23T08:39:02Z</time>
      </trkpt>
      <trkpt lat="45.02982" lon="4.16994">
        <ele>1186.88</ele>
        <time>2021-05-23T08:39:12Z</time>
      </trkpt>
      <trkpt lat="45.0297" lon="4.16996">
        <ele>1187.85</ele>
        <time>2021-05-23T08:39:21Z</time>
      </trkpt>
      <trkpt lat="45.02969" lon="4.16997">
        <ele>1188.33</ele>
        <time>2021-05-23T08:39:23Z</time>
      </trkpt>
      <trkpt lat="45.02954" lon="4.17001">
        <ele>1189.29</ele>
        <time>2021-05-23T08:39:34Z</time>
      </trkpt>
      <trkpt lat="45.02953" lon="4.17002">
        <ele>1189.29</ele>
        <time>2021-05-23T08:39:35Z</time>
      </trkpt>
      <trkpt lat="45.02948" lon="4.17002">
        <ele>1189.77</ele>
        <time>2021-05-23T08:39:39Z</time>
      </trkpt>
      <trkpt lat="45.02945" lon="4.17003">
        <ele>1189.77</ele>
        <time>2021-05-23T08:39:41Z</time>
      </trkpt>
      <trkpt lat="45.02936" lon="4.17008">
        <ele>1190.73</ele>
        <time>2021-05-23T08:39:49Z</time>
      </trkpt>
      <trkpt lat="45.02926" lon="4.1701">
        <ele>1192.17</ele>
        <time>2021-05-23T08:40:02Z</time>
      </trkpt>
      <trkpt lat="45.02916" lon="4.17013">
        <ele>1190.73</ele>
        <time>2021-05-23T08:40:11Z</time>
      </trkpt>
      <trkpt lat="45.02903" lon="4.17018">
        <ele>1190.25</ele>
        <time>2021-05-23T08:40:21Z</time>
      </trkpt>
      <trkpt lat="45.02897" lon="4.17022">
        <ele>1191.69</ele>
        <time>2021-05-23T08:40:32Z</time>
      </trkpt>
      <trkpt lat="45.02895" lon="4.17025">
        <ele>1191.69</ele>
        <time>2021-05-23T08:40:35Z</time>
      </trkpt>
      <trkpt lat="45.0288" lon="4.17032">
        <ele>1192.65</ele>
        <time>2021-05-23T08:40:47Z</time>
      </trkpt>
      <trkpt lat="45.02877" lon="4.17034">
        <ele>1193.13</ele>
        <time>2021-05-23T08:40:50Z</time>
      </trkpt>
      <trkpt lat="45.02868" lon="4.1704">
        <ele>1194.58</ele>
        <time>2021-05-23T08:41:02Z</time>
      </trkpt>
      <trkpt lat="45.02863" lon="4.17038">
        <ele>1195.54</ele>
        <time>2021-05-23T08:41:07Z</time>
      </trkpt>
      <trkpt lat="45.02854" lon="4.17025">
        <ele>1197.94</ele>
        <time>2021-05-23T08:41:20Z</time>
      </trkpt>
      <trkpt lat="45.02849" lon="4.17019">
        <ele>1199.86</ele>
        <time>2021-05-23T08:41:29Z</time>
      </trkpt>
      <trkpt lat="45.02842" lon="4.17009">
        <ele>1201.79</ele>
        <time>2021-05-23T08:41:40Z</time>
      </trkpt>
      <trkpt lat="45.02836" lon="4.17001">
        <ele>1204.67</ele>
        <time>2021-05-23T08:41:52Z</time>
      </trkpt>
      <trkpt lat="45.02834" lon="4.16996">
        <ele>1204.67</ele>
        <time>2021-05-23T08:41:56Z</time>
      </trkpt>
      <trkpt lat="45.02825" lon="4.16983">
        <ele>1205.63</ele>
        <time>2021-05-23T08:42:08Z</time>
      </trkpt>
      <trkpt lat="45.02817" lon="4.16972">
        <ele>1210.92</ele>
        <time>2021-05-23T08:42:21Z</time>
      </trkpt>
      <trkpt lat="45.02809" lon="4.16963">
        <ele>1215.24</ele>
        <time>2021-05-23T08:42:33Z</time>
      </trkpt>
      <trkpt lat="45.02803" lon="4.16948">
        <ele>1219.57</ele>
        <time>2021-05-23T08:42:45Z</time>
      </trkpt>
      <trkpt lat="45.028" lon="4.16936">
        <ele>1220.05</ele>
        <time>2021-05-23T08:42:55Z</time>
      </trkpt>
      <trkpt lat="45.02795" lon="4.16919">
        <ele>1222.45</ele>
        <time>2021-05-23T08:43:07Z</time>
      </trkpt>
      <trkpt lat="45.02791" lon="4.16903">
        <ele>1225.34</ele>
        <time>2021-05-23T08:43:18Z</time>
      </trkpt>
      <trkpt lat="45.02788" lon="4.16891">
        <ele>1227.74</ele>
        <time>2021-05-23T08:43:28Z</time>
      </trkpt>
      <trkpt lat="45.02788" lon="4.16877">
        <ele>1228.22</ele>
        <time>2021-05-23T08:43:39Z</time>
      </trkpt>
      <trkpt lat="45.02789" lon="4.16866">
        <ele>1227.26</ele>
        <time>2021-05-23T08:43:48Z</time>
      </trkpt>
      <trkpt lat="45.02792" lon="4.16853">
        <ele>1228.22</ele>
        <time>2021-05-23T08:43:56Z</time>
      </trkpt>
      <trkpt lat="45.02794" lon="4.16851">
        <ele>1228.7</ele>
        <time>2021-05-23T08:43:59Z</time>
      </trkpt>
      <trkpt lat="45.02797" lon="4.16837">
        <ele>1228.7</ele>
        <time>2021-05-23T08:44:09Z</time>
      </trkpt>
      <trkpt lat="45.02798" lon="4.16831">
        <ele>1228.7</ele>
        <time>2021-05-23T08:44:12Z</time>
      </trkpt>
      <trkpt lat="45.02799" lon="4.16829">
        <ele>1228.7</ele>
        <time>2021-05-23T08:44:14Z</time>
      </trkpt>
      <trkpt lat="45.028" lon="4.16821">
        <ele>1228.7</ele>
        <time>2021-05-23T08:44:19Z</time>
      </trkpt>
      <trkpt lat="45.02802" lon="4.16816">
        <ele>1228.7</ele>
        <time>2021-05-23T08:44:24Z</time>
      </trkpt>
      <trkpt lat="45.02805" lon="4.16798">
        <ele>1227.74</ele>
        <time>2021-05-23T08:44:36Z</time>
      </trkpt>
      <trkpt lat="45.02803" lon="4.16779">
        <ele>1228.22</ele>
        <time>2021-05-23T08:44:46Z</time>
      </trkpt>
      <trkpt lat="45.02799" lon="4.16767">
        <ele>1229.66</ele>
        <time>2021-05-23T08:44:55Z</time>
      </trkpt>
      <trkpt lat="45.02795" lon="4.16754">
        <ele>1230.14</ele>
        <time>2021-05-23T08:45:04Z</time>
      </trkpt>
      <trkpt lat="45.02792" lon="4.16744">
        <ele>1230.14</ele>
        <time>2021-05-23T08:45:14Z</time>
      </trkpt>
      <trkpt lat="45.02792" lon="4.16743">
        <ele>1230.14</ele>
        <time>2021-05-23T08:45:15Z</time>
      </trkpt>
      <trkpt lat="45.0279" lon="4.16739">
        <ele>1231.11</ele>
        <time>2021-05-23T08:45:26Z</time>
      </trkpt>
      <trkpt lat="45.02789" lon="4.16737">
        <ele>1230.62</ele>
        <time>2021-05-23T08:45:39Z</time>
      </trkpt>
      <trkpt lat="45.02788" lon="4.16737">
        <ele>1229.66</ele>
        <time>2021-05-23T08:45:50Z</time>
      </trkpt>
      <trkpt lat="45.02788" lon="4.16735">
        <ele>1230.14</ele>
        <time>2021-05-23T08:46:00Z</time>
      </trkpt>
      <trkpt lat="45.02786" lon="4.1673">
        <ele>1229.66</ele>
        <time>2021-05-23T08:46:10Z</time>
      </trkpt>
      <trkpt lat="45.02782" lon="4.1672">
        <ele>1229.66</ele>
        <time>2021-05-23T08:46:18Z</time>
      </trkpt>
      <trkpt lat="45.02777" lon="4.16706">
        <ele>1230.62</ele>
        <time>2021-05-23T08:46:29Z</time>
      </trkpt>
      <trkpt lat="45.02772" lon="4.16699">
        <ele>1230.62</ele>
        <time>2021-05-23T08:46:35Z</time>
      </trkpt>
      <trkpt lat="45.0277" lon="4.16696">
        <ele>1230.62</ele>
        <time>2021-05-23T08:46:38Z</time>
      </trkpt>
      <trkpt lat="45.02759" lon="4.16692">
        <ele>1232.55</ele>
        <time>2021-05-23T08:46:49Z</time>
      </trkpt>
      <trkpt lat="45.02747" lon="4.1669">
        <ele>1233.99</ele>
        <time>2021-05-23T08:47:00Z</time>
      </trkpt>
      <trkpt lat="45.02745" lon="4.1669">
        <ele>1234.47</ele>
        <time>2021-05-23T08:47:01Z</time>
      </trkpt>
      <trkpt lat="45.02736" lon="4.16682">
        <ele>1235.91</ele>
        <time>2021-05-23T08:47:13Z</time>
      </trkpt>
      <trkpt lat="45.02729" lon="4.16679">
        <ele>1237.35</ele>
        <time>2021-05-23T08:47:19Z</time>
      </trkpt>
      <trkpt lat="45.02727" lon="4.16676">
        <ele>1237.83</ele>
        <time>2021-05-23T08:47:22Z</time>
      </trkpt>
      <trkpt lat="45.02715" lon="4.16666">
        <ele>1238.8</ele>
        <time>2021-05-23T08:47:35Z</time>
      </trkpt>
      <trkpt lat="45.02705" lon="4.16656">
        <ele>1239.28</ele>
        <time>2021-05-23T08:47:45Z</time>
      </trkpt>
      <trkpt lat="45.02696" lon="4.16645">
        <ele>1239.28</ele>
        <time>2021-05-23T08:47:53Z</time>
      </trkpt>
      <trkpt lat="45.02687" lon="4.16637">
        <ele>1238.32</ele>
        <time>2021-05-23T08:48:01Z</time>
      </trkpt>
      <trkpt lat="45.02678" lon="4.1663">
        <ele>1238.8</ele>
        <time>2021-05-23T08:48:09Z</time>
      </trkpt>
      <trkpt lat="45.02671" lon="4.1662">
        <ele>1239.76</ele>
        <time>2021-05-23T08:48:18Z</time>
      </trkpt>
      <trkpt lat="45.02663" lon="4.16605">
        <ele>1240.24</ele>
        <time>2021-05-23T08:48:28Z</time>
      </trkpt>
      <trkpt lat="45.02656" lon="4.16591">
        <ele>1241.2</ele>
        <time>2021-05-23T08:48:38Z</time>
      </trkpt>
      <trkpt lat="45.02648" lon="4.16578">
        <ele>1242.64</ele>
        <time>2021-05-23T08:48:49Z</time>
      </trkpt>
      <trkpt lat="45.02643" lon="4.16572">
        <ele>1242.16</ele>
        <time>2021-05-23T08:48:55Z</time>
      </trkpt>
      <trkpt lat="45.0264" lon="4.16568">
        <ele>1241.2</ele>
        <time>2021-05-23T08:48:59Z</time>
      </trkpt>
      <trkpt lat="45.02635" lon="4.16561">
        <ele>1240.72</ele>
        <time>2021-05-23T08:49:08Z</time>
      </trkpt>
      <trkpt lat="45.02634" lon="4.1656">
        <ele>1240.72</ele>
        <time>2021-05-23T08:49:10Z</time>
      </trkpt>
      <trkpt lat="45.02625" lon="4.16554">
        <ele>1241.68</ele>
        <time>2021-05-23T08:49:18Z</time>
      </trkpt>
      <trkpt lat="45.02619" lon="4.16547">
        <ele>1243.12</ele>
        <time>2021-05-23T08:49:25Z</time>
      </trkpt>
      <trkpt lat="45.02608" lon="4.16536">
        <ele>1245.04</ele>
        <time>2021-05-23T08:49:37Z</time>
      </trkpt>
      <trkpt lat="45.02604" lon="4.16531">
        <ele>1245.04</ele>
        <time>2021-05-23T08:49:41Z</time>
      </trkpt>
      <trkpt lat="45.02597" lon="4.16523">
        <ele>1246.49</ele>
        <time>2021-05-23T08:49:49Z</time>
      </trkpt>
      <trkpt lat="45.02591" lon="4.1652">
        <ele>1247.93</ele>
        <time>2021-05-23T08:49:55Z</time>
      </trkpt>
      <trkpt lat="45.02588" lon="4.16512">
        <ele>1248.41</ele>
        <time>2021-05-23T08:50:01Z</time>
      </trkpt>
      <trkpt lat="45.02584" lon="4.16508">
        <ele>1248.89</ele>
        <time>2021-05-23T08:50:05Z</time>
      </trkpt>
      <trkpt lat="45.02575" lon="4.16499">
        <ele>1248.89</ele>
        <time>2021-05-23T08:50:15Z</time>
      </trkpt>
      <trkpt lat="45.02565" lon="4.1649">
        <ele>1246.97</ele>
        <time>2021-05-23T08:50:26Z</time>
      </trkpt>
      <trkpt lat="45.02561" lon="4.16489">
        <ele>1245.04</ele>
        <time>2021-05-23T08:50:31Z</time>
      </trkpt>
      <trkpt lat="45.02552" lon="4.16485">
        <ele>1243.12</ele>
        <time>2021-05-23T08:50:41Z</time>
      </trkpt>
      <trkpt lat="45.02548" lon="4.16482">
        <ele>1243.6</ele>
        <time>2021-05-23T08:50:46Z</time>
      </trkpt>
      <trkpt lat="45.02539" lon="4.16475">
        <ele>1242.16</ele>
        <time>2021-05-23T08:50:56Z</time>
      </trkpt>
      <trkpt lat="45.02533" lon="4.16471">
        <ele>1241.68</ele>
        <time>2021-05-23T08:51:04Z</time>
      </trkpt>
      <trkpt lat="45.02522" lon="4.16467">
        <ele>1240.72</ele>
        <time>2021-05-23T08:51:14Z</time>
      </trkpt>
      <trkpt lat="45.02514" lon="4.16463">
        <ele>1241.2</ele>
        <time>2021-05-23T08:51:23Z</time>
      </trkpt>
      <trkpt lat="45.02508" lon="4.16462">
        <ele>1240.72</ele>
        <time>2021-05-23T08:51:27Z</time>
      </trkpt>
      <trkpt lat="45.02496" lon="4.16456">
        <ele>1239.76</ele>
        <time>2021-05-23T08:51:36Z</time>
      </trkpt>
      <trkpt lat="45.02489" lon="4.16453">
        <ele>1239.28</ele>
        <time>2021-05-23T08:51:44Z</time>
      </trkpt>
      <trkpt lat="45.02479" lon="4.16448">
        <ele>1240.72</ele>
        <time>2021-05-23T08:51:54Z</time>
      </trkpt>
      <trkpt lat="45.02468" lon="4.16437">
        <ele>1237.35</ele>
        <time>2021-05-23T08:52:05Z</time>
      </trkpt>
      <trkpt lat="45.02466" lon="4.16434">
        <ele>1237.35</ele>
        <time>2021-05-23T08:52:08Z</time>
      </trkpt>
      <trkpt lat="45.02463" lon="4.16431">
        <ele>1237.35</ele>
        <time>2021-05-23T08:52:12Z</time>
      </trkpt>
      <trkpt lat="45.02448" lon="4.16429">
        <ele>1237.35</ele>
        <time>2021-05-23T08:52:25Z</time>
      </trkpt>
      <trkpt lat="45.02439" lon="4.16425">
        <ele>1236.39</ele>
        <time>2021-05-23T08:52:37Z</time>
      </trkpt>
      <trkpt lat="45.02435" lon="4.16422">
        <ele>1236.39</ele>
        <time>2021-05-23T08:52:41Z</time>
      </trkpt>
      <trkpt lat="45.02428" lon="4.16414">
        <ele>1236.39</ele>
        <time>2021-05-23T08:52:50Z</time>
      </trkpt>
      <trkpt lat="45.02424" lon="4.1641">
        <ele>1235.91</ele>
        <time>2021-05-23T08:52:55Z</time>
      </trkpt>
      <trkpt lat="45.02409" lon="4.1641">
        <ele>1235.43</ele>
        <time>2021-05-23T08:53:05Z</time>
      </trkpt>
      <trkpt lat="45.02399" lon="4.16402">
        <ele>1234.95</ele>
        <time>2021-05-23T08:53:14Z</time>
      </trkpt>
      <trkpt lat="45.0239" lon="4.16394">
        <ele>1234.95</ele>
        <time>2021-05-23T08:53:25Z</time>
      </trkpt>
      <trkpt lat="45.02381" lon="4.16392">
        <ele>1234.95</ele>
        <time>2021-05-23T08:53:32Z</time>
      </trkpt>
      <trkpt lat="45.02366" lon="4.1639">
        <ele>1233.03</ele>
        <time>2021-05-23T08:53:44Z</time>
      </trkpt>
      <trkpt lat="45.02354" lon="4.16386">
        <ele>1230.62</ele>
        <time>2021-05-23T08:53:55Z</time>
      </trkpt>
      <trkpt lat="45.02345" lon="4.16384">
        <ele>1231.11</ele>
        <time>2021-05-23T08:54:03Z</time>
      </trkpt>
      <trkpt lat="45.02334" lon="4.16383">
        <ele>1232.55</ele>
        <time>2021-05-23T08:54:12Z</time>
      </trkpt>
      <trkpt lat="45.02323" lon="4.16379">
        <ele>1231.59</ele>
        <time>2021-05-23T08:54:22Z</time>
      </trkpt>
      <trkpt lat="45.02318" lon="4.16375">
        <ele>1231.11</ele>
        <time>2021-05-23T08:54:25Z</time>
      </trkpt>
      <trkpt lat="45.02308" lon="4.16356">
        <ele>1232.07</ele>
        <time>2021-05-23T08:54:40Z</time>
      </trkpt>
      <trkpt lat="45.02301" lon="4.1633">
        <ele>1233.03</ele>
        <time>2021-05-23T08:54:58Z</time>
      </trkpt>
      <trkpt lat="45.02293" lon="4.16303">
        <ele>1233.03</ele>
        <time>2021-05-23T08:55:14Z</time>
      </trkpt>
      <trkpt lat="45.02287" lon="4.16275">
        <ele>1233.03</ele>
        <time>2021-05-23T08:55:31Z</time>
      </trkpt>
      <trkpt lat="45.0228" lon="4.16249">
        <ele>1232.55</ele>
        <time>2021-05-23T08:55:49Z</time>
      </trkpt>
      <trkpt lat="45.02273" lon="4.16229">
        <ele>1234.47</ele>
        <time>2021-05-23T08:56:02Z</time>
      </trkpt>
      <trkpt lat="45.02273" lon="4.16227">
        <ele>1233.03</ele>
        <time>2021-05-23T08:56:10Z</time>
      </trkpt>
      <trkpt lat="45.02271" lon="4.16225">
        <ele>1233.51</ele>
        <time>2021-05-23T08:56:21Z</time>
      </trkpt>
      <trkpt lat="45.02271" lon="4.16225">
        <ele>1233.51</ele>
        <time>2021-05-23T08:56:23Z</time>
      </trkpt>
      <trkpt lat="45.0227" lon="4.16222">
        <ele>1233.51</ele>
        <time>2021-05-23T08:56:35Z</time>
      </trkpt>
      <trkpt lat="45.02271" lon="4.1622">
        <ele>1233.99</ele>
        <time>2021-05-23T08:56:49Z</time>
      </trkpt>
      <trkpt lat="45.02271" lon="4.16219">
        <ele>1234.47</ele>
        <time>2021-05-23T08:57:00Z</time>
      </trkpt>
      <trkpt lat="45.02266" lon="4.16201">
        <ele>1233.99</ele>
        <time>2021-05-23T08:57:11Z</time>
      </trkpt>
      <trkpt lat="45.02262" lon="4.1619">
        <ele>1233.51</ele>
        <time>2021-05-23T08:57:20Z</time>
      </trkpt>
      <trkpt lat="45.02254" lon="4.16174">
        <ele>1233.99</ele>
        <time>2021-05-23T08:57:32Z</time>
      </trkpt>
      <trkpt lat="45.02251" lon="4.16165">
        <ele>1233.99</ele>
        <time>2021-05-23T08:57:38Z</time>
      </trkpt>
      <trkpt lat="45.02246" lon="4.16151">
        <ele>1234.47</ele>
        <time>2021-05-23T08:57:48Z</time>
      </trkpt>
      <trkpt lat="45.02242" lon="4.16138">
        <ele>1235.43</ele>
        <time>2021-05-23T08:57:58Z</time>
      </trkpt>
      <trkpt lat="45.02237" lon="4.1612">
        <ele>1236.39</ele>
        <time>2021-05-23T08:58:08Z</time>
      </trkpt>
      <trkpt lat="45.02234" lon="4.16107">
        <ele>1236.87</ele>
        <time>2021-05-23T08:58:17Z</time>
      </trkpt>
      <trkpt lat="45.02229" lon="4.16086">
        <ele>1238.8</ele>
        <time>2021-05-23T08:58:29Z</time>
      </trkpt>
      <trkpt lat="45.02224" lon="4.16068">
        <ele>1239.28</ele>
        <time>2021-05-23T08:58:41Z</time>
      </trkpt>
      <trkpt lat="45.02219" lon="4.16051">
        <ele>1239.76</ele>
        <time>2021-05-23T08:58:53Z</time>
      </trkpt>
      <trkpt lat="45.02215" lon="4.16032">
        <ele>1240.72</ele>
        <time>2021-05-23T08:59:03Z</time>
      </trkpt>
      <trkpt lat="45.0221" lon="4.16014">
        <ele>1240.24</ele>
        <time>2021-05-23T08:59:14Z</time>
      </trkpt>
      <trkpt lat="45.02206" lon="4.15997">
        <ele>1241.68</ele>
        <time>2021-05-23T08:59:23Z</time>
      </trkpt>
      <trkpt lat="45.02198" lon="4.15978">
        <ele>1244.08</ele>
        <time>2021-05-23T08:59:34Z</time>
      </trkpt>
      <trkpt lat="45.02193" lon="4.15963">
        <ele>1246.01</ele>
        <time>2021-05-23T08:59:44Z</time>
      </trkpt>
      <trkpt lat="45.02183" lon="4.15943">
        <ele>1246.01</ele>
        <time>2021-05-23T08:59:56Z</time>
      </trkpt>
      <trkpt lat="45.02183" lon="4.15942">
        <ele>1246.01</ele>
        <time>2021-05-23T08:59:58Z</time>
      </trkpt>
      <trkpt lat="45.02174" lon="4.15922">
        <ele>1247.45</ele>
        <time>2021-05-23T09:00:10Z</time>
      </trkpt>
      <trkpt lat="45.02172" lon="4.15918">
        <ele>1247.45</ele>
        <time>2021-05-23T09:00:13Z</time>
      </trkpt>
      <trkpt lat="45.02168" lon="4.15906">
        <ele>1248.41</ele>
        <time>2021-05-23T09:00:21Z</time>
      </trkpt>
      <trkpt lat="45.0216" lon="4.1589">
        <ele>1249.85</ele>
        <time>2021-05-23T09:00:31Z</time>
      </trkpt>
      <trkpt lat="45.02152" lon="4.15874">
        <ele>1250.33</ele>
        <time>2021-05-23T09:00:41Z</time>
      </trkpt>
      <trkpt lat="45.02144" lon="4.15854">
        <ele>1254.18</ele>
        <time>2021-05-23T09:00:54Z</time>
      </trkpt>
      <trkpt lat="45.02133" lon="4.15832">
        <ele>1258.98</ele>
        <time>2021-05-23T09:01:08Z</time>
      </trkpt>
      <trkpt lat="45.02127" lon="4.15822">
        <ele>1260.43</ele>
        <time>2021-05-23T09:01:16Z</time>
      </trkpt>
      <trkpt lat="45.02126" lon="4.1582">
        <ele>1260.43</ele>
        <time>2021-05-23T09:01:18Z</time>
      </trkpt>
      <trkpt lat="45.02123" lon="4.15812">
        <ele>1260.43</ele>
        <time>2021-05-23T09:01:22Z</time>
      </trkpt>
      <trkpt lat="45.02114" lon="4.15793">
        <ele>1261.39</ele>
        <time>2021-05-23T09:01:33Z</time>
      </trkpt>
      <trkpt lat="45.02106" lon="4.15781">
        <ele>1261.87</ele>
        <time>2021-05-23T09:01:43Z</time>
      </trkpt>
      <trkpt lat="45.02101" lon="4.15773">
        <ele>1262.35</ele>
        <time>2021-05-23T09:01:47Z</time>
      </trkpt>
      <trkpt lat="45.021" lon="4.1577">
        <ele>1262.35</ele>
        <time>2021-05-23T09:01:51Z</time>
      </trkpt>
      <trkpt lat="45.0209" lon="4.15756">
        <ele>1262.83</ele>
        <time>2021-05-23T09:02:01Z</time>
      </trkpt>
      <trkpt lat="45.02079" lon="4.1574">
        <ele>1263.79</ele>
        <time>2021-05-23T09:02:12Z</time>
      </trkpt>
      <trkpt lat="45.02072" lon="4.15727">
        <ele>1264.75</ele>
        <time>2021-05-23T09:02:22Z</time>
      </trkpt>
      <trkpt lat="45.02063" lon="4.15715">
        <ele>1265.23</ele>
        <time>2021-05-23T09:02:31Z</time>
      </trkpt>
      <trkpt lat="45.02054" lon="4.15705">
        <ele>1266.19</ele>
        <time>2021-05-23T09:02:41Z</time>
      </trkpt>
      <trkpt lat="45.02047" lon="4.15696">
        <ele>1267.16</ele>
        <time>2021-05-23T09:02:49Z</time>
      </trkpt>
      <trkpt lat="45.02034" lon="4.15683">
        <ele>1269.56</ele>
        <time>2021-05-23T09:02:59Z</time>
      </trkpt>
      <trkpt lat="45.02026" lon="4.15673">
        <ele>1271.48</ele>
        <time>2021-05-23T09:03:08Z</time>
      </trkpt>
      <trkpt lat="45.02015" lon="4.15663">
        <ele>1271</ele>
        <time>2021-05-23T09:03:17Z</time>
      </trkpt>
      <trkpt lat="45.02006" lon="4.15651">
        <ele>1270.52</ele>
        <time>2021-05-23T09:03:27Z</time>
      </trkpt>
      <trkpt lat="45.01999" lon="4.15633">
        <ele>1270.52</ele>
        <time>2021-05-23T09:03:37Z</time>
      </trkpt>
      <trkpt lat="45.01996" lon="4.15627">
        <ele>1270.04</ele>
        <time>2021-05-23T09:03:42Z</time>
      </trkpt>
      <trkpt lat="45.01988" lon="4.15612">
        <ele>1270.04</ele>
        <time>2021-05-23T09:03:52Z</time>
      </trkpt>
      <trkpt lat="45.01987" lon="4.15609">
        <ele>1270.04</ele>
        <time>2021-05-23T09:03:55Z</time>
      </trkpt>
      <trkpt lat="45.01978" lon="4.15594">
        <ele>1270.04</ele>
        <time>2021-05-23T09:04:05Z</time>
      </trkpt>
      <trkpt lat="45.0197" lon="4.15581">
        <ele>1270.52</ele>
        <time>2021-05-23T09:04:15Z</time>
      </trkpt>
      <trkpt lat="45.01961" lon="4.15569">
        <ele>1271</ele>
        <time>2021-05-23T09:04:25Z</time>
      </trkpt>
      <trkpt lat="45.01955" lon="4.15557">
        <ele>1270.52</ele>
        <time>2021-05-23T09:04:33Z</time>
      </trkpt>
      <trkpt lat="45.0195" lon="4.15548">
        <ele>1270.04</ele>
        <time>2021-05-23T09:04:42Z</time>
      </trkpt>
      <trkpt lat="45.01943" lon="4.15538">
        <ele>1270.52</ele>
        <time>2021-05-23T09:04:50Z</time>
      </trkpt>
      <trkpt lat="45.01934" lon="4.15524">
        <ele>1270.52</ele>
        <time>2021-05-23T09:04:59Z</time>
      </trkpt>
      <trkpt lat="45.01929" lon="4.15514">
        <ele>1271.48</ele>
        <time>2021-05-23T09:05:08Z</time>
      </trkpt>
      <trkpt lat="45.01923" lon="4.15501">
        <ele>1271.48</ele>
        <time>2021-05-23T09:05:16Z</time>
      </trkpt>
      <trkpt lat="45.01915" lon="4.15488">
        <ele>1271.96</ele>
        <time>2021-05-23T09:05:26Z</time>
      </trkpt>
      <trkpt lat="45.01906" lon="4.15475">
        <ele>1271.96</ele>
        <time>2021-05-23T09:05:35Z</time>
      </trkpt>
      <trkpt lat="45.01899" lon="4.15462">
        <ele>1271.96</ele>
        <time>2021-05-23T09:05:44Z</time>
      </trkpt>
      <trkpt lat="45.01892" lon="4.1545">
        <ele>1271.96</ele>
        <time>2021-05-23T09:05:54Z</time>
      </trkpt>
      <trkpt lat="45.01886" lon="4.15439">
        <ele>1271.96</ele>
        <time>2021-05-23T09:06:03Z</time>
      </trkpt>
      <trkpt lat="45.01878" lon="4.15424">
        <ele>1272.44</ele>
        <time>2021-05-23T09:06:13Z</time>
      </trkpt>
      <trkpt lat="45.01872" lon="4.15413">
        <ele>1272.44</ele>
        <time>2021-05-23T09:06:23Z</time>
      </trkpt>
      <trkpt lat="45.01868" lon="4.15407">
        <ele>1272.44</ele>
        <time>2021-05-23T09:06:30Z</time>
      </trkpt>
      <trkpt lat="45.01859" lon="4.15393">
        <ele>1273.88</ele>
        <time>2021-05-23T09:06:39Z</time>
      </trkpt>
      <trkpt lat="45.01851" lon="4.15381">
        <ele>1275.33</ele>
        <time>2021-05-23T09:06:48Z</time>
      </trkpt>
      <trkpt lat="45.01845" lon="4.15369">
        <ele>1275.81</ele>
        <time>2021-05-23T09:06:57Z</time>
      </trkpt>
      <trkpt lat="45.0184" lon="4.1536">
        <ele>1276.29</ele>
        <time>2021-05-23T09:07:03Z</time>
      </trkpt>
      <trkpt lat="45.01829" lon="4.15345">
        <ele>1277.25</ele>
        <time>2021-05-23T09:07:13Z</time>
      </trkpt>
      <trkpt lat="45.01825" lon="4.15337">
        <ele>1277.25</ele>
        <time>2021-05-23T09:07:19Z</time>
      </trkpt>
      <trkpt lat="45.01817" lon="4.15324">
        <ele>1277.73</ele>
        <time>2021-05-23T09:07:29Z</time>
      </trkpt>
      <trkpt lat="45.01811" lon="4.15315">
        <ele>1278.21</ele>
        <time>2021-05-23T09:07:37Z</time>
      </trkpt>
      <trkpt lat="45.01804" lon="4.15304">
        <ele>1278.69</ele>
        <time>2021-05-23T09:07:45Z</time>
      </trkpt>
      <trkpt lat="45.01796" lon="4.1529">
        <ele>1278.21</ele>
        <time>2021-05-23T09:07:54Z</time>
      </trkpt>
      <trkpt lat="45.01787" lon="4.15277">
        <ele>1279.17</ele>
        <time>2021-05-23T09:08:03Z</time>
      </trkpt>
      <trkpt lat="45.0178" lon="4.15267">
        <ele>1280.13</ele>
        <time>2021-05-23T09:08:12Z</time>
      </trkpt>
      <trkpt lat="45.01772" lon="4.15254">
        <ele>1280.61</ele>
        <time>2021-05-23T09:08:21Z</time>
      </trkpt>
      <trkpt lat="45.01764" lon="4.15239">
        <ele>1282.54</ele>
        <time>2021-05-23T09:08:30Z</time>
      </trkpt>
      <trkpt lat="45.01758" lon="4.15228">
        <ele>1282.54</ele>
        <time>2021-05-23T09:08:39Z</time>
      </trkpt>
      <trkpt lat="45.01752" lon="4.15217">
        <ele>1283.5</ele>
        <time>2021-05-23T09:08:47Z</time>
      </trkpt>
      <trkpt lat="45.01745" lon="4.15207">
        <ele>1283.02</ele>
        <time>2021-05-23T09:08:52Z</time>
      </trkpt>
      <trkpt lat="45.01745" lon="4.15203">
        <ele>1283.02</ele>
        <time>2021-05-23T09:08:54Z</time>
      </trkpt>
      <trkpt lat="45.01738" lon="4.15195">
        <ele>1283.02</ele>
        <time>2021-05-23T09:09:03Z</time>
      </trkpt>
      <trkpt lat="45.01727" lon="4.15176">
        <ele>1283.5</ele>
        <time>2021-05-23T09:09:16Z</time>
      </trkpt>
      <trkpt lat="45.0172" lon="4.15164">
        <ele>1283.98</ele>
        <time>2021-05-23T09:09:25Z</time>
      </trkpt>
      <trkpt lat="45.01711" lon="4.1515">
        <ele>1283.02</ele>
        <time>2021-05-23T09:09:34Z</time>
      </trkpt>
      <trkpt lat="45.01709" lon="4.15145">
        <ele>1283.02</ele>
        <time>2021-05-23T09:09:38Z</time>
      </trkpt>
      <trkpt lat="45.017" lon="4.15131">
        <ele>1282.54</ele>
        <time>2021-05-23T09:09:48Z</time>
      </trkpt>
      <trkpt lat="45.01699" lon="4.15129">
        <ele>1283.02</ele>
        <time>2021-05-23T09:09:57Z</time>
      </trkpt>
      <trkpt lat="45.01693" lon="4.15118">
        <ele>1283.02</ele>
        <time>2021-05-23T09:10:07Z</time>
      </trkpt>
      <trkpt lat="45.01691" lon="4.15114">
        <ele>1283.02</ele>
        <time>2021-05-23T09:10:12Z</time>
      </trkpt>
      <trkpt lat="45.01675" lon="4.15091">
        <ele>1283.02</ele>
        <time>2021-05-23T09:10:32Z</time>
      </trkpt>
      <trkpt lat="45.01664" lon="4.15072">
        <ele>1284.46</ele>
        <time>2021-05-23T09:10:49Z</time>
      </trkpt>
      <trkpt lat="45.0166" lon="4.15061">
        <ele>1286.38</ele>
        <time>2021-05-23T09:11:03Z</time>
      </trkpt>
      <trkpt lat="45.01655" lon="4.15054">
        <ele>1285.42</ele>
        <time>2021-05-23T09:11:10Z</time>
      </trkpt>
      <trkpt lat="45.0165" lon="4.15048">
        <ele>1284.94</ele>
        <time>2021-05-23T09:11:15Z</time>
      </trkpt>
      <trkpt lat="45.01639" lon="4.15026">
        <ele>1285.42</ele>
        <time>2021-05-23T09:11:29Z</time>
      </trkpt>
      <trkpt lat="45.01632" lon="4.15013">
        <ele>1285.42</ele>
        <time>2021-05-23T09:11:40Z</time>
      </trkpt>
      <trkpt lat="45.01628" lon="4.15005">
        <ele>1285.9</ele>
        <time>2021-05-23T09:11:46Z</time>
      </trkpt>
      <trkpt lat="45.01624" lon="4.14998">
        <ele>1286.38</ele>
        <time>2021-05-23T09:11:52Z</time>
      </trkpt>
      <trkpt lat="45.0162" lon="4.15">
        <ele>1285.42</ele>
        <time>2021-05-23T09:12:00Z</time>
      </trkpt>
      <trkpt lat="45.01615" lon="4.15003">
        <ele>1285.42</ele>
        <time>2021-05-23T09:12:09Z</time>
      </trkpt>
      <trkpt lat="45.01614" lon="4.15003">
        <ele>1285.42</ele>
        <time>2021-05-23T09:12:12Z</time>
      </trkpt>
      <trkpt lat="45.01604" lon="4.15008">
        <ele>1286.38</ele>
        <time>2021-05-23T09:12:22Z</time>
      </trkpt>
      <trkpt lat="45.01592" lon="4.15009">
        <ele>1286.86</ele>
        <time>2021-05-23T09:12:31Z</time>
      </trkpt>
      <trkpt lat="45.01584" lon="4.1501">
        <ele>1286.86</ele>
        <time>2021-05-23T09:12:38Z</time>
      </trkpt>
      <trkpt lat="45.01579" lon="4.15013">
        <ele>1287.34</ele>
        <time>2021-05-23T09:12:42Z</time>
      </trkpt>
      <trkpt lat="45.01574" lon="4.15016">
        <ele>1288.3</ele>
        <time>2021-05-23T09:12:46Z</time>
      </trkpt>
      <trkpt lat="45.01569" lon="4.15018">
        <ele>1288.78</ele>
        <time>2021-05-23T09:12:50Z</time>
      </trkpt>
      <trkpt lat="45.01565" lon="4.15019">
        <ele>1288.78</ele>
        <time>2021-05-23T09:12:53Z</time>
      </trkpt>
      <trkpt lat="45.0156" lon="4.15021">
        <ele>1288.78</ele>
        <time>2021-05-23T09:12:58Z</time>
      </trkpt>
      <trkpt lat="45.01548" lon="4.15026">
        <ele>1288.78</ele>
        <time>2021-05-23T09:13:08Z</time>
      </trkpt>
      <trkpt lat="45.01542" lon="4.15028">
        <ele>1288.78</ele>
        <time>2021-05-23T09:13:14Z</time>
      </trkpt>
      <trkpt lat="45.01531" lon="4.15031">
        <ele>1289.27</ele>
        <time>2021-05-23T09:13:23Z</time>
      </trkpt>
      <trkpt lat="45.01519" lon="4.15033">
        <ele>1290.23</ele>
        <time>2021-05-23T09:13:32Z</time>
      </trkpt>
      <trkpt lat="45.01518" lon="4.15033">
        <ele>1290.23</ele>
        <time>2021-05-23T09:13:33Z</time>
      </trkpt>
      <trkpt lat="45.01509" lon="4.15036">
        <ele>1290.71</ele>
        <time>2021-05-23T09:13:41Z</time>
      </trkpt>
      <trkpt lat="45.01497" lon="4.15042">
        <ele>1291.67</ele>
        <time>2021-05-23T09:13:51Z</time>
      </trkpt>
      <trkpt lat="45.01483" lon="4.15045">
        <ele>1293.59</ele>
        <time>2021-05-23T09:14:00Z</time>
      </trkpt>
      <trkpt lat="45.01472" lon="4.15046">
        <ele>1294.55</ele>
        <time>2021-05-23T09:14:11Z</time>
      </trkpt>
      <trkpt lat="45.01457" lon="4.15047">
        <ele>1294.55</ele>
        <time>2021-05-23T09:14:21Z</time>
      </trkpt>
      <trkpt lat="45.01456" lon="4.15047">
        <ele>1294.55</ele>
        <time>2021-05-23T09:14:22Z</time>
      </trkpt>
      <trkpt lat="45.01435" lon="4.15052">
        <ele>1294.55</ele>
        <time>2021-05-23T09:14:36Z</time>
      </trkpt>
      <trkpt lat="45.01416" lon="4.15057">
        <ele>1291.19</ele>
        <time>2021-05-23T09:14:52Z</time>
      </trkpt>
      <trkpt lat="45.014" lon="4.15057">
        <ele>1289.27</ele>
        <time>2021-05-23T09:15:05Z</time>
      </trkpt>
      <trkpt lat="45.01396" lon="4.15057">
        <ele>1288.78</ele>
        <time>2021-05-23T09:15:10Z</time>
      </trkpt>
      <trkpt lat="45.01379" lon="4.15056">
        <ele>1287.34</ele>
        <time>2021-05-23T09:15:22Z</time>
      </trkpt>
      <trkpt lat="45.01371" lon="4.15055">
        <ele>1285.9</ele>
        <time>2021-05-23T09:15:28Z</time>
      </trkpt>
      <trkpt lat="45.01357" lon="4.15058">
        <ele>1285.9</ele>
        <time>2021-05-23T09:15:38Z</time>
      </trkpt>
      <trkpt lat="45.0134" lon="4.15062">
        <ele>1283.98</ele>
        <time>2021-05-23T09:15:48Z</time>
      </trkpt>
      <trkpt lat="45.01336" lon="4.15062">
        <ele>1283.02</ele>
        <time>2021-05-23T09:15:52Z</time>
      </trkpt>
      <trkpt lat="45.0132" lon="4.15062">
        <ele>1282.06</ele>
        <time>2021-05-23T09:16:03Z</time>
      </trkpt>
      <trkpt lat="45.01307" lon="4.15063">
        <ele>1281.09</ele>
        <time>2021-05-23T09:16:13Z</time>
      </trkpt>
      <trkpt lat="45.0129" lon="4.15067">
        <ele>1279.65</ele>
        <time>2021-05-23T09:16:24Z</time>
      </trkpt>
      <trkpt lat="45.01274" lon="4.15064">
        <ele>1278.69</ele>
        <time>2021-05-23T09:16:34Z</time>
      </trkpt>
      <trkpt lat="45.01264" lon="4.15063">
        <ele>1277.73</ele>
        <time>2021-05-23T09:16:46Z</time>
      </trkpt>
      <trkpt lat="45.01256" lon="4.15066">
        <ele>1277.25</ele>
        <time>2021-05-23T09:16:51Z</time>
      </trkpt>
      <trkpt lat="45.01238" lon="4.1507">
        <ele>1277.25</ele>
        <time>2021-05-23T09:17:05Z</time>
      </trkpt>
      <trkpt lat="45.01224" lon="4.1507">
        <ele>1276.77</ele>
        <time>2021-05-23T09:17:15Z</time>
      </trkpt>
      <trkpt lat="45.01221" lon="4.1507">
        <ele>1276.77</ele>
        <time>2021-05-23T09:17:18Z</time>
      </trkpt>
      <trkpt lat="45.01202" lon="4.15074">
        <ele>1276.29</ele>
        <time>2021-05-23T09:17:31Z</time>
      </trkpt>
      <trkpt lat="45.01197" lon="4.15074">
        <ele>1276.29</ele>
        <time>2021-05-23T09:17:35Z</time>
      </trkpt>
      <trkpt lat="45.0118" lon="4.15074">
        <ele>1274.85</ele>
        <time>2021-05-23T09:17:46Z</time>
      </trkpt>
      <trkpt lat="45.01174" lon="4.15074">
        <ele>1274.36</ele>
        <time>2021-05-23T09:17:51Z</time>
      </trkpt>
      <trkpt lat="45.01163" lon="4.15078">
        <ele>1273.4</ele>
        <time>2021-05-23T09:18:01Z</time>
      </trkpt>
      <trkpt lat="45.01151" lon="4.15082">
        <ele>1272.44</ele>
        <time>2021-05-23T09:18:10Z</time>
      </trkpt>
      <trkpt lat="45.0115" lon="4.15082">
        <ele>1272.44</ele>
        <time>2021-05-23T09:18:12Z</time>
      </trkpt>
      <trkpt lat="45.01135" lon="4.1508">
        <ele>1272.44</ele>
        <time>2021-05-23T09:18:24Z</time>
      </trkpt>
      <trkpt lat="45.0113" lon="4.1508">
        <ele>1272.44</ele>
        <time>2021-05-23T09:18:28Z</time>
      </trkpt>
      <trkpt lat="45.01119" lon="4.15082">
        <ele>1271.48</ele>
        <time>2021-05-23T09:18:38Z</time>
      </trkpt>
      <trkpt lat="45.01102" lon="4.1508">
        <ele>1270.52</ele>
        <time>2021-05-23T09:18:50Z</time>
      </trkpt>
      <trkpt lat="45.01089" lon="4.15072">
        <ele>1269.56</ele>
        <time>2021-05-23T09:19:01Z</time>
      </trkpt>
      <trkpt lat="45.01081" lon="4.15071">
        <ele>1270.04</ele>
        <time>2021-05-23T09:19:09Z</time>
      </trkpt>
      <trkpt lat="45.0107" lon="4.15066">
        <ele>1274.36</ele>
        <time>2021-05-23T09:19:18Z</time>
      </trkpt>
      <trkpt lat="45.01061" lon="4.15065">
        <ele>1274.36</ele>
        <time>2021-05-23T09:19:26Z</time>
      </trkpt>
      <trkpt lat="45.01041" lon="4.15059">
        <ele>1273.4</ele>
        <time>2021-05-23T09:19:41Z</time>
      </trkpt>
      <trkpt lat="45.01039" lon="4.15057">
        <ele>1272.92</ele>
        <time>2021-05-23T09:19:44Z</time>
      </trkpt>
      <trkpt lat="45.01026" lon="4.15054">
        <ele>1273.4</ele>
        <time>2021-05-23T09:19:54Z</time>
      </trkpt>
      <trkpt lat="45.01014" lon="4.15046">
        <ele>1274.85</ele>
        <time>2021-05-23T09:20:04Z</time>
      </trkpt>
      <trkpt lat="45.01006" lon="4.15042">
        <ele>1275.81</ele>
        <time>2021-05-23T09:20:11Z</time>
      </trkpt>
      <trkpt lat="45.01002" lon="4.15042">
        <ele>1275.33</ele>
        <time>2021-05-23T09:20:14Z</time>
      </trkpt>
      <trkpt lat="45.00997" lon="4.15036">
        <ele>1273.4</ele>
        <time>2021-05-23T09:20:21Z</time>
      </trkpt>
      <trkpt lat="45.00981" lon="4.15026">
        <ele>1269.56</ele>
        <time>2021-05-23T09:20:34Z</time>
      </trkpt>
      <trkpt lat="45.00972" lon="4.15019">
        <ele>1267.64</ele>
        <time>2021-05-23T09:20:45Z</time>
      </trkpt>
      <trkpt lat="45.00959" lon="4.15016">
        <ele>1265.71</ele>
        <time>2021-05-23T09:20:55Z</time>
      </trkpt>
      <trkpt lat="45.00953" lon="4.15014">
        <ele>1264.75</ele>
        <time>2021-05-23T09:21:00Z</time>
      </trkpt>
      <trkpt lat="45.00938" lon="4.15004">
        <ele>1260.91</ele>
        <time>2021-05-23T09:21:12Z</time>
      </trkpt>
      <trkpt lat="45.00926" lon="4.14997">
        <ele>1258.5</ele>
        <time>2021-05-23T09:21:22Z</time>
      </trkpt>
      <trkpt lat="45.00914" lon="4.14987">
        <ele>1258.02</ele>
        <time>2021-05-23T09:21:32Z</time>
      </trkpt>
      <trkpt lat="45.00899" lon="4.14978">
        <ele>1258.5</ele>
        <time>2021-05-23T09:21:44Z</time>
      </trkpt>
      <trkpt lat="45.00887" lon="4.14972">
        <ele>1258.5</ele>
        <time>2021-05-23T09:21:55Z</time>
      </trkpt>
      <trkpt lat="45.00876" lon="4.14971">
        <ele>1258.02</ele>
        <time>2021-05-23T09:22:05Z</time>
      </trkpt>
      <trkpt lat="45.00865" lon="4.1497">
        <ele>1257.06</ele>
        <time>2021-05-23T09:22:15Z</time>
      </trkpt>
      <trkpt lat="45.00847" lon="4.14969">
        <ele>1258.98</ele>
        <time>2021-05-23T09:22:26Z</time>
      </trkpt>
      <trkpt lat="45.00839" lon="4.14968">
        <ele>1258.5</ele>
        <time>2021-05-23T09:22:32Z</time>
      </trkpt>
      <trkpt lat="45.00833" lon="4.14969">
        <ele>1258.02</ele>
        <time>2021-05-23T09:22:36Z</time>
      </trkpt>
      <trkpt lat="45.00818" lon="4.14964">
        <ele>1257.54</ele>
        <time>2021-05-23T09:22:48Z</time>
      </trkpt>
      <trkpt lat="45.00804" lon="4.1496">
        <ele>1255.62</ele>
        <time>2021-05-23T09:22:59Z</time>
      </trkpt>
      <trkpt lat="45.00789" lon="4.14958">
        <ele>1255.14</ele>
        <time>2021-05-23T09:23:10Z</time>
      </trkpt>
      <trkpt lat="45.00777" lon="4.14953">
        <ele>1254.18</ele>
        <time>2021-05-23T09:23:19Z</time>
      </trkpt>
      <trkpt lat="45.00775" lon="4.14948">
        <ele>1253.22</ele>
        <time>2021-05-23T09:23:25Z</time>
      </trkpt>
      <trkpt lat="45.00771" lon="4.14949">
        <ele>1253.22</ele>
        <time>2021-05-23T09:23:29Z</time>
      </trkpt>
      <trkpt lat="45.00762" lon="4.1494">
        <ele>1252.25</ele>
        <time>2021-05-23T09:23:38Z</time>
      </trkpt>
      <trkpt lat="45.00756" lon="4.14936">
        <ele>1251.77</ele>
        <time>2021-05-23T09:23:45Z</time>
      </trkpt>
      <trkpt lat="45.00754" lon="4.14932">
        <ele>1251.29</ele>
        <time>2021-05-23T09:23:50Z</time>
      </trkpt>
      <trkpt lat="45.00749" lon="4.14932">
        <ele>1251.29</ele>
        <time>2021-05-23T09:23:56Z</time>
      </trkpt>
      <trkpt lat="45.00745" lon="4.14929">
        <ele>1251.29</ele>
        <time>2021-05-23T09:24:00Z</time>
      </trkpt>
      <trkpt lat="45.0074" lon="4.14929">
        <ele>1250.81</ele>
        <time>2021-05-23T09:24:03Z</time>
      </trkpt>
      <trkpt lat="45.00736" lon="4.14926">
        <ele>1250.33</ele>
        <time>2021-05-23T09:24:08Z</time>
      </trkpt>
      <trkpt lat="45.00726" lon="4.1492">
        <ele>1249.85</ele>
        <time>2021-05-23T09:24:16Z</time>
      </trkpt>
      <trkpt lat="45.00719" lon="4.14916">
        <ele>1249.85</ele>
        <time>2021-05-23T09:24:21Z</time>
      </trkpt>
      <trkpt lat="45.00706" lon="4.14914">
        <ele>1249.85</ele>
        <time>2021-05-23T09:24:31Z</time>
      </trkpt>
      <trkpt lat="45.00695" lon="4.1491">
        <ele>1249.85</ele>
        <time>2021-05-23T09:24:39Z</time>
      </trkpt>
      <trkpt lat="45.00685" lon="4.14907">
        <ele>1249.37</ele>
        <time>2021-05-23T09:24:47Z</time>
      </trkpt>
      <trkpt lat="45.00683" lon="4.14907">
        <ele>1249.37</ele>
        <time>2021-05-23T09:24:51Z</time>
      </trkpt>
      <trkpt lat="45.0067" lon="4.1491">
        <ele>1250.33</ele>
        <time>2021-05-23T09:25:01Z</time>
      </trkpt>
      <trkpt lat="45.00658" lon="4.1492">
        <ele>1248.89</ele>
        <time>2021-05-23T09:25:11Z</time>
      </trkpt>
      <trkpt lat="45.00646" lon="4.14927">
        <ele>1248.89</ele>
        <time>2021-05-23T09:25:21Z</time>
      </trkpt>
      <trkpt lat="45.00637" lon="4.14933">
        <ele>1248.89</ele>
        <time>2021-05-23T09:25:31Z</time>
      </trkpt>
      <trkpt lat="45.00625" lon="4.14933">
        <ele>1247.93</ele>
        <time>2021-05-23T09:25:42Z</time>
      </trkpt>
      <trkpt lat="45.00625" lon="4.14936">
        <ele>1247.45</ele>
        <time>2021-05-23T09:25:44Z</time>
      </trkpt>
      <trkpt lat="45.00626" lon="4.14948">
        <ele>1246.97</ele>
        <time>2021-05-23T09:25:53Z</time>
      </trkpt>
      <trkpt lat="45.00625" lon="4.14955">
        <ele>1247.45</ele>
        <time>2021-05-23T09:25:57Z</time>
      </trkpt>
      <trkpt lat="45.00623" lon="4.14962">
        <ele>1246.97</ele>
        <time>2021-05-23T09:26:03Z</time>
      </trkpt>
      <trkpt lat="45.00617" lon="4.14986">
        <ele>1246.01</ele>
        <time>2021-05-23T09:26:15Z</time>
      </trkpt>
      <trkpt lat="45.00611" lon="4.15004">
        <ele>1246.49</ele>
        <time>2021-05-23T09:26:27Z</time>
      </trkpt>
      <trkpt lat="45.00607" lon="4.15015">
        <ele>1247.93</ele>
        <time>2021-05-23T09:26:33Z</time>
      </trkpt>
      <trkpt lat="45.00606" lon="4.15018">
        <ele>1248.41</ele>
        <time>2021-05-23T09:26:35Z</time>
      </trkpt>
      <trkpt lat="45.00605" lon="4.15021">
        <ele>1248.89</ele>
        <time>2021-05-23T09:26:37Z</time>
      </trkpt>
      <trkpt lat="45.006" lon="4.15037">
        <ele>1250.33</ele>
        <time>2021-05-23T09:26:46Z</time>
      </trkpt>
      <trkpt lat="45.00595" lon="4.1505">
        <ele>1251.29</ele>
        <time>2021-05-23T09:26:54Z</time>
      </trkpt>
      <trkpt lat="45.00591" lon="4.15055">
        <ele>1252.25</ele>
        <time>2021-05-23T09:26:59Z</time>
      </trkpt>
      <trkpt lat="45.00585" lon="4.15078">
        <ele>1254.18</ele>
        <time>2021-05-23T09:27:12Z</time>
      </trkpt>
      <trkpt lat="45.00584" lon="4.1508">
        <ele>1254.66</ele>
        <time>2021-05-23T09:27:14Z</time>
      </trkpt>
      <trkpt lat="45.0058" lon="4.15096">
        <ele>1255.14</ele>
        <time>2021-05-23T09:27:24Z</time>
      </trkpt>
      <trkpt lat="45.00575" lon="4.15113">
        <ele>1255.62</ele>
        <time>2021-05-23T09:27:33Z</time>
      </trkpt>
      <trkpt lat="45.0057" lon="4.15129">
        <ele>1256.1</ele>
        <time>2021-05-23T09:27:44Z</time>
      </trkpt>
      <trkpt lat="45.00565" lon="4.15147">
        <ele>1257.06</ele>
        <time>2021-05-23T09:27:54Z</time>
      </trkpt>
      <trkpt lat="45.00561" lon="4.15158">
        <ele>1258.02</ele>
        <time>2021-05-23T09:28:02Z</time>
      </trkpt>
      <trkpt lat="45.00557" lon="4.15172">
        <ele>1259.46</ele>
        <time>2021-05-23T09:28:11Z</time>
      </trkpt>
      <trkpt lat="45.00553" lon="4.15186">
        <ele>1259.94</ele>
        <time>2021-05-23T09:28:19Z</time>
      </trkpt>
      <trkpt lat="45.00549" lon="4.15202">
        <ele>1260.43</ele>
        <time>2021-05-23T09:28:28Z</time>
      </trkpt>
      <trkpt lat="45.00544" lon="4.15217">
        <ele>1260.91</ele>
        <time>2021-05-23T09:28:38Z</time>
      </trkpt>
      <trkpt lat="45.0054" lon="4.15231">
        <ele>1261.39</ele>
        <time>2021-05-23T09:28:47Z</time>
      </trkpt>
      <trkpt lat="45.00535" lon="4.15247">
        <ele>1262.83</ele>
        <time>2021-05-23T09:28:56Z</time>
      </trkpt>
      <trkpt lat="45.00532" lon="4.15254">
        <ele>1263.31</ele>
        <time>2021-05-23T09:29:02Z</time>
      </trkpt>
      <trkpt lat="45.00529" lon="4.15266">
        <ele>1264.27</ele>
        <time>2021-05-23T09:29:08Z</time>
      </trkpt>
      <trkpt lat="45.00521" lon="4.1529">
        <ele>1265.23</ele>
        <time>2021-05-23T09:29:23Z</time>
      </trkpt>
      <trkpt lat="45.0052" lon="4.15292">
        <ele>1264.75</ele>
        <time>2021-05-23T09:29:25Z</time>
      </trkpt>
      <trkpt lat="45.00513" lon="4.15314">
        <ele>1266.19</ele>
        <time>2021-05-23T09:29:39Z</time>
      </trkpt>
      <trkpt lat="45.00507" lon="4.15333">
        <ele>1267.64</ele>
        <time>2021-05-23T09:29:49Z</time>
      </trkpt>
      <trkpt lat="45.00501" lon="4.15356">
        <ele>1267.64</ele>
        <time>2021-05-23T09:30:00Z</time>
      </trkpt>
      <trkpt lat="45.00496" lon="4.15373">
        <ele>1268.12</ele>
        <time>2021-05-23T09:30:10Z</time>
      </trkpt>
      <trkpt lat="45.00492" lon="4.15393">
        <ele>1268.6</ele>
        <time>2021-05-23T09:30:21Z</time>
      </trkpt>
      <trkpt lat="45.00488" lon="4.15412">
        <ele>1268.6</ele>
        <time>2021-05-23T09:30:31Z</time>
      </trkpt>
      <trkpt lat="45.00484" lon="4.15431">
        <ele>1269.08</ele>
        <time>2021-05-23T09:30:41Z</time>
      </trkpt>
      <trkpt lat="45.00478" lon="4.1545">
        <ele>1271.96</ele>
        <time>2021-05-23T09:30:54Z</time>
      </trkpt>
      <trkpt lat="45.00478" lon="4.15451">
        <ele>1271.96</ele>
        <time>2021-05-23T09:30:55Z</time>
      </trkpt>
      <trkpt lat="45.00474" lon="4.15472">
        <ele>1272.44</ele>
        <time>2021-05-23T09:31:06Z</time>
      </trkpt>
      <trkpt lat="45.0047" lon="4.1549">
        <ele>1272.44</ele>
        <time>2021-05-23T09:31:16Z</time>
      </trkpt>
      <trkpt lat="45.00466" lon="4.15509">
        <ele>1271.96</ele>
        <time>2021-05-23T09:31:26Z</time>
      </trkpt>
      <trkpt lat="45.00465" lon="4.15511">
        <ele>1272.44</ele>
        <time>2021-05-23T09:31:29Z</time>
      </trkpt>
      <trkpt lat="45.0046" lon="4.15532">
        <ele>1272.44</ele>
        <time>2021-05-23T09:31:40Z</time>
      </trkpt>
      <trkpt lat="45.0046" lon="4.15535">
        <ele>1272.44</ele>
        <time>2021-05-23T09:31:42Z</time>
      </trkpt>
      <trkpt lat="45.00455" lon="4.15559">
        <ele>1273.88</ele>
        <time>2021-05-23T09:31:55Z</time>
      </trkpt>
      <trkpt lat="45.00451" lon="4.15577">
        <ele>1273.4</ele>
        <time>2021-05-23T09:32:05Z</time>
      </trkpt>
      <trkpt lat="45.00448" lon="4.15594">
        <ele>1273.4</ele>
        <time>2021-05-23T09:32:14Z</time>
      </trkpt>
      <trkpt lat="45.00443" lon="4.15613">
        <ele>1272.92</ele>
        <time>2021-05-23T09:32:23Z</time>
      </trkpt>
      <trkpt lat="45.00437" lon="4.15634">
        <ele>1273.4</ele>
        <time>2021-05-23T09:32:34Z</time>
      </trkpt>
      <trkpt lat="45.00434" lon="4.15652">
        <ele>1273.88</ele>
        <time>2021-05-23T09:32:44Z</time>
      </trkpt>
      <trkpt lat="45.0043" lon="4.15669">
        <ele>1273.88</ele>
        <time>2021-05-23T09:32:53Z</time>
      </trkpt>
      <trkpt lat="45.00426" lon="4.15685">
        <ele>1274.36</ele>
        <time>2021-05-23T09:33:04Z</time>
      </trkpt>
      <trkpt lat="45.00422" lon="4.15706">
        <ele>1274.36</ele>
        <time>2021-05-23T09:33:14Z</time>
      </trkpt>
      <trkpt lat="45.00416" lon="4.15726">
        <ele>1274.36</ele>
        <time>2021-05-23T09:33:24Z</time>
      </trkpt>
      <trkpt lat="45.00413" lon="4.15742">
        <ele>1275.81</ele>
        <time>2021-05-23T09:33:35Z</time>
      </trkpt>
      <trkpt lat="45.0041" lon="4.15756">
        <ele>1276.77</ele>
        <time>2021-05-23T09:33:42Z</time>
      </trkpt>
      <trkpt lat="45.00407" lon="4.15773">
        <ele>1277.73</ele>
        <time>2021-05-23T09:33:52Z</time>
      </trkpt>
      <trkpt lat="45.00403" lon="4.15797">
        <ele>1279.17</ele>
        <time>2021-05-23T09:34:04Z</time>
      </trkpt>
      <trkpt lat="45.00402" lon="4.15802">
        <ele>1279.65</ele>
        <time>2021-05-23T09:34:08Z</time>
      </trkpt>
      <trkpt lat="45.00399" lon="4.15827">
        <ele>1281.09</ele>
        <time>2021-05-23T09:34:22Z</time>
      </trkpt>
      <trkpt lat="45.00396" lon="4.15847">
        <ele>1282.06</ele>
        <time>2021-05-23T09:34:32Z</time>
      </trkpt>
      <trkpt lat="45.00393" lon="4.15868">
        <ele>1283.02</ele>
        <time>2021-05-23T09:34:43Z</time>
      </trkpt>
      <trkpt lat="45.00389" lon="4.15884">
        <ele>1283.98</ele>
        <time>2021-05-23T09:34:53Z</time>
      </trkpt>
      <trkpt lat="45.00387" lon="4.15903">
        <ele>1285.42</ele>
        <time>2021-05-23T09:35:04Z</time>
      </trkpt>
      <trkpt lat="45.00383" lon="4.15921">
        <ele>1285.9</ele>
        <time>2021-05-23T09:35:14Z</time>
      </trkpt>
      <trkpt lat="45.00378" lon="4.15932">
        <ele>1286.86</ele>
        <time>2021-05-23T09:35:22Z</time>
      </trkpt>
      <trkpt lat="45.00375" lon="4.15946">
        <ele>1287.82</ele>
        <time>2021-05-23T09:35:30Z</time>
      </trkpt>
      <trkpt lat="45.00374" lon="4.15953">
        <ele>1288.3</ele>
        <time>2021-05-23T09:35:34Z</time>
      </trkpt>
      <trkpt lat="45.00374" lon="4.1597">
        <ele>1289.75</ele>
        <time>2021-05-23T09:35:44Z</time>
      </trkpt>
      <trkpt lat="45.0037" lon="4.15994">
        <ele>1290.23</ele>
        <time>2021-05-23T09:35:55Z</time>
      </trkpt>
      <trkpt lat="45.00368" lon="4.16012">
        <ele>1289.27</ele>
        <time>2021-05-23T09:36:05Z</time>
      </trkpt>
      <trkpt lat="45.00362" lon="4.16028">
        <ele>1289.27</ele>
        <time>2021-05-23T09:36:15Z</time>
      </trkpt>
      <trkpt lat="45.00353" lon="4.16038">
        <ele>1289.75</ele>
        <time>2021-05-23T09:36:24Z</time>
      </trkpt>
      <trkpt lat="45.00346" lon="4.16045">
        <ele>1290.71</ele>
        <time>2021-05-23T09:36:32Z</time>
      </trkpt>
      <trkpt lat="45.00342" lon="4.16048">
        <ele>1290.71</ele>
        <time>2021-05-23T09:36:41Z</time>
      </trkpt>
      <trkpt lat="45.00342" lon="4.16048">
        <ele>1291.19</ele>
        <time>2021-05-23T09:36:43Z</time>
      </trkpt>
      <trkpt lat="45.00341" lon="4.16049">
        <ele>1291.19</ele>
        <time>2021-05-23T09:36:45Z</time>
      </trkpt>
      <trkpt lat="45.00327" lon="4.16057">
        <ele>1292.63</ele>
        <time>2021-05-23T09:36:57Z</time>
      </trkpt>
      <trkpt lat="45.00316" lon="4.16059">
        <ele>1292.63</ele>
        <time>2021-05-23T09:37:06Z</time>
      </trkpt>
      <trkpt lat="45.00301" lon="4.16065">
        <ele>1293.11</ele>
        <time>2021-05-23T09:37:16Z</time>
      </trkpt>
      <trkpt lat="45.00289" lon="4.16067">
        <ele>1293.11</ele>
        <time>2021-05-23T09:37:25Z</time>
      </trkpt>
      <trkpt lat="45.00278" lon="4.1607">
        <ele>1293.11</ele>
        <time>2021-05-23T09:37:33Z</time>
      </trkpt>
      <trkpt lat="45.00254" lon="4.16076">
        <ele>1294.07</ele>
        <time>2021-05-23T09:37:51Z</time>
      </trkpt>
      <trkpt lat="45.00228" lon="4.16082">
        <ele>1295.51</ele>
        <time>2021-05-23T09:38:11Z</time>
      </trkpt>
      <trkpt lat="45.00209" lon="4.16085">
        <ele>1296.96</ele>
        <time>2021-05-23T09:38:26Z</time>
      </trkpt>
      <trkpt lat="45.00192" lon="4.16088">
        <ele>1296.96</ele>
        <time>2021-05-23T09:38:40Z</time>
      </trkpt>
      <trkpt lat="45.00175" lon="4.16088">
        <ele>1296.96</ele>
        <time>2021-05-23T09:38:55Z</time>
      </trkpt>
      <trkpt lat="45.00152" lon="4.16091">
        <ele>1294.55</ele>
        <time>2021-05-23T09:39:13Z</time>
      </trkpt>
      <trkpt lat="45.00131" lon="4.16093">
        <ele>1292.63</ele>
        <time>2021-05-23T09:39:29Z</time>
      </trkpt>
      <trkpt lat="45.00108" lon="4.16096">
        <ele>1291.67</ele>
        <time>2021-05-23T09:39:46Z</time>
      </trkpt>
      <trkpt lat="45.00081" lon="4.16095">
        <ele>1291.67</ele>
        <time>2021-05-23T09:40:05Z</time>
      </trkpt>
      <trkpt lat="45.00058" lon="4.16092">
        <ele>1290.23</ele>
        <time>2021-05-23T09:40:22Z</time>
      </trkpt>
      <trkpt lat="45.0003" lon="4.1609">
        <ele>1289.27</ele>
        <time>2021-05-23T09:40:43Z</time>
      </trkpt>
      <trkpt lat="45.00019" lon="4.16089">
        <ele>1289.75</ele>
        <time>2021-05-23T09:40:52Z</time>
      </trkpt>
      <trkpt lat="45.0001" lon="4.16107">
        <ele>1286.86</ele>
        <time>2021-05-23T09:41:05Z</time>
      </trkpt>
      <trkpt lat="45.00007" lon="4.16142">
        <ele>1283.98</ele>
        <time>2021-05-23T09:41:23Z</time>
      </trkpt>
      <trkpt lat="45.00005" lon="4.16164">
        <ele>1283.98</ele>
        <time>2021-05-23T09:41:39Z</time>
      </trkpt>
      <trkpt lat="45.00004" lon="4.16165">
        <ele>1283.98</ele>
        <time>2021-05-23T09:41:52Z</time>
      </trkpt>
      <trkpt lat="45.00004" lon="4.16146">
        <ele>1283.02</ele>
        <time>2021-05-23T09:42:03Z</time>
      </trkpt>
      <trkpt lat="45.00006" lon="4.16144">
        <ele>1283.02</ele>
        <time>2021-05-23T09:42:05Z</time>
      </trkpt>
      <trkpt lat="45.00006" lon="4.16126">
        <ele>1282.54</ele>
        <time>2021-05-23T09:42:15Z</time>
      </trkpt>
      <trkpt lat="45.00009" lon="4.16108">
        <ele>1282.54</ele>
        <time>2021-05-23T09:42:24Z</time>
      </trkpt>
      <trkpt lat="45.00011" lon="4.16094">
        <ele>1282.54</ele>
        <time>2021-05-23T09:42:35Z</time>
      </trkpt>
      <trkpt lat="45.00011" lon="4.16094">
        <ele>1282.54</ele>
        <time>2021-05-23T09:42:54Z</time>
      </trkpt>
      <trkpt lat="45.00008" lon="4.1612">
        <ele>1281.57</ele>
        <time>2021-05-23T09:43:09Z</time>
      </trkpt>
      <trkpt lat="45.00007" lon="4.16135">
        <ele>1280.13</ele>
        <time>2021-05-23T09:43:18Z</time>
      </trkpt>
      <trkpt lat="45.00008" lon="4.16143">
        <ele>1279.17</ele>
        <time>2021-05-23T09:43:23Z</time>
      </trkpt>
      <trkpt lat="45.00006" lon="4.16158">
        <ele>1277.73</ele>
        <time>2021-05-23T09:43:31Z</time>
      </trkpt>
      <trkpt lat="45.00003" lon="4.16193">
        <ele>1277.25</ele>
        <time>2021-05-23T09:43:48Z</time>
      </trkpt>
      <trkpt lat="44.99999" lon="4.16225">
        <ele>1278.69</ele>
        <time>2021-05-23T09:44:03Z</time>
      </trkpt>
      <trkpt lat="44.99997" lon="4.16237">
        <ele>1279.17</ele>
        <time>2021-05-23T09:44:10Z</time>
      </trkpt>
      <trkpt lat="44.99981" lon="4.16241">
        <ele>1280.13</ele>
        <time>2021-05-23T09:44:22Z</time>
      </trkpt>
      <trkpt lat="44.99965" lon="4.1624">
        <ele>1279.65</ele>
        <time>2021-05-23T09:44:34Z</time>
      </trkpt>
      <trkpt lat="44.99948" lon="4.16236">
        <ele>1278.69</ele>
        <time>2021-05-23T09:44:45Z</time>
      </trkpt>
      <trkpt lat="44.99933" lon="4.16233">
        <ele>1279.17</ele>
        <time>2021-05-23T09:44:59Z</time>
      </trkpt>
      <trkpt lat="44.99918" lon="4.16233">
        <ele>1279.65</ele>
        <time>2021-05-23T09:45:09Z</time>
      </trkpt>
      <trkpt lat="44.99916" lon="4.16232">
        <ele>1279.65</ele>
        <time>2021-05-23T09:45:11Z</time>
      </trkpt>
      <trkpt lat="44.99907" lon="4.16232">
        <ele>1279.17</ele>
        <time>2021-05-23T09:45:16Z</time>
      </trkpt>
      <trkpt lat="44.99894" lon="4.16232">
        <ele>1277.73</ele>
        <time>2021-05-23T09:45:26Z</time>
      </trkpt>
      <trkpt lat="44.9988" lon="4.16233">
        <ele>1277.73</ele>
        <time>2021-05-23T09:45:36Z</time>
      </trkpt>
      <trkpt lat="44.99865" lon="4.16235">
        <ele>1277.73</ele>
        <time>2021-05-23T09:45:46Z</time>
      </trkpt>
      <trkpt lat="44.99848" lon="4.16236">
        <ele>1277.25</ele>
        <time>2021-05-23T09:45:58Z</time>
      </trkpt>
      <trkpt lat="44.99833" lon="4.16238">
        <ele>1277.25</ele>
        <time>2021-05-23T09:46:09Z</time>
      </trkpt>
      <trkpt lat="44.99816" lon="4.1624">
        <ele>1278.21</ele>
        <time>2021-05-23T09:46:20Z</time>
      </trkpt>
      <trkpt lat="44.99805" lon="4.16242">
        <ele>1277.25</ele>
        <time>2021-05-23T09:46:31Z</time>
      </trkpt>
      <trkpt lat="44.99792" lon="4.16242">
        <ele>1277.25</ele>
        <time>2021-05-23T09:46:41Z</time>
      </trkpt>
      <trkpt lat="44.99775" lon="4.16248">
        <ele>1276.29</ele>
        <time>2021-05-23T09:46:51Z</time>
      </trkpt>
      <trkpt lat="44.99773" lon="4.16245">
        <ele>1276.29</ele>
        <time>2021-05-23T09:46:56Z</time>
      </trkpt>
      <trkpt lat="44.99755" lon="4.16251">
        <ele>1276.77</ele>
        <time>2021-05-23T09:47:08Z</time>
      </trkpt>
      <trkpt lat="44.99738" lon="4.16255">
        <ele>1276.77</ele>
        <time>2021-05-23T09:47:18Z</time>
      </trkpt>
      <trkpt lat="44.99729" lon="4.16254">
        <ele>1275.33</ele>
        <time>2021-05-23T09:47:27Z</time>
      </trkpt>
      <trkpt lat="44.99718" lon="4.16256">
        <ele>1275.33</ele>
        <time>2021-05-23T09:47:33Z</time>
      </trkpt>
      <trkpt lat="44.99705" lon="4.16258">
        <ele>1277.25</ele>
        <time>2021-05-23T09:47:42Z</time>
      </trkpt>
      <trkpt lat="44.99684" lon="4.16264">
        <ele>1278.69</ele>
        <time>2021-05-23T09:47:55Z</time>
      </trkpt>
      <trkpt lat="44.99663" lon="4.16272">
        <ele>1279.65</ele>
        <time>2021-05-23T09:48:11Z</time>
      </trkpt>
      <trkpt lat="44.9965" lon="4.16273">
        <ele>1278.21</ele>
        <time>2021-05-23T09:48:21Z</time>
      </trkpt>
      <trkpt lat="44.99648" lon="4.16272">
        <ele>1277.73</ele>
        <time>2021-05-23T09:48:24Z</time>
      </trkpt>
      <trkpt lat="44.99638" lon="4.16273">
        <ele>1278.21</ele>
        <time>2021-05-23T09:48:38Z</time>
      </trkpt>
      <trkpt lat="44.99636" lon="4.16273">
        <ele>1277.73</ele>
        <time>2021-05-23T09:48:41Z</time>
      </trkpt>
      <trkpt lat="44.99622" lon="4.16276">
        <ele>1277.73</ele>
        <time>2021-05-23T09:48:52Z</time>
      </trkpt>
      <trkpt lat="44.99607" lon="4.16281">
        <ele>1277.73</ele>
        <time>2021-05-23T09:49:04Z</time>
      </trkpt>
      <trkpt lat="44.99593" lon="4.16281">
        <ele>1277.25</ele>
        <time>2021-05-23T09:49:15Z</time>
      </trkpt>
      <trkpt lat="44.99577" lon="4.16282">
        <ele>1277.25</ele>
        <time>2021-05-23T09:49:26Z</time>
      </trkpt>
      <trkpt lat="44.99562" lon="4.1629">
        <ele>1276.77</ele>
        <time>2021-05-23T09:49:37Z</time>
      </trkpt>
      <trkpt lat="44.99555" lon="4.16308">
        <ele>1274.85</ele>
        <time>2021-05-23T09:49:48Z</time>
      </trkpt>
      <trkpt lat="44.99554" lon="4.16331">
        <ele>1273.4</ele>
        <time>2021-05-23T09:49:59Z</time>
      </trkpt>
      <trkpt lat="44.99563" lon="4.16354">
        <ele>1272.44</ele>
        <time>2021-05-23T09:50:13Z</time>
      </trkpt>
      <trkpt lat="44.99574" lon="4.16372">
        <ele>1273.88</ele>
        <time>2021-05-23T09:50:24Z</time>
      </trkpt>
      <trkpt lat="44.99576" lon="4.16376">
        <ele>1273.88</ele>
        <time>2021-05-23T09:50:26Z</time>
      </trkpt>
      <trkpt lat="44.99575" lon="4.16384">
        <ele>1274.36</ele>
        <time>2021-05-23T09:50:31Z</time>
      </trkpt>
      <trkpt lat="44.99564" lon="4.164">
        <ele>1273.4</ele>
        <time>2021-05-23T09:50:43Z</time>
      </trkpt>
      <trkpt lat="44.9955" lon="4.16417">
        <ele>1271.96</ele>
        <time>2021-05-23T09:50:54Z</time>
      </trkpt>
      <trkpt lat="44.9954" lon="4.16426">
        <ele>1271.48</ele>
        <time>2021-05-23T09:51:05Z</time>
      </trkpt>
      <trkpt lat="44.99525" lon="4.16436">
        <ele>1269.56</ele>
        <time>2021-05-23T09:51:17Z</time>
      </trkpt>
      <trkpt lat="44.99524" lon="4.16437">
        <ele>1269.08</ele>
        <time>2021-05-23T09:51:20Z</time>
      </trkpt>
      <trkpt lat="44.99521" lon="4.16463">
        <ele>1266.67</ele>
        <time>2021-05-23T09:51:31Z</time>
      </trkpt>
      <trkpt lat="44.99523" lon="4.16487">
        <ele>1265.23</ele>
        <time>2021-05-23T09:51:42Z</time>
      </trkpt>
      <trkpt lat="44.99526" lon="4.16506">
        <ele>1264.27</ele>
        <time>2021-05-23T09:51:52Z</time>
      </trkpt>
      <trkpt lat="44.99526" lon="4.16531">
        <ele>1262.35</ele>
        <time>2021-05-23T09:52:06Z</time>
      </trkpt>
      <trkpt lat="44.9953" lon="4.16568">
        <ele>1260.91</ele>
        <time>2021-05-23T09:52:26Z</time>
      </trkpt>
      <trkpt lat="44.99532" lon="4.16605">
        <ele>1260.43</ele>
        <time>2021-05-23T09:52:45Z</time>
      </trkpt>
      <trkpt lat="44.99534" lon="4.16641">
        <ele>1257.54</ele>
        <time>2021-05-23T09:53:03Z</time>
      </trkpt>
      <trkpt lat="44.99537" lon="4.1668">
        <ele>1257.06</ele>
        <time>2021-05-23T09:53:24Z</time>
      </trkpt>
      <trkpt lat="44.99539" lon="4.16715">
        <ele>1255.62</ele>
        <time>2021-05-23T09:53:42Z</time>
      </trkpt>
      <trkpt lat="44.99541" lon="4.16755">
        <ele>1255.62</ele>
        <time>2021-05-23T09:54:02Z</time>
      </trkpt>
      <trkpt lat="44.99545" lon="4.16795">
        <ele>1256.1</ele>
        <time>2021-05-23T09:54:23Z</time>
      </trkpt>
      <trkpt lat="44.99545" lon="4.16819">
        <ele>1256.58</ele>
        <time>2021-05-23T09:54:40Z</time>
      </trkpt>
      <trkpt lat="44.99548" lon="4.1685">
        <ele>1257.06</ele>
        <time>2021-05-23T09:54:57Z</time>
      </trkpt>
      <trkpt lat="44.99552" lon="4.1689">
        <ele>1258.5</ele>
        <time>2021-05-23T09:55:19Z</time>
      </trkpt>
      <trkpt lat="44.99555" lon="4.16933">
        <ele>1260.43</ele>
        <time>2021-05-23T09:55:41Z</time>
      </trkpt>
      <trkpt lat="44.9955" lon="4.16974">
        <ele>1261.39</ele>
        <time>2021-05-23T09:56:04Z</time>
      </trkpt>
      <trkpt lat="44.99539" lon="4.17014">
        <ele>1262.83</ele>
        <time>2021-05-23T09:56:25Z</time>
      </trkpt>
      <trkpt lat="44.99528" lon="4.1705">
        <ele>1263.79</ele>
        <time>2021-05-23T09:56:45Z</time>
      </trkpt>
      <trkpt lat="44.99521" lon="4.17079">
        <ele>1264.75</ele>
        <time>2021-05-23T09:57:04Z</time>
      </trkpt>
      <trkpt lat="44.99513" lon="4.1711">
        <ele>1266.19</ele>
        <time>2021-05-23T09:57:23Z</time>
      </trkpt>
      <trkpt lat="44.9951" lon="4.1713">
        <ele>1270.04</ele>
        <time>2021-05-23T09:57:33Z</time>
      </trkpt>
      <trkpt lat="44.99511" lon="4.17138">
        <ele>1271</ele>
        <time>2021-05-23T09:57:38Z</time>
      </trkpt>
      <trkpt lat="44.99518" lon="4.17155">
        <ele>1273.4</ele>
        <time>2021-05-23T09:57:48Z</time>
      </trkpt>
      <trkpt lat="44.99526" lon="4.17171">
        <ele>1273.4</ele>
        <time>2021-05-23T09:57:58Z</time>
      </trkpt>
      <trkpt lat="44.99529" lon="4.17182">
        <ele>1273.4</ele>
        <time>2021-05-23T09:58:05Z</time>
      </trkpt>
      <trkpt lat="44.99529" lon="4.17189">
        <ele>1275.33</ele>
        <time>2021-05-23T09:58:08Z</time>
      </trkpt>
      <trkpt lat="44.99528" lon="4.17211">
        <ele>1280.13</ele>
        <time>2021-05-23T09:58:20Z</time>
      </trkpt>
      <trkpt lat="44.99523" lon="4.17223">
        <ele>1282.06</ele>
        <time>2021-05-23T09:58:31Z</time>
      </trkpt>
      <trkpt lat="44.99521" lon="4.17224">
        <ele>1282.06</ele>
        <time>2021-05-23T09:58:34Z</time>
      </trkpt>
      <trkpt lat="44.99508" lon="4.17231">
        <ele>1283.5</ele>
        <time>2021-05-23T09:58:44Z</time>
      </trkpt>
      <trkpt lat="44.99496" lon="4.17239">
        <ele>1283.98</ele>
        <time>2021-05-23T09:58:53Z</time>
      </trkpt>
      <trkpt lat="44.99487" lon="4.17245">
        <ele>1284.46</ele>
        <time>2021-05-23T09:59:01Z</time>
      </trkpt>
      <trkpt lat="44.99478" lon="4.1725">
        <ele>1284.46</ele>
        <time>2021-05-23T09:59:09Z</time>
      </trkpt>
      <trkpt lat="44.99467" lon="4.17256">
        <ele>1284.46</ele>
        <time>2021-05-23T09:59:18Z</time>
      </trkpt>
      <trkpt lat="44.99457" lon="4.17262">
        <ele>1284.94</ele>
        <time>2021-05-23T09:59:27Z</time>
      </trkpt>
      <trkpt lat="44.99448" lon="4.17268">
        <ele>1284.94</ele>
        <time>2021-05-23T09:59:35Z</time>
      </trkpt>
      <trkpt lat="44.99434" lon="4.17276">
        <ele>1284.94</ele>
        <time>2021-05-23T09:59:45Z</time>
      </trkpt>
      <trkpt lat="44.99422" lon="4.17283">
        <ele>1285.42</ele>
        <time>2021-05-23T09:59:55Z</time>
      </trkpt>
      <trkpt lat="44.9941" lon="4.17291">
        <ele>1286.38</ele>
        <time>2021-05-23T10:00:05Z</time>
      </trkpt>
      <trkpt lat="44.99398" lon="4.17301">
        <ele>1286.86</ele>
        <time>2021-05-23T10:00:15Z</time>
      </trkpt>
      <trkpt lat="44.99389" lon="4.17309">
        <ele>1287.82</ele>
        <time>2021-05-23T10:00:23Z</time>
      </trkpt>
      <trkpt lat="44.9938" lon="4.17319">
        <ele>1287.82</ele>
        <time>2021-05-23T10:00:33Z</time>
      </trkpt>
      <trkpt lat="44.99372" lon="4.1733">
        <ele>1288.3</ele>
        <time>2021-05-23T10:00:40Z</time>
      </trkpt>
      <trkpt lat="44.99366" lon="4.17341">
        <ele>1288.78</ele>
        <time>2021-05-23T10:00:49Z</time>
      </trkpt>
      <trkpt lat="44.99361" lon="4.17354">
        <ele>1288.78</ele>
        <time>2021-05-23T10:00:57Z</time>
      </trkpt>
      <trkpt lat="44.99355" lon="4.17367">
        <ele>1289.75</ele>
        <time>2021-05-23T10:01:05Z</time>
      </trkpt>
      <trkpt lat="44.99349" lon="4.17381">
        <ele>1290.23</ele>
        <time>2021-05-23T10:01:11Z</time>
      </trkpt>
      <trkpt lat="44.99343" lon="4.17398">
        <ele>1290.71</ele>
        <time>2021-05-23T10:01:21Z</time>
      </trkpt>
      <trkpt lat="44.99339" lon="4.17416">
        <ele>1291.67</ele>
        <time>2021-05-23T10:01:31Z</time>
      </trkpt>
      <trkpt lat="44.99337" lon="4.17431">
        <ele>1291.67</ele>
        <time>2021-05-23T10:01:37Z</time>
      </trkpt>
      <trkpt lat="44.99332" lon="4.17451">
        <ele>1291.19</ele>
        <time>2021-05-23T10:01:51Z</time>
      </trkpt>
      <trkpt lat="44.99329" lon="4.17467">
        <ele>1290.71</ele>
        <time>2021-05-23T10:02:01Z</time>
      </trkpt>
      <trkpt lat="44.99327" lon="4.17479">
        <ele>1290.71</ele>
        <time>2021-05-23T10:02:06Z</time>
      </trkpt>
      <trkpt lat="44.99326" lon="4.17484">
        <ele>1290.71</ele>
        <time>2021-05-23T10:02:10Z</time>
      </trkpt>
      <trkpt lat="44.99324" lon="4.17495">
        <ele>1289.75</ele>
        <time>2021-05-23T10:02:17Z</time>
      </trkpt>
      <trkpt lat="44.99323" lon="4.17512">
        <ele>1289.27</ele>
        <time>2021-05-23T10:02:27Z</time>
      </trkpt>
      <trkpt lat="44.99321" lon="4.17529">
        <ele>1290.23</ele>
        <time>2021-05-23T10:02:38Z</time>
      </trkpt>
      <trkpt lat="44.99318" lon="4.1755">
        <ele>1289.27</ele>
        <time>2021-05-23T10:02:48Z</time>
      </trkpt>
      <trkpt lat="44.99316" lon="4.17568">
        <ele>1288.3</ele>
        <time>2021-05-23T10:02:58Z</time>
      </trkpt>
      <trkpt lat="44.99313" lon="4.17586">
        <ele>1289.27</ele>
        <time>2021-05-23T10:03:08Z</time>
      </trkpt>
      <trkpt lat="44.99312" lon="4.17601">
        <ele>1289.75</ele>
        <time>2021-05-23T10:03:17Z</time>
      </trkpt>
      <trkpt lat="44.9931" lon="4.17616">
        <ele>1290.71</ele>
        <time>2021-05-23T10:03:25Z</time>
      </trkpt>
      <trkpt lat="44.99309" lon="4.17632">
        <ele>1291.19</ele>
        <time>2021-05-23T10:03:33Z</time>
      </trkpt>
      <trkpt lat="44.99306" lon="4.17651">
        <ele>1291.67</ele>
        <time>2021-05-23T10:03:43Z</time>
      </trkpt>
      <trkpt lat="44.99305" lon="4.17674">
        <ele>1292.63</ele>
        <time>2021-05-23T10:03:55Z</time>
      </trkpt>
      <trkpt lat="44.99301" lon="4.17694">
        <ele>1294.07</ele>
        <time>2021-05-23T10:04:06Z</time>
      </trkpt>
      <trkpt lat="44.99299" lon="4.17716">
        <ele>1294.07</ele>
        <time>2021-05-23T10:04:17Z</time>
      </trkpt>
      <trkpt lat="44.99301" lon="4.17732">
        <ele>1295.99</ele>
        <time>2021-05-23T10:04:27Z</time>
      </trkpt>
      <trkpt lat="44.99295" lon="4.17772">
        <ele>1295.99</ele>
        <time>2021-05-23T10:04:48Z</time>
      </trkpt>
      <trkpt lat="44.99294" lon="4.17811">
        <ele>1296.48</ele>
        <time>2021-05-23T10:05:09Z</time>
      </trkpt>
      <trkpt lat="44.99297" lon="4.17845">
        <ele>1295.99</ele>
        <time>2021-05-23T10:05:28Z</time>
      </trkpt>
      <trkpt lat="44.99303" lon="4.17882">
        <ele>1296.48</ele>
        <time>2021-05-23T10:05:48Z</time>
      </trkpt>
      <trkpt lat="44.99312" lon="4.17919">
        <ele>1295.99</ele>
        <time>2021-05-23T10:06:08Z</time>
      </trkpt>
      <trkpt lat="44.99319" lon="4.17949">
        <ele>1296.96</ele>
        <time>2021-05-23T10:06:26Z</time>
      </trkpt>
      <trkpt lat="44.99327" lon="4.17986">
        <ele>1298.88</ele>
        <time>2021-05-23T10:06:47Z</time>
      </trkpt>
      <trkpt lat="44.99333" lon="4.18021">
        <ele>1300.8</ele>
        <time>2021-05-23T10:07:06Z</time>
      </trkpt>
      <trkpt lat="44.99337" lon="4.18058">
        <ele>1303.69</ele>
        <time>2021-05-23T10:07:26Z</time>
      </trkpt>
      <trkpt lat="44.99341" lon="4.1809">
        <ele>1303.69</ele>
        <time>2021-05-23T10:07:44Z</time>
      </trkpt>
      <trkpt lat="44.99342" lon="4.18124">
        <ele>1305.61</ele>
        <time>2021-05-23T10:08:03Z</time>
      </trkpt>
      <trkpt lat="44.99336" lon="4.18163">
        <ele>1308.01</ele>
        <time>2021-05-23T10:08:25Z</time>
      </trkpt>
      <trkpt lat="44.99329" lon="4.18204">
        <ele>1310.9</ele>
        <time>2021-05-23T10:08:49Z</time>
      </trkpt>
      <trkpt lat="44.99324" lon="4.18225">
        <ele>1309.93</ele>
        <time>2021-05-23T10:09:04Z</time>
      </trkpt>
      <trkpt lat="44.9932" lon="4.18248">
        <ele>1308.49</ele>
        <time>2021-05-23T10:09:14Z</time>
      </trkpt>
      <trkpt lat="44.99318" lon="4.1826">
        <ele>1308.97</ele>
        <time>2021-05-23T10:09:23Z</time>
      </trkpt>
      <trkpt lat="44.99315" lon="4.18273">
        <ele>1310.41</ele>
        <time>2021-05-23T10:09:31Z</time>
      </trkpt>
      <trkpt lat="44.99312" lon="4.18287">
        <ele>1311.38</ele>
        <time>2021-05-23T10:09:41Z</time>
      </trkpt>
      <trkpt lat="44.99309" lon="4.18313">
        <ele>1312.34</ele>
        <time>2021-05-23T10:09:54Z</time>
      </trkpt>
      <trkpt lat="44.99304" lon="4.18335">
        <ele>1313.78</ele>
        <time>2021-05-23T10:10:08Z</time>
      </trkpt>
      <trkpt lat="44.993" lon="4.18348">
        <ele>1314.74</ele>
        <time>2021-05-23T10:10:16Z</time>
      </trkpt>
      <trkpt lat="44.9929" lon="4.18355">
        <ele>1315.7</ele>
        <time>2021-05-23T10:10:27Z</time>
      </trkpt>
      <trkpt lat="44.99277" lon="4.18358">
        <ele>1317.14</ele>
        <time>2021-05-23T10:10:36Z</time>
      </trkpt>
      <trkpt lat="44.99265" lon="4.18361">
        <ele>1317.62</ele>
        <time>2021-05-23T10:10:46Z</time>
      </trkpt>
      <trkpt lat="44.99254" lon="4.18364">
        <ele>1318.1</ele>
        <time>2021-05-23T10:10:56Z</time>
      </trkpt>
      <trkpt lat="44.99247" lon="4.18368">
        <ele>1320.03</ele>
        <time>2021-05-23T10:11:04Z</time>
      </trkpt>
      <trkpt lat="44.99236" lon="4.18374">
        <ele>1321.47</ele>
        <time>2021-05-23T10:11:13Z</time>
      </trkpt>
      <trkpt lat="44.99227" lon="4.18379">
        <ele>1322.43</ele>
        <time>2021-05-23T10:11:22Z</time>
      </trkpt>
      <trkpt lat="44.99217" lon="4.18384">
        <ele>1322.91</ele>
        <time>2021-05-23T10:11:31Z</time>
      </trkpt>
      <trkpt lat="44.99208" lon="4.1839">
        <ele>1324.35</ele>
        <time>2021-05-23T10:11:41Z</time>
      </trkpt>
      <trkpt lat="44.99204" lon="4.18391">
        <ele>1324.35</ele>
        <time>2021-05-23T10:11:44Z</time>
      </trkpt>
      <trkpt lat="44.99198" lon="4.18394">
        <ele>1324.35</ele>
        <time>2021-05-23T10:11:51Z</time>
      </trkpt>
      <trkpt lat="44.99191" lon="4.18398">
        <ele>1324.83</ele>
        <time>2021-05-23T10:11:58Z</time>
      </trkpt>
      <trkpt lat="44.99178" lon="4.18409">
        <ele>1324.83</ele>
        <time>2021-05-23T10:12:09Z</time>
      </trkpt>
      <trkpt lat="44.99172" lon="4.18421">
        <ele>1325.8</ele>
        <time>2021-05-23T10:12:18Z</time>
      </trkpt>
      <trkpt lat="44.99164" lon="4.18435">
        <ele>1328.2</ele>
        <time>2021-05-23T10:12:27Z</time>
      </trkpt>
      <trkpt lat="44.99158" lon="4.18444">
        <ele>1329.64</ele>
        <time>2021-05-23T10:12:36Z</time>
      </trkpt>
      <trkpt lat="44.99149" lon="4.18452">
        <ele>1331.56</ele>
        <time>2021-05-23T10:12:46Z</time>
      </trkpt>
      <trkpt lat="44.99139" lon="4.1846">
        <ele>1333.01</ele>
        <time>2021-05-23T10:12:56Z</time>
      </trkpt>
      <trkpt lat="44.99129" lon="4.18467">
        <ele>1334.45</ele>
        <time>2021-05-23T10:13:06Z</time>
      </trkpt>
      <trkpt lat="44.99118" lon="4.18473">
        <ele>1336.37</ele>
        <time>2021-05-23T10:13:16Z</time>
      </trkpt>
      <trkpt lat="44.99108" lon="4.18477">
        <ele>1336.85</ele>
        <time>2021-05-23T10:13:25Z</time>
      </trkpt>
      <trkpt lat="44.99097" lon="4.18482">
        <ele>1335.89</ele>
        <time>2021-05-23T10:13:35Z</time>
      </trkpt>
      <trkpt lat="44.99088" lon="4.18486">
        <ele>1335.41</ele>
        <time>2021-05-23T10:13:43Z</time>
      </trkpt>
      <trkpt lat="44.99085" lon="4.18487">
        <ele>1335.89</ele>
        <time>2021-05-23T10:13:52Z</time>
      </trkpt>
      <trkpt lat="44.99084" lon="4.18489">
        <ele>1336.85</ele>
        <time>2021-05-23T10:13:55Z</time>
      </trkpt>
      <trkpt lat="44.99079" lon="4.18499">
        <ele>1337.33</ele>
        <time>2021-05-23T10:14:04Z</time>
      </trkpt>
      <trkpt lat="44.99075" lon="4.18501">
        <ele>1337.33</ele>
        <time>2021-05-23T10:14:14Z</time>
      </trkpt>
      <trkpt lat="44.99064" lon="4.18503">
        <ele>1336.37</ele>
        <time>2021-05-23T10:14:27Z</time>
      </trkpt>
      <trkpt lat="44.99055" lon="4.18503">
        <ele>1335.41</ele>
        <time>2021-05-23T10:14:34Z</time>
      </trkpt>
      <trkpt lat="44.99043" lon="4.18503">
        <ele>1334.93</ele>
        <time>2021-05-23T10:14:44Z</time>
      </trkpt>
      <trkpt lat="44.99041" lon="4.18501">
        <ele>1335.41</ele>
        <time>2021-05-23T10:14:51Z</time>
      </trkpt>
      <trkpt lat="44.99024" lon="4.18502">
        <ele>1331.56</ele>
        <time>2021-05-23T10:15:05Z</time>
      </trkpt>
      <trkpt lat="44.99007" lon="4.18509">
        <ele>1329.16</ele>
        <time>2021-05-23T10:15:21Z</time>
      </trkpt>
      <trkpt lat="44.98998" lon="4.18517">
        <ele>1331.08</ele>
        <time>2021-05-23T10:15:31Z</time>
      </trkpt>
      <trkpt lat="44.98987" lon="4.18533">
        <ele>1333.97</ele>
        <time>2021-05-23T10:15:46Z</time>
      </trkpt>
      <trkpt lat="44.98971" lon="4.18545">
        <ele>1336.37</ele>
        <time>2021-05-23T10:16:01Z</time>
      </trkpt>
      <trkpt lat="44.98951" lon="4.18558">
        <ele>1337.81</ele>
        <time>2021-05-23T10:16:18Z</time>
      </trkpt>
      <trkpt lat="44.9893" lon="4.18575">
        <ele>1339.25</ele>
        <time>2021-05-23T10:16:36Z</time>
      </trkpt>
      <trkpt lat="44.98909" lon="4.1859">
        <ele>1340.22</ele>
        <time>2021-05-23T10:16:53Z</time>
      </trkpt>
      <trkpt lat="44.98898" lon="4.18598">
        <ele>1339.25</ele>
        <time>2021-05-23T10:17:03Z</time>
      </trkpt>
      <trkpt lat="44.9888" lon="4.18607">
        <ele>1336.85</ele>
        <time>2021-05-23T10:17:15Z</time>
      </trkpt>
      <trkpt lat="44.98866" lon="4.18616">
        <ele>1336.37</ele>
        <time>2021-05-23T10:17:26Z</time>
      </trkpt>
      <trkpt lat="44.98854" lon="4.18622">
        <ele>1336.85</ele>
        <time>2021-05-23T10:17:37Z</time>
      </trkpt>
      <trkpt lat="44.98842" lon="4.18627">
        <ele>1335.89</ele>
        <time>2021-05-23T10:17:47Z</time>
      </trkpt>
      <trkpt lat="44.98827" lon="4.18633">
        <ele>1334.93</ele>
        <time>2021-05-23T10:17:59Z</time>
      </trkpt>
      <trkpt lat="44.98806" lon="4.18638">
        <ele>1334.93</ele>
        <time>2021-05-23T10:18:15Z</time>
      </trkpt>
      <trkpt lat="44.98788" lon="4.18636">
        <ele>1335.41</ele>
        <time>2021-05-23T10:18:30Z</time>
      </trkpt>
      <trkpt lat="44.9877" lon="4.18625">
        <ele>1336.85</ele>
        <time>2021-05-23T10:18:44Z</time>
      </trkpt>
      <trkpt lat="44.98757" lon="4.18616">
        <ele>1339.25</ele>
        <time>2021-05-23T10:18:55Z</time>
      </trkpt>
      <trkpt lat="44.9875" lon="4.18607">
        <ele>1338.77</ele>
        <time>2021-05-23T10:19:02Z</time>
      </trkpt>
      <trkpt lat="44.98738" lon="4.18595">
        <ele>1338.29</ele>
        <time>2021-05-23T10:19:13Z</time>
      </trkpt>
      <trkpt lat="44.9873" lon="4.18586">
        <ele>1339.25</ele>
        <time>2021-05-23T10:19:21Z</time>
      </trkpt>
      <trkpt lat="44.98716" lon="4.18576">
        <ele>1340.7</ele>
        <time>2021-05-23T10:19:32Z</time>
      </trkpt>
      <trkpt lat="44.98703" lon="4.18565">
        <ele>1342.62</ele>
        <time>2021-05-23T10:19:45Z</time>
      </trkpt>
      <trkpt lat="44.98691" lon="4.18554">
        <ele>1341.18</ele>
        <time>2021-05-23T10:19:57Z</time>
      </trkpt>
      <trkpt lat="44.98675" lon="4.1854">
        <ele>1341.18</ele>
        <time>2021-05-23T10:20:10Z</time>
      </trkpt>
      <trkpt lat="44.98662" lon="4.18527">
        <ele>1339.25</ele>
        <time>2021-05-23T10:20:23Z</time>
      </trkpt>
      <trkpt lat="44.98646" lon="4.18514">
        <ele>1339.25</ele>
        <time>2021-05-23T10:20:37Z</time>
      </trkpt>
      <trkpt lat="44.98631" lon="4.18505">
        <ele>1340.22</ele>
        <time>2021-05-23T10:20:50Z</time>
      </trkpt>
      <trkpt lat="44.98614" lon="4.18489">
        <ele>1342.62</ele>
        <time>2021-05-23T10:21:05Z</time>
      </trkpt>
      <trkpt lat="44.986" lon="4.18473">
        <ele>1344.06</ele>
        <time>2021-05-23T10:21:20Z</time>
      </trkpt>
      <trkpt lat="44.98581" lon="4.18452">
        <ele>1342.62</ele>
        <time>2021-05-23T10:21:38Z</time>
      </trkpt>
      <trkpt lat="44.98566" lon="4.18437">
        <ele>1340.7</ele>
        <time>2021-05-23T10:21:53Z</time>
      </trkpt>
      <trkpt lat="44.98544" lon="4.18422">
        <ele>1337.81</ele>
        <time>2021-05-23T10:22:12Z</time>
      </trkpt>
      <trkpt lat="44.98534" lon="4.18423">
        <ele>1336.37</ele>
        <time>2021-05-23T10:22:20Z</time>
      </trkpt>
      <trkpt lat="44.98529" lon="4.18423">
        <ele>1339.25</ele>
        <time>2021-05-23T10:22:24Z</time>
      </trkpt>
      <trkpt lat="44.98505" lon="4.18419">
        <ele>1335.41</ele>
        <time>2021-05-23T10:22:44Z</time>
      </trkpt>
      <trkpt lat="44.98478" lon="4.18411">
        <ele>1335.41</ele>
        <time>2021-05-23T10:23:04Z</time>
      </trkpt>
      <trkpt lat="44.98456" lon="4.18405">
        <ele>1335.41</ele>
        <time>2021-05-23T10:23:23Z</time>
      </trkpt>
      <trkpt lat="44.9845" lon="4.18402">
        <ele>1337.33</ele>
        <time>2021-05-23T10:23:41Z</time>
      </trkpt>
      <trkpt lat="44.98448" lon="4.18404">
        <ele>1338.29</ele>
        <time>2021-05-23T10:23:54Z</time>
      </trkpt>
      <trkpt lat="44.98433" lon="4.18408">
        <ele>1343.58</ele>
        <time>2021-05-23T10:24:09Z</time>
      </trkpt>
      <trkpt lat="44.9842" lon="4.18408">
        <ele>1345.98</ele>
        <time>2021-05-23T10:24:25Z</time>
      </trkpt>
      <trkpt lat="44.98407" lon="4.18404">
        <ele>1344.06</ele>
        <time>2021-05-23T10:24:35Z</time>
      </trkpt>
      <trkpt lat="44.98392" lon="4.184">
        <ele>1344.54</ele>
        <time>2021-05-23T10:24:49Z</time>
      </trkpt>
      <trkpt lat="44.98379" lon="4.18399">
        <ele>1345.5</ele>
        <time>2021-05-23T10:24:59Z</time>
      </trkpt>
      <trkpt lat="44.9837" lon="4.18396">
        <ele>1343.58</ele>
        <time>2021-05-23T10:25:15Z</time>
      </trkpt>
      <trkpt lat="44.98362" lon="4.18396">
        <ele>1343.1</ele>
        <time>2021-05-23T10:25:26Z</time>
      </trkpt>
      <trkpt lat="44.98361" lon="4.18398">
        <ele>1343.1</ele>
        <time>2021-05-23T10:25:42Z</time>
      </trkpt>
      <trkpt lat="44.98355" lon="4.18389">
        <ele>1343.58</ele>
        <time>2021-05-23T10:26:01Z</time>
      </trkpt>
      <trkpt lat="44.98353" lon="4.18389">
        <ele>1343.58</ele>
        <time>2021-05-23T10:26:04Z</time>
      </trkpt>
      <trkpt lat="44.98349" lon="4.18391">
        <ele>1341.66</ele>
        <time>2021-05-23T10:26:12Z</time>
      </trkpt>
      <trkpt lat="44.98346" lon="4.1839">
        <ele>1340.22</ele>
        <time>2021-05-23T10:26:17Z</time>
      </trkpt>
      <trkpt lat="44.98337" lon="4.1839">
        <ele>1337.81</ele>
        <time>2021-05-23T10:26:28Z</time>
      </trkpt>
      <trkpt lat="44.98317" lon="4.18382">
        <ele>1334.93</ele>
        <time>2021-05-23T10:26:45Z</time>
      </trkpt>
      <trkpt lat="44.98291" lon="4.18377">
        <ele>1331.08</ele>
        <time>2021-05-23T10:27:04Z</time>
      </trkpt>
      <trkpt lat="44.98263" lon="4.18374">
        <ele>1329.64</ele>
        <time>2021-05-23T10:27:24Z</time>
      </trkpt>
      <trkpt lat="44.98242" lon="4.18371">
        <ele>1328.68</ele>
        <time>2021-05-23T10:27:42Z</time>
      </trkpt>
      <trkpt lat="44.98228" lon="4.18371">
        <ele>1328.2</ele>
        <time>2021-05-23T10:28:01Z</time>
      </trkpt>
      <trkpt lat="44.9821" lon="4.18363">
        <ele>1328.68</ele>
        <time>2021-05-23T10:28:20Z</time>
      </trkpt>
      <trkpt lat="44.98191" lon="4.18351">
        <ele>1326.28</ele>
        <time>2021-05-23T10:28:40Z</time>
      </trkpt>
      <trkpt lat="44.9817" lon="4.18341">
        <ele>1321.95</ele>
        <time>2021-05-23T10:28:59Z</time>
      </trkpt>
      <trkpt lat="44.98157" lon="4.1832">
        <ele>1322.91</ele>
        <time>2021-05-23T10:29:17Z</time>
      </trkpt>
      <trkpt lat="44.9814" lon="4.18309">
        <ele>1321.95</ele>
        <time>2021-05-23T10:29:35Z</time>
      </trkpt>
      <trkpt lat="44.98136" lon="4.1831">
        <ele>1319.55</ele>
        <time>2021-05-23T10:29:39Z</time>
      </trkpt>
      <trkpt lat="44.98129" lon="4.18305">
        <ele>1318.1</ele>
        <time>2021-05-23T10:29:46Z</time>
      </trkpt>
      <trkpt lat="44.98119" lon="4.183">
        <ele>1316.66</ele>
        <time>2021-05-23T10:29:55Z</time>
      </trkpt>
      <trkpt lat="44.98109" lon="4.18281">
        <ele>1312.34</ele>
        <time>2021-05-23T10:30:09Z</time>
      </trkpt>
      <trkpt lat="44.98094" lon="4.1826">
        <ele>1307.05</ele>
        <time>2021-05-23T10:30:27Z</time>
      </trkpt>
      <trkpt lat="44.98079" lon="4.18247">
        <ele>1304.17</ele>
        <time>2021-05-23T10:30:44Z</time>
      </trkpt>
      <trkpt lat="44.9806" lon="4.18226">
        <ele>1304.65</ele>
        <time>2021-05-23T10:31:01Z</time>
      </trkpt>
      <trkpt lat="44.98051" lon="4.18216">
        <ele>1304.17</ele>
        <time>2021-05-23T10:31:11Z</time>
      </trkpt>
      <trkpt lat="44.98039" lon="4.18201">
        <ele>1302.72</ele>
        <time>2021-05-23T10:31:23Z</time>
      </trkpt>
      <trkpt lat="44.98035" lon="4.18197">
        <ele>1302.24</ele>
        <time>2021-05-23T10:31:28Z</time>
      </trkpt>
      <trkpt lat="44.98024" lon="4.18184">
        <ele>1302.24</ele>
        <time>2021-05-23T10:31:39Z</time>
      </trkpt>
      <trkpt lat="44.98016" lon="4.18171">
        <ele>1301.76</ele>
        <time>2021-05-23T10:31:50Z</time>
      </trkpt>
      <trkpt lat="44.98008" lon="4.18158">
        <ele>1302.24</ele>
        <time>2021-05-23T10:32:00Z</time>
      </trkpt>
      <trkpt lat="44.98007" lon="4.18157">
        <ele>1301.76</ele>
        <time>2021-05-23T10:32:02Z</time>
      </trkpt>
      <trkpt lat="44.97997" lon="4.18141">
        <ele>1301.28</ele>
        <time>2021-05-23T10:32:13Z</time>
      </trkpt>
      <trkpt lat="44.97991" lon="4.18127">
        <ele>1299.36</ele>
        <time>2021-05-23T10:32:23Z</time>
      </trkpt>
      <trkpt lat="44.97985" lon="4.18114">
        <ele>1298.88</ele>
        <time>2021-05-23T10:32:33Z</time>
      </trkpt>
      <trkpt lat="44.97985" lon="4.18109">
        <ele>1298.4</ele>
        <time>2021-05-23T10:32:51Z</time>
      </trkpt>
      <trkpt lat="44.97983" lon="4.18107">
        <ele>1297.92</ele>
        <time>2021-05-23T10:32:55Z</time>
      </trkpt>
      <trkpt lat="44.97977" lon="4.18091">
        <ele>1297.92</ele>
        <time>2021-05-23T10:33:10Z</time>
      </trkpt>
      <trkpt lat="44.9798" lon="4.18088">
        <ele>1297.92</ele>
        <time>2021-05-23T10:33:14Z</time>
      </trkpt>
      <trkpt lat="44.97983" lon="4.18078">
        <ele>1298.4</ele>
        <time>2021-05-23T10:33:20Z</time>
      </trkpt>
      <trkpt lat="44.9798" lon="4.18057">
        <ele>1296.96</ele>
        <time>2021-05-23T10:33:34Z</time>
      </trkpt>
      <trkpt lat="44.97977" lon="4.18042">
        <ele>1295.99</ele>
        <time>2021-05-23T10:33:41Z</time>
      </trkpt>
      <trkpt lat="44.97974" lon="4.18011">
        <ele>1293.59</ele>
        <time>2021-05-23T10:33:58Z</time>
      </trkpt>
      <trkpt lat="44.97959" lon="4.17982">
        <ele>1289.75</ele>
        <time>2021-05-23T10:34:14Z</time>
      </trkpt>
      <trkpt lat="44.97943" lon="4.17954">
        <ele>1285.9</ele>
        <time>2021-05-23T10:34:31Z</time>
      </trkpt>
      <trkpt lat="44.97936" lon="4.17933">
        <ele>1282.54</ele>
        <time>2021-05-23T10:34:45Z</time>
      </trkpt>
      <trkpt lat="44.97932" lon="4.17924">
        <ele>1280.61</ele>
        <time>2021-05-23T10:34:56Z</time>
      </trkpt>
      <trkpt lat="44.97921" lon="4.17915">
        <ele>1278.69</ele>
        <time>2021-05-23T10:35:12Z</time>
      </trkpt>
      <trkpt lat="44.97909" lon="4.17891">
        <ele>1275.33</ele>
        <time>2021-05-23T10:35:27Z</time>
      </trkpt>
      <trkpt lat="44.97901" lon="4.17866">
        <ele>1269.56</ele>
        <time>2021-05-23T10:35:42Z</time>
      </trkpt>
      <trkpt lat="44.979" lon="4.1783">
        <ele>1267.64</ele>
        <time>2021-05-23T10:36:02Z</time>
      </trkpt>
      <trkpt lat="44.97901" lon="4.17799">
        <ele>1268.6</ele>
        <time>2021-05-23T10:36:17Z</time>
      </trkpt>
      <trkpt lat="44.97901" lon="4.17796">
        <ele>1269.08</ele>
        <time>2021-05-23T10:36:19Z</time>
      </trkpt>
      <trkpt lat="44.97903" lon="4.1779">
        <ele>1270.04</ele>
        <time>2021-05-23T10:36:23Z</time>
      </trkpt>
      <trkpt lat="44.97903" lon="4.17773">
        <ele>1270.52</ele>
        <time>2021-05-23T10:36:33Z</time>
      </trkpt>
      <trkpt lat="44.97903" lon="4.17769">
        <ele>1270.52</ele>
        <time>2021-05-23T10:36:35Z</time>
      </trkpt>
      <trkpt lat="44.97905" lon="4.17742">
        <ele>1269.56</ele>
        <time>2021-05-23T10:36:48Z</time>
      </trkpt>
      <trkpt lat="44.97905" lon="4.17723">
        <ele>1268.6</ele>
        <time>2021-05-23T10:37:00Z</time>
      </trkpt>
      <trkpt lat="44.97907" lon="4.17716">
        <ele>1267.64</ele>
        <time>2021-05-23T10:37:05Z</time>
      </trkpt>
      <trkpt lat="44.97908" lon="4.17706">
        <ele>1266.67</ele>
        <time>2021-05-23T10:37:11Z</time>
      </trkpt>
      <trkpt lat="44.9791" lon="4.17674">
        <ele>1264.27</ele>
        <time>2021-05-23T10:37:29Z</time>
      </trkpt>
      <trkpt lat="44.9792" lon="4.17644">
        <ele>1260.91</ele>
        <time>2021-05-23T10:37:49Z</time>
      </trkpt>
      <trkpt lat="44.97932" lon="4.17608">
        <ele>1259.46</ele>
        <time>2021-05-23T10:38:09Z</time>
      </trkpt>
      <trkpt lat="44.97931" lon="4.17597">
        <ele>1259.46</ele>
        <time>2021-05-23T10:38:15Z</time>
      </trkpt>
      <trkpt lat="44.97936" lon="4.17583">
        <ele>1258.98</ele>
        <time>2021-05-23T10:38:31Z</time>
      </trkpt>
      <trkpt lat="44.97941" lon="4.17555">
        <ele>1255.62</ele>
        <time>2021-05-23T10:38:48Z</time>
      </trkpt>
      <trkpt lat="44.97949" lon="4.17532">
        <ele>1254.18</ele>
        <time>2021-05-23T10:39:06Z</time>
      </trkpt>
      <trkpt lat="44.97961" lon="4.17514">
        <ele>1252.25</ele>
        <time>2021-05-23T10:39:26Z</time>
      </trkpt>
      <trkpt lat="44.9797" lon="4.17495">
        <ele>1251.77</ele>
        <time>2021-05-23T10:39:45Z</time>
      </trkpt>
      <trkpt lat="44.97975" lon="4.17478">
        <ele>1253.22</ele>
        <time>2021-05-23T10:39:56Z</time>
      </trkpt>
      <trkpt lat="44.97986" lon="4.17461">
        <ele>1251.77</ele>
        <time>2021-05-23T10:40:15Z</time>
      </trkpt>
      <trkpt lat="44.97992" lon="4.1746">
        <ele>1250.81</ele>
        <time>2021-05-23T10:40:36Z</time>
      </trkpt>
      <trkpt lat="44.97993" lon="4.17458">
        <ele>1251.29</ele>
        <time>2021-05-23T10:40:57Z</time>
      </trkpt>
      <trkpt lat="44.97989" lon="4.17456">
        <ele>1251.77</ele>
        <time>2021-05-23T10:41:21Z</time>
      </trkpt>
      <trkpt lat="44.97986" lon="4.17451">
        <ele>1252.25</ele>
        <time>2021-05-23T10:41:41Z</time>
      </trkpt>
      <trkpt lat="44.97986" lon="4.17447">
        <ele>1252.25</ele>
        <time>2021-05-23T10:42:03Z</time>
      </trkpt>
      <trkpt lat="44.97992" lon="4.17445">
        <ele>1252.25</ele>
        <time>2021-05-23T10:42:34Z</time>
      </trkpt>
      <trkpt lat="44.9799" lon="4.17455">
        <ele>1251.77</ele>
        <time>2021-05-23T10:42:54Z</time>
      </trkpt>
      <trkpt lat="44.97986" lon="4.17454">
        <ele>1250.33</ele>
        <time>2021-05-23T10:43:14Z</time>
      </trkpt>
      <trkpt lat="44.97979" lon="4.17448">
        <ele>1249.37</ele>
        <time>2021-05-23T10:43:28Z</time>
      </trkpt>
      <trkpt lat="44.97972" lon="4.17424">
        <ele>1251.29</ele>
        <time>2021-05-23T10:43:47Z</time>
      </trkpt>
      <trkpt lat="44.97969" lon="4.17405">
        <ele>1252.25</ele>
        <time>2021-05-23T10:44:00Z</time>
      </trkpt>
      <trkpt lat="44.97959" lon="4.17386">
        <ele>1253.22</ele>
        <time>2021-05-23T10:44:16Z</time>
      </trkpt>
      <trkpt lat="44.97951" lon="4.1736">
        <ele>1251.77</ele>
        <time>2021-05-23T10:44:34Z</time>
      </trkpt>
      <trkpt lat="44.97945" lon="4.17341">
        <ele>1253.22</ele>
        <time>2021-05-23T10:44:51Z</time>
      </trkpt>
      <trkpt lat="44.97943" lon="4.17334">
        <ele>1248.89</ele>
        <time>2021-05-23T10:45:07Z</time>
      </trkpt>
      <trkpt lat="44.97947" lon="4.1733">
        <ele>1244.56</ele>
        <time>2021-05-23T10:45:28Z</time>
      </trkpt>
      <trkpt lat="44.97947" lon="4.17331">
        <ele>1242.64</ele>
        <time>2021-05-23T10:45:58Z</time>
      </trkpt>
      <trkpt lat="44.97943" lon="4.17324">
        <ele>1241.68</ele>
        <time>2021-05-23T10:46:23Z</time>
      </trkpt>
      <trkpt lat="44.97924" lon="4.17299">
        <ele>1239.76</ele>
        <time>2021-05-23T10:46:41Z</time>
      </trkpt>
      <trkpt lat="44.97922" lon="4.17292">
        <ele>1239.76</ele>
        <time>2021-05-23T10:46:45Z</time>
      </trkpt>
      <trkpt lat="44.9793" lon="4.17277">
        <ele>1237.83</ele>
        <time>2021-05-23T10:46:57Z</time>
      </trkpt>
      <trkpt lat="44.97941" lon="4.17263">
        <ele>1235.43</ele>
        <time>2021-05-23T10:47:08Z</time>
      </trkpt>
      <trkpt lat="44.97954" lon="4.17248">
        <ele>1235.91</ele>
        <time>2021-05-23T10:47:19Z</time>
      </trkpt>
      <trkpt lat="44.97959" lon="4.17242">
        <ele>1236.39</ele>
        <time>2021-05-23T10:47:29Z</time>
      </trkpt>
      <trkpt lat="44.97958" lon="4.1724">
        <ele>1232.55</ele>
        <time>2021-05-23T10:47:50Z</time>
      </trkpt>
      <trkpt lat="44.97959" lon="4.17239">
        <ele>1233.51</ele>
        <time>2021-05-23T10:48:22Z</time>
      </trkpt>
      <trkpt lat="44.97958" lon="4.17242">
        <ele>1236.87</ele>
        <time>2021-05-23T10:48:58Z</time>
      </trkpt>
      <trkpt lat="44.97958" lon="4.17243">
        <ele>1237.83</ele>
        <time>2021-05-23T10:49:34Z</time>
      </trkpt>
      <trkpt lat="44.97958" lon="4.17244">
        <ele>1239.28</ele>
        <time>2021-05-23T10:50:00Z</time>
      </trkpt>
      <trkpt lat="44.97958" lon="4.17243">
        <ele>1238.8</ele>
        <time>2021-05-23T10:50:35Z</time>
      </trkpt>
      <trkpt lat="44.97957" lon="4.17244">
        <ele>1240.24</ele>
        <time>2021-05-23T10:51:07Z</time>
      </trkpt>
      <trkpt lat="44.97958" lon="4.17243">
        <ele>1239.76</ele>
        <time>2021-05-23T10:51:43Z</time>
      </trkpt>
      <trkpt lat="44.97957" lon="4.17243">
        <ele>1240.72</ele>
        <time>2021-05-23T10:52:18Z</time>
      </trkpt>
      <trkpt lat="44.97958" lon="4.17242">
        <ele>1240.72</ele>
        <time>2021-05-23T10:52:50Z</time>
      </trkpt>
      <trkpt lat="44.97958" lon="4.17244">
        <ele>1242.16</ele>
        <time>2021-05-23T10:53:31Z</time>
      </trkpt>
      <trkpt lat="44.97957" lon="4.17243">
        <ele>1243.6</ele>
        <time>2021-05-23T10:54:03Z</time>
      </trkpt>
      <trkpt lat="44.97957" lon="4.17243">
        <ele>1245.53</ele>
        <time>2021-05-23T10:54:38Z</time>
      </trkpt>
      <trkpt lat="44.97957" lon="4.17244">
        <ele>1246.49</ele>
        <time>2021-05-23T10:55:19Z</time>
      </trkpt>
      <trkpt lat="44.97958" lon="4.17244">
        <ele>1245.53</ele>
        <time>2021-05-23T10:56:01Z</time>
      </trkpt>
      <trkpt lat="44.97958" lon="4.17244">
        <ele>1246.49</ele>
        <time>2021-05-23T10:56:37Z</time>
      </trkpt>
      <trkpt lat="44.97958" lon="4.17244">
        <ele>1246.01</ele>
        <time>2021-05-23T10:57:15Z</time>
      </trkpt>
      <trkpt lat="44.97957" lon="4.17244">
        <ele>1247.45</ele>
        <time>2021-05-23T10:57:56Z</time>
      </trkpt>
      <trkpt lat="44.97958" lon="4.17245">
        <ele>1247.93</ele>
        <time>2021-05-23T10:58:24Z</time>
      </trkpt>
      <trkpt lat="44.97957" lon="4.17243">
        <ele>1246.01</ele>
        <time>2021-05-23T10:59:05Z</time>
      </trkpt>
      <trkpt lat="44.97957" lon="4.17244">
        <ele>1246.01</ele>
        <time>2021-05-23T10:59:36Z</time>
      </trkpt>
      <trkpt lat="44.97957" lon="4.17244">
        <ele>1246.97</ele>
        <time>2021-05-23T11:00:09Z</time>
      </trkpt>
      <trkpt lat="44.97958" lon="4.17244">
        <ele>1247.45</ele>
        <time>2021-05-23T11:00:47Z</time>
      </trkpt>
      <trkpt lat="44.97959" lon="4.17244">
        <ele>1246.01</ele>
        <time>2021-05-23T11:01:32Z</time>
      </trkpt>
      <trkpt lat="44.97957" lon="4.17244">
        <ele>1247.93</ele>
        <time>2021-05-23T11:02:17Z</time>
      </trkpt>
      <trkpt lat="44.97956" lon="4.17245">
        <ele>1246.01</ele>
        <time>2021-05-23T11:03:10Z</time>
      </trkpt>
      <trkpt lat="44.97958" lon="4.17244">
        <ele>1245.53</ele>
        <time>2021-05-23T11:03:45Z</time>
      </trkpt>
      <trkpt lat="44.97959" lon="4.17243">
        <ele>1245.53</ele>
        <time>2021-05-23T11:04:19Z</time>
      </trkpt>
      <trkpt lat="44.97957" lon="4.17243">
        <ele>1245.53</ele>
        <time>2021-05-23T11:04:56Z</time>
      </trkpt>
      <trkpt lat="44.97957" lon="4.17244">
        <ele>1245.53</ele>
        <time>2021-05-23T11:05:32Z</time>
      </trkpt>
      <trkpt lat="44.97958" lon="4.17244">
        <ele>1245.04</ele>
        <time>2021-05-23T11:06:10Z</time>
      </trkpt>
      <trkpt lat="44.97957" lon="4.17245">
        <ele>1247.45</ele>
        <time>2021-05-23T11:06:50Z</time>
      </trkpt>
      <trkpt lat="44.97957" lon="4.17243">
        <ele>1246.49</ele>
        <time>2021-05-23T11:07:27Z</time>
      </trkpt>
      <trkpt lat="44.97957" lon="4.17244">
        <ele>1245.53</ele>
        <time>2021-05-23T11:07:59Z</time>
      </trkpt>
      <trkpt lat="44.97957" lon="4.17243">
        <ele>1245.04</ele>
        <time>2021-05-23T11:08:31Z</time>
      </trkpt>
      <trkpt lat="44.97957" lon="4.17243">
        <ele>1246.01</ele>
        <time>2021-05-23T11:09:05Z</time>
      </trkpt>
      <trkpt lat="44.97956" lon="4.17244">
        <ele>1245.04</ele>
        <time>2021-05-23T11:09:48Z</time>
      </trkpt>
      <trkpt lat="44.97957" lon="4.17243">
        <ele>1245.04</ele>
        <time>2021-05-23T11:10:25Z</time>
      </trkpt>
      <trkpt lat="44.97956" lon="4.17244">
        <ele>1245.04</ele>
        <time>2021-05-23T11:10:54Z</time>
      </trkpt>
      <trkpt lat="44.97957" lon="4.17244">
        <ele>1243.6</ele>
        <time>2021-05-23T11:11:38Z</time>
      </trkpt>
      <trkpt lat="44.97957" lon="4.17244">
        <ele>1243.6</ele>
        <time>2021-05-23T11:12:08Z</time>
      </trkpt>
      <trkpt lat="44.97956" lon="4.17243">
        <ele>1244.08</ele>
        <time>2021-05-23T11:12:47Z</time>
      </trkpt>
      <trkpt lat="44.97957" lon="4.17244">
        <ele>1244.56</ele>
        <time>2021-05-23T11:13:14Z</time>
      </trkpt>
      <trkpt lat="44.97957" lon="4.17244">
        <ele>1245.04</ele>
        <time>2021-05-23T11:13:48Z</time>
      </trkpt>
      <trkpt lat="44.97956" lon="4.17244">
        <ele>1244.56</ele>
        <time>2021-05-23T11:14:23Z</time>
      </trkpt>
      <trkpt lat="44.97957" lon="4.17245">
        <ele>1242.64</ele>
        <time>2021-05-23T11:14:55Z</time>
      </trkpt>
      <trkpt lat="44.97958" lon="4.17244">
        <ele>1243.12</ele>
        <time>2021-05-23T11:15:44Z</time>
      </trkpt>
      <trkpt lat="44.97957" lon="4.17244">
        <ele>1244.08</ele>
        <time>2021-05-23T11:16:16Z</time>
      </trkpt>
      <trkpt lat="44.97957" lon="4.17245">
        <ele>1244.56</ele>
        <time>2021-05-23T11:16:50Z</time>
      </trkpt>
      <trkpt lat="44.97957" lon="4.17245">
        <ele>1244.56</ele>
        <time>2021-05-23T11:17:31Z</time>
      </trkpt>
      <trkpt lat="44.97956" lon="4.17245">
        <ele>1246.01</ele>
        <time>2021-05-23T11:18:06Z</time>
      </trkpt>
      <trkpt lat="44.97956" lon="4.17244">
        <ele>1246.01</ele>
        <time>2021-05-23T11:18:42Z</time>
      </trkpt>
      <trkpt lat="44.97957" lon="4.17244">
        <ele>1245.53</ele>
        <time>2021-05-23T11:19:22Z</time>
      </trkpt>
      <trkpt lat="44.97957" lon="4.17244">
        <ele>1243.6</ele>
        <time>2021-05-23T11:19:56Z</time>
      </trkpt>
      <trkpt lat="44.97957" lon="4.17243">
        <ele>1243.6</ele>
        <time>2021-05-23T11:20:08Z</time>
      </trkpt>
      <trkpt lat="44.97956" lon="4.17244">
        <ele>1244.08</ele>
        <time>2021-05-23T11:20:18Z</time>
      </trkpt>
      <trkpt lat="44.97957" lon="4.17244">
        <ele>1243.6</ele>
        <time>2021-05-23T11:20:54Z</time>
      </trkpt>
      <trkpt lat="44.97956" lon="4.17246">
        <ele>1243.6</ele>
        <time>2021-05-23T11:21:34Z</time>
      </trkpt>
      <trkpt lat="44.97956" lon="4.17246">
        <ele>1243.12</ele>
        <time>2021-05-23T11:22:15Z</time>
      </trkpt>
      <trkpt lat="44.97957" lon="4.17245">
        <ele>1243.6</ele>
        <time>2021-05-23T11:22:51Z</time>
      </trkpt>
      <trkpt lat="44.97957" lon="4.17245">
        <ele>1244.08</ele>
        <time>2021-05-23T11:23:27Z</time>
      </trkpt>
      <trkpt lat="44.97957" lon="4.17245">
        <ele>1243.6</ele>
        <time>2021-05-23T11:24:00Z</time>
      </trkpt>
      <trkpt lat="44.97956" lon="4.17245">
        <ele>1243.12</ele>
        <time>2021-05-23T11:24:46Z</time>
      </trkpt>
      <trkpt lat="44.97957" lon="4.17245">
        <ele>1244.08</ele>
        <time>2021-05-23T11:25:25Z</time>
      </trkpt>
      <trkpt lat="44.97956" lon="4.17245">
        <ele>1244.08</ele>
        <time>2021-05-23T11:25:58Z</time>
      </trkpt>
      <trkpt lat="44.97956" lon="4.17245">
        <ele>1243.6</ele>
        <time>2021-05-23T11:26:46Z</time>
      </trkpt>
      <trkpt lat="44.97956" lon="4.17245">
        <ele>1243.12</ele>
        <time>2021-05-23T11:27:25Z</time>
      </trkpt>
      <trkpt lat="44.97957" lon="4.17245">
        <ele>1244.56</ele>
        <time>2021-05-23T11:28:03Z</time>
      </trkpt>
      <trkpt lat="44.97957" lon="4.17246">
        <ele>1244.08</ele>
        <time>2021-05-23T11:28:33Z</time>
      </trkpt>
      <trkpt lat="44.97957" lon="4.17245">
        <ele>1243.12</ele>
        <time>2021-05-23T11:29:01Z</time>
      </trkpt>
      <trkpt lat="44.97956" lon="4.17245">
        <ele>1243.12</ele>
        <time>2021-05-23T11:29:15Z</time>
      </trkpt>
      <trkpt lat="44.97956" lon="4.17244">
        <ele>1242.64</ele>
        <time>2021-05-23T11:29:29Z</time>
      </trkpt>
      <trkpt lat="44.97956" lon="4.17245">
        <ele>1242.64</ele>
        <time>2021-05-23T11:29:47Z</time>
      </trkpt>
      <trkpt lat="44.9795" lon="4.17248">
        <ele>1238.8</ele>
        <time>2021-05-23T11:30:00Z</time>
      </trkpt>
      <trkpt lat="44.97945" lon="4.17246">
        <ele>1236.87</ele>
        <time>2021-05-23T11:30:17Z</time>
      </trkpt>
      <trkpt lat="44.9793" lon="4.17232">
        <ele>1235.43</ele>
        <time>2021-05-23T11:30:33Z</time>
      </trkpt>
      <trkpt lat="44.97911" lon="4.1722">
        <ele>1234.95</ele>
        <time>2021-05-23T11:30:57Z</time>
      </trkpt>
      <trkpt lat="44.97898" lon="4.1721">
        <ele>1233.99</ele>
        <time>2021-05-23T11:31:06Z</time>
      </trkpt>
      <trkpt lat="44.97892" lon="4.17202">
        <ele>1236.39</ele>
        <time>2021-05-23T11:31:12Z</time>
      </trkpt>
      <trkpt lat="44.97888" lon="4.17198">
        <ele>1237.83</ele>
        <time>2021-05-23T11:31:17Z</time>
      </trkpt>
      <trkpt lat="44.97883" lon="4.17197">
        <ele>1239.76</ele>
        <time>2021-05-23T11:31:23Z</time>
      </trkpt>
      <trkpt lat="44.97876" lon="4.17195">
        <ele>1240.24</ele>
        <time>2021-05-23T11:31:32Z</time>
      </trkpt>
      <trkpt lat="44.97874" lon="4.17195">
        <ele>1240.24</ele>
        <time>2021-05-23T11:31:34Z</time>
      </trkpt>
      <trkpt lat="44.9786" lon="4.17195">
        <ele>1241.68</ele>
        <time>2021-05-23T11:31:45Z</time>
      </trkpt>
      <trkpt lat="44.97852" lon="4.17194">
        <ele>1243.12</ele>
        <time>2021-05-23T11:31:52Z</time>
      </trkpt>
      <trkpt lat="44.97846" lon="4.17187">
        <ele>1245.04</ele>
        <time>2021-05-23T11:32:03Z</time>
      </trkpt>
      <trkpt lat="44.97833" lon="4.17186">
        <ele>1248.41</ele>
        <time>2021-05-23T11:32:17Z</time>
      </trkpt>
      <trkpt lat="44.97816" lon="4.17179">
        <ele>1249.85</ele>
        <time>2021-05-23T11:32:28Z</time>
      </trkpt>
      <trkpt lat="44.97806" lon="4.17171">
        <ele>1250.33</ele>
        <time>2021-05-23T11:32:40Z</time>
      </trkpt>
      <trkpt lat="44.97799" lon="4.17164">
        <ele>1249.85</ele>
        <time>2021-05-23T11:32:47Z</time>
      </trkpt>
      <trkpt lat="44.97796" lon="4.17161">
        <ele>1249.85</ele>
        <time>2021-05-23T11:32:51Z</time>
      </trkpt>
      <trkpt lat="44.97785" lon="4.1715">
        <ele>1250.81</ele>
        <time>2021-05-23T11:33:02Z</time>
      </trkpt>
      <trkpt lat="44.97784" lon="4.1715">
        <ele>1251.29</ele>
        <time>2021-05-23T11:33:03Z</time>
      </trkpt>
      <trkpt lat="44.97772" lon="4.1714">
        <ele>1252.25</ele>
        <time>2021-05-23T11:33:15Z</time>
      </trkpt>
      <trkpt lat="44.97766" lon="4.17133">
        <ele>1251.77</ele>
        <time>2021-05-23T11:33:22Z</time>
      </trkpt>
      <trkpt lat="44.97759" lon="4.17127">
        <ele>1251.29</ele>
        <time>2021-05-23T11:33:31Z</time>
      </trkpt>
      <trkpt lat="44.97751" lon="4.1712">
        <ele>1251.77</ele>
        <time>2021-05-23T11:33:39Z</time>
      </trkpt>
      <trkpt lat="44.97743" lon="4.17114">
        <ele>1252.25</ele>
        <time>2021-05-23T11:33:47Z</time>
      </trkpt>
      <trkpt lat="44.97736" lon="4.17109">
        <ele>1253.7</ele>
        <time>2021-05-23T11:33:55Z</time>
      </trkpt>
      <trkpt lat="44.97732" lon="4.17106">
        <ele>1254.66</ele>
        <time>2021-05-23T11:33:58Z</time>
      </trkpt>
      <trkpt lat="44.97723" lon="4.17096">
        <ele>1257.54</ele>
        <time>2021-05-23T11:34:08Z</time>
      </trkpt>
      <trkpt lat="44.97721" lon="4.17093">
        <ele>1258.5</ele>
        <time>2021-05-23T11:34:12Z</time>
      </trkpt>
      <trkpt lat="44.97707" lon="4.17083">
        <ele>1261.39</ele>
        <time>2021-05-23T11:34:22Z</time>
      </trkpt>
      <trkpt lat="44.97686" lon="4.17064">
        <ele>1260.91</ele>
        <time>2021-05-23T11:34:39Z</time>
      </trkpt>
      <trkpt lat="44.97686" lon="4.17062">
        <ele>1260.43</ele>
        <time>2021-05-23T11:34:41Z</time>
      </trkpt>
      <trkpt lat="44.97676" lon="4.17051">
        <ele>1260.91</ele>
        <time>2021-05-23T11:34:51Z</time>
      </trkpt>
      <trkpt lat="44.97675" lon="4.17048">
        <ele>1260.91</ele>
        <time>2021-05-23T11:34:55Z</time>
      </trkpt>
      <trkpt lat="44.97668" lon="4.17039">
        <ele>1260.91</ele>
        <time>2021-05-23T11:35:03Z</time>
      </trkpt>
      <trkpt lat="44.9766" lon="4.17028">
        <ele>1262.35</ele>
        <time>2021-05-23T11:35:12Z</time>
      </trkpt>
      <trkpt lat="44.97654" lon="4.17017">
        <ele>1263.31</ele>
        <time>2021-05-23T11:35:20Z</time>
      </trkpt>
      <trkpt lat="44.97651" lon="4.1701">
        <ele>1264.75</ele>
        <time>2021-05-23T11:35:25Z</time>
      </trkpt>
      <trkpt lat="44.97647" lon="4.16999">
        <ele>1266.67</ele>
        <time>2021-05-23T11:35:36Z</time>
      </trkpt>
      <trkpt lat="44.97643" lon="4.16989">
        <ele>1265.71</ele>
        <time>2021-05-23T11:35:42Z</time>
      </trkpt>
      <trkpt lat="44.97639" lon="4.16979">
        <ele>1266.19</ele>
        <time>2021-05-23T11:35:49Z</time>
      </trkpt>
      <trkpt lat="44.97637" lon="4.16965">
        <ele>1267.16</ele>
        <time>2021-05-23T11:35:59Z</time>
      </trkpt>
      <trkpt lat="44.97634" lon="4.16945">
        <ele>1266.67</ele>
        <time>2021-05-23T11:36:09Z</time>
      </trkpt>
      <trkpt lat="44.9763" lon="4.16928">
        <ele>1268.6</ele>
        <time>2021-05-23T11:36:19Z</time>
      </trkpt>
      <trkpt lat="44.9763" lon="4.16925">
        <ele>1268.6</ele>
        <time>2021-05-23T11:36:20Z</time>
      </trkpt>
      <trkpt lat="44.97626" lon="4.16915">
        <ele>1270.04</ele>
        <time>2021-05-23T11:36:32Z</time>
      </trkpt>
      <trkpt lat="44.97622" lon="4.16902">
        <ele>1269.08</ele>
        <time>2021-05-23T11:36:41Z</time>
      </trkpt>
      <trkpt lat="44.97609" lon="4.16888">
        <ele>1269.08</ele>
        <time>2021-05-23T11:36:54Z</time>
      </trkpt>
      <trkpt lat="44.97596" lon="4.1688">
        <ele>1268.6</ele>
        <time>2021-05-23T11:37:05Z</time>
      </trkpt>
      <trkpt lat="44.97595" lon="4.16879">
        <ele>1268.6</ele>
        <time>2021-05-23T11:37:06Z</time>
      </trkpt>
      <trkpt lat="44.97583" lon="4.16874">
        <ele>1269.08</ele>
        <time>2021-05-23T11:37:17Z</time>
      </trkpt>
      <trkpt lat="44.9757" lon="4.1687">
        <ele>1271.48</ele>
        <time>2021-05-23T11:37:28Z</time>
      </trkpt>
      <trkpt lat="44.97557" lon="4.16864">
        <ele>1272.44</ele>
        <time>2021-05-23T11:37:39Z</time>
      </trkpt>
      <trkpt lat="44.9754" lon="4.16863">
        <ele>1273.88</ele>
        <time>2021-05-23T11:37:50Z</time>
      </trkpt>
      <trkpt lat="44.97528" lon="4.16863">
        <ele>1273.88</ele>
        <time>2021-05-23T11:38:00Z</time>
      </trkpt>
      <trkpt lat="44.97514" lon="4.16865">
        <ele>1272.92</ele>
        <time>2021-05-23T11:38:10Z</time>
      </trkpt>
      <trkpt lat="44.97503" lon="4.16866">
        <ele>1273.88</ele>
        <time>2021-05-23T11:38:19Z</time>
      </trkpt>
      <trkpt lat="44.97492" lon="4.16871">
        <ele>1276.77</ele>
        <time>2021-05-23T11:38:29Z</time>
      </trkpt>
      <trkpt lat="44.97479" lon="4.16874">
        <ele>1279.17</ele>
        <time>2021-05-23T11:38:39Z</time>
      </trkpt>
      <trkpt lat="44.97477" lon="4.16875">
        <ele>1279.65</ele>
        <time>2021-05-23T11:38:41Z</time>
      </trkpt>
      <trkpt lat="44.97468" lon="4.16872">
        <ele>1279.65</ele>
        <time>2021-05-23T11:38:49Z</time>
      </trkpt>
      <trkpt lat="44.97465" lon="4.16856">
        <ele>1280.13</ele>
        <time>2021-05-23T11:38:59Z</time>
      </trkpt>
      <trkpt lat="44.97465" lon="4.16856">
        <ele>1280.13</ele>
        <time>2021-05-23T11:39:01Z</time>
      </trkpt>
      <trkpt lat="44.97461" lon="4.16831">
        <ele>1280.13</ele>
        <time>2021-05-23T11:39:14Z</time>
      </trkpt>
      <trkpt lat="44.97457" lon="4.16813">
        <ele>1279.65</ele>
        <time>2021-05-23T11:39:25Z</time>
      </trkpt>
      <trkpt lat="44.97454" lon="4.16796">
        <ele>1280.61</ele>
        <time>2021-05-23T11:39:35Z</time>
      </trkpt>
      <trkpt lat="44.9745" lon="4.1678">
        <ele>1282.54</ele>
        <time>2021-05-23T11:39:44Z</time>
      </trkpt>
      <trkpt lat="44.97444" lon="4.16761">
        <ele>1283.5</ele>
        <time>2021-05-23T11:39:55Z</time>
      </trkpt>
      <trkpt lat="44.9744" lon="4.16747">
        <ele>1284.94</ele>
        <time>2021-05-23T11:40:06Z</time>
      </trkpt>
      <trkpt lat="44.97439" lon="4.16727">
        <ele>1287.82</ele>
        <time>2021-05-23T11:40:18Z</time>
      </trkpt>
      <trkpt lat="44.97437" lon="4.16718">
        <ele>1289.27</ele>
        <time>2021-05-23T11:40:24Z</time>
      </trkpt>
      <trkpt lat="44.97436" lon="4.16702">
        <ele>1291.67</ele>
        <time>2021-05-23T11:40:36Z</time>
      </trkpt>
      <trkpt lat="44.97442" lon="4.16695">
        <ele>1293.59</ele>
        <time>2021-05-23T11:40:44Z</time>
      </trkpt>
      <trkpt lat="44.97447" lon="4.16694">
        <ele>1295.03</ele>
        <time>2021-05-23T11:40:49Z</time>
      </trkpt>
      <trkpt lat="44.97461" lon="4.16685">
        <ele>1299.84</ele>
        <time>2021-05-23T11:40:59Z</time>
      </trkpt>
      <trkpt lat="44.97476" lon="4.1668">
        <ele>1300.8</ele>
        <time>2021-05-23T11:41:13Z</time>
      </trkpt>
      <trkpt lat="44.97489" lon="4.16674">
        <ele>1300.8</ele>
        <time>2021-05-23T11:41:23Z</time>
      </trkpt>
      <trkpt lat="44.97501" lon="4.16666">
        <ele>1298.4</ele>
        <time>2021-05-23T11:41:33Z</time>
      </trkpt>
      <trkpt lat="44.97516" lon="4.16658">
        <ele>1296.48</ele>
        <time>2021-05-23T11:41:44Z</time>
      </trkpt>
      <trkpt lat="44.97526" lon="4.16654">
        <ele>1295.51</ele>
        <time>2021-05-23T11:41:53Z</time>
      </trkpt>
      <trkpt lat="44.97534" lon="4.16648">
        <ele>1294.55</ele>
        <time>2021-05-23T11:42:01Z</time>
      </trkpt>
      <trkpt lat="44.97535" lon="4.16648">
        <ele>1294.07</ele>
        <time>2021-05-23T11:42:02Z</time>
      </trkpt>
      <trkpt lat="44.97546" lon="4.16652">
        <ele>1294.07</ele>
        <time>2021-05-23T11:42:12Z</time>
      </trkpt>
      <trkpt lat="44.97561" lon="4.16651">
        <ele>1294.07</ele>
        <time>2021-05-23T11:42:23Z</time>
      </trkpt>
      <trkpt lat="44.97567" lon="4.16648">
        <ele>1293.11</ele>
        <time>2021-05-23T11:42:28Z</time>
      </trkpt>
      <trkpt lat="44.97576" lon="4.16633">
        <ele>1291.67</ele>
        <time>2021-05-23T11:42:39Z</time>
      </trkpt>
      <trkpt lat="44.97585" lon="4.16618">
        <ele>1292.15</ele>
        <time>2021-05-23T11:42:49Z</time>
      </trkpt>
      <trkpt lat="44.97594" lon="4.166">
        <ele>1293.11</ele>
        <time>2021-05-23T11:43:00Z</time>
      </trkpt>
      <trkpt lat="44.976" lon="4.16589">
        <ele>1294.07</ele>
        <time>2021-05-23T11:43:07Z</time>
      </trkpt>
      <trkpt lat="44.97604" lon="4.16573">
        <ele>1295.03</ele>
        <time>2021-05-23T11:43:16Z</time>
      </trkpt>
      <trkpt lat="44.97608" lon="4.16552">
        <ele>1295.99</ele>
        <time>2021-05-23T11:43:28Z</time>
      </trkpt>
      <trkpt lat="44.97611" lon="4.16532">
        <ele>1296.48</ele>
        <time>2021-05-23T11:43:39Z</time>
      </trkpt>
      <trkpt lat="44.97611" lon="4.16528">
        <ele>1296.48</ele>
        <time>2021-05-23T11:43:43Z</time>
      </trkpt>
      <trkpt lat="44.97613" lon="4.16507">
        <ele>1297.44</ele>
        <time>2021-05-23T11:43:55Z</time>
      </trkpt>
      <trkpt lat="44.97617" lon="4.16486">
        <ele>1297.92</ele>
        <time>2021-05-23T11:44:06Z</time>
      </trkpt>
      <trkpt lat="44.97619" lon="4.16476">
        <ele>1297.44</ele>
        <time>2021-05-23T11:44:12Z</time>
      </trkpt>
      <trkpt lat="44.97622" lon="4.16458">
        <ele>1298.4</ele>
        <time>2021-05-23T11:44:22Z</time>
      </trkpt>
      <trkpt lat="44.97622" lon="4.16444">
        <ele>1296.96</ele>
        <time>2021-05-23T11:44:29Z</time>
      </trkpt>
      <trkpt lat="44.97622" lon="4.1644">
        <ele>1295.99</ele>
        <time>2021-05-23T11:44:32Z</time>
      </trkpt>
      <trkpt lat="44.97624" lon="4.1642">
        <ele>1293.59</ele>
        <time>2021-05-23T11:44:42Z</time>
      </trkpt>
      <trkpt lat="44.97624" lon="4.16419">
        <ele>1293.11</ele>
        <time>2021-05-23T11:44:48Z</time>
      </trkpt>
      <trkpt lat="44.97625" lon="4.16404">
        <ele>1291.67</ele>
        <time>2021-05-23T11:44:59Z</time>
      </trkpt>
      <trkpt lat="44.97626" lon="4.16401">
        <ele>1292.15</ele>
        <time>2021-05-23T11:45:01Z</time>
      </trkpt>
      <trkpt lat="44.97628" lon="4.16391">
        <ele>1292.15</ele>
        <time>2021-05-23T11:45:07Z</time>
      </trkpt>
      <trkpt lat="44.97634" lon="4.16368">
        <ele>1292.63</ele>
        <time>2021-05-23T11:45:20Z</time>
      </trkpt>
      <trkpt lat="44.97636" lon="4.16353">
        <ele>1292.63</ele>
        <time>2021-05-23T11:45:29Z</time>
      </trkpt>
      <trkpt lat="44.97637" lon="4.16333">
        <ele>1292.15</ele>
        <time>2021-05-23T11:45:40Z</time>
      </trkpt>
      <trkpt lat="44.97638" lon="4.16328">
        <ele>1292.15</ele>
        <time>2021-05-23T11:45:43Z</time>
      </trkpt>
      <trkpt lat="44.9764" lon="4.16306">
        <ele>1291.19</ele>
        <time>2021-05-23T11:45:55Z</time>
      </trkpt>
      <trkpt lat="44.9764" lon="4.16301">
        <ele>1291.19</ele>
        <time>2021-05-23T11:45:57Z</time>
      </trkpt>
      <trkpt lat="44.9764" lon="4.16275">
        <ele>1290.23</ele>
        <time>2021-05-23T11:46:12Z</time>
      </trkpt>
      <trkpt lat="44.97642" lon="4.16246">
        <ele>1288.3</ele>
        <time>2021-05-23T11:46:29Z</time>
      </trkpt>
      <trkpt lat="44.97646" lon="4.16212">
        <ele>1285.9</ele>
        <time>2021-05-23T11:46:47Z</time>
      </trkpt>
      <trkpt lat="44.97646" lon="4.16181">
        <ele>1283.98</ele>
        <time>2021-05-23T11:47:02Z</time>
      </trkpt>
      <trkpt lat="44.97648" lon="4.16178">
        <ele>1283.5</ele>
        <time>2021-05-23T11:47:05Z</time>
      </trkpt>
      <trkpt lat="44.97651" lon="4.16161">
        <ele>1283.02</ele>
        <time>2021-05-23T11:47:16Z</time>
      </trkpt>
      <trkpt lat="44.97652" lon="4.16142">
        <ele>1283.98</ele>
        <time>2021-05-23T11:47:28Z</time>
      </trkpt>
      <trkpt lat="44.97651" lon="4.16138">
        <ele>1283.98</ele>
        <time>2021-05-23T11:47:31Z</time>
      </trkpt>
      <trkpt lat="44.97643" lon="4.16137">
        <ele>1283.02</ele>
        <time>2021-05-23T11:47:39Z</time>
      </trkpt>
      <trkpt lat="44.97627" lon="4.16145">
        <ele>1284.46</ele>
        <time>2021-05-23T11:47:54Z</time>
      </trkpt>
      <trkpt lat="44.97615" lon="4.16154">
        <ele>1284.46</ele>
        <time>2021-05-23T11:48:05Z</time>
      </trkpt>
      <trkpt lat="44.97599" lon="4.16166">
        <ele>1286.38</ele>
        <time>2021-05-23T11:48:20Z</time>
      </trkpt>
      <trkpt lat="44.97588" lon="4.16174">
        <ele>1286.86</ele>
        <time>2021-05-23T11:48:29Z</time>
      </trkpt>
      <trkpt lat="44.97581" lon="4.16178">
        <ele>1285.9</ele>
        <time>2021-05-23T11:48:36Z</time>
      </trkpt>
      <trkpt lat="44.97576" lon="4.16185">
        <ele>1286.38</ele>
        <time>2021-05-23T11:48:41Z</time>
      </trkpt>
      <trkpt lat="44.97556" lon="4.16198">
        <ele>1286.86</ele>
        <time>2021-05-23T11:48:56Z</time>
      </trkpt>
      <trkpt lat="44.97553" lon="4.162">
        <ele>1287.82</ele>
        <time>2021-05-23T11:48:59Z</time>
      </trkpt>
      <trkpt lat="44.97545" lon="4.16203">
        <ele>1288.3</ele>
        <time>2021-05-23T11:49:07Z</time>
      </trkpt>
      <trkpt lat="44.9754" lon="4.16202">
        <ele>1288.3</ele>
        <time>2021-05-23T11:49:11Z</time>
      </trkpt>
      <trkpt lat="44.97534" lon="4.16191">
        <ele>1287.34</ele>
        <time>2021-05-23T11:49:23Z</time>
      </trkpt>
      <trkpt lat="44.97533" lon="4.16188">
        <ele>1287.34</ele>
        <time>2021-05-23T11:49:26Z</time>
      </trkpt>
      <trkpt lat="44.97534" lon="4.16181">
        <ele>1287.82</ele>
        <time>2021-05-23T11:49:32Z</time>
      </trkpt>
      <trkpt lat="44.97534" lon="4.16174">
        <ele>1288.3</ele>
        <time>2021-05-23T11:49:38Z</time>
      </trkpt>
      <trkpt lat="44.97534" lon="4.16166">
        <ele>1288.78</ele>
        <time>2021-05-23T11:49:42Z</time>
      </trkpt>
      <trkpt lat="44.97535" lon="4.1616">
        <ele>1289.27</ele>
        <time>2021-05-23T11:49:46Z</time>
      </trkpt>
      <trkpt lat="44.97534" lon="4.16146">
        <ele>1286.86</ele>
        <time>2021-05-23T11:49:54Z</time>
      </trkpt>
      <trkpt lat="44.97535" lon="4.16139">
        <ele>1284.94</ele>
        <time>2021-05-23T11:50:00Z</time>
      </trkpt>
      <trkpt lat="44.97535" lon="4.16129">
        <ele>1283.98</ele>
        <time>2021-05-23T11:50:05Z</time>
      </trkpt>
      <trkpt lat="44.97535" lon="4.16123">
        <ele>1283.5</ele>
        <time>2021-05-23T11:50:10Z</time>
      </trkpt>
      <trkpt lat="44.97535" lon="4.16107">
        <ele>1278.69</ele>
        <time>2021-05-23T11:50:21Z</time>
      </trkpt>
      <trkpt lat="44.97536" lon="4.16096">
        <ele>1275.33</ele>
        <time>2021-05-23T11:50:27Z</time>
      </trkpt>
      <trkpt lat="44.97533" lon="4.16075">
        <ele>1272.92</ele>
        <time>2021-05-23T11:50:38Z</time>
      </trkpt>
      <trkpt lat="44.97532" lon="4.1607">
        <ele>1272.92</ele>
        <time>2021-05-23T11:50:42Z</time>
      </trkpt>
      <trkpt lat="44.9753" lon="4.16063">
        <ele>1272.92</ele>
        <time>2021-05-23T11:50:45Z</time>
      </trkpt>
      <trkpt lat="44.97528" lon="4.16041">
        <ele>1268.6</ele>
        <time>2021-05-23T11:50:59Z</time>
      </trkpt>
      <trkpt lat="44.97525" lon="4.16022">
        <ele>1268.6</ele>
        <time>2021-05-23T11:51:08Z</time>
      </trkpt>
      <trkpt lat="44.97524" lon="4.16007">
        <ele>1267.64</ele>
        <time>2021-05-23T11:51:17Z</time>
      </trkpt>
      <trkpt lat="44.97523" lon="4.15992">
        <ele>1267.64</ele>
        <time>2021-05-23T11:51:24Z</time>
      </trkpt>
      <trkpt lat="44.97525" lon="4.15982">
        <ele>1267.16</ele>
        <time>2021-05-23T11:51:31Z</time>
      </trkpt>
      <trkpt lat="44.97524" lon="4.15968">
        <ele>1266.67</ele>
        <time>2021-05-23T11:51:40Z</time>
      </trkpt>
      <trkpt lat="44.97523" lon="4.15945">
        <ele>1267.16</ele>
        <time>2021-05-23T11:51:51Z</time>
      </trkpt>
      <trkpt lat="44.97524" lon="4.1594">
        <ele>1267.16</ele>
        <time>2021-05-23T11:51:54Z</time>
      </trkpt>
      <trkpt lat="44.97525" lon="4.15929">
        <ele>1266.19</ele>
        <time>2021-05-23T11:52:02Z</time>
      </trkpt>
      <trkpt lat="44.97527" lon="4.15921">
        <ele>1265.71</ele>
        <time>2021-05-23T11:52:06Z</time>
      </trkpt>
      <trkpt lat="44.9753" lon="4.15915">
        <ele>1264.27</ele>
        <time>2021-05-23T11:52:11Z</time>
      </trkpt>
      <trkpt lat="44.97536" lon="4.15889">
        <ele>1260.91</ele>
        <time>2021-05-23T11:52:25Z</time>
      </trkpt>
      <trkpt lat="44.97535" lon="4.15866">
        <ele>1260.43</ele>
        <time>2021-05-23T11:52:37Z</time>
      </trkpt>
      <trkpt lat="44.97534" lon="4.15858">
        <ele>1259.46</ele>
        <time>2021-05-23T11:52:40Z</time>
      </trkpt>
      <trkpt lat="44.97534" lon="4.15853">
        <ele>1258.5</ele>
        <time>2021-05-23T11:52:45Z</time>
      </trkpt>
      <trkpt lat="44.97532" lon="4.15833">
        <ele>1257.54</ele>
        <time>2021-05-23T11:52:56Z</time>
      </trkpt>
      <trkpt lat="44.97532" lon="4.15831">
        <ele>1257.54</ele>
        <time>2021-05-23T11:52:57Z</time>
      </trkpt>
      <trkpt lat="44.97532" lon="4.15806">
        <ele>1253.22</ele>
        <time>2021-05-23T11:53:12Z</time>
      </trkpt>
      <trkpt lat="44.97534" lon="4.15779">
        <ele>1249.37</ele>
        <time>2021-05-23T11:53:27Z</time>
      </trkpt>
      <trkpt lat="44.97533" lon="4.15772">
        <ele>1247.93</ele>
        <time>2021-05-23T11:53:32Z</time>
      </trkpt>
      <trkpt lat="44.97514" lon="4.15741">
        <ele>1247.45</ele>
        <time>2021-05-23T11:53:50Z</time>
      </trkpt>
      <trkpt lat="44.97511" lon="4.15718">
        <ele>1247.45</ele>
        <time>2021-05-23T11:54:05Z</time>
      </trkpt>
      <trkpt lat="44.97514" lon="4.1569">
        <ele>1245.04</ele>
        <time>2021-05-23T11:54:22Z</time>
      </trkpt>
      <trkpt lat="44.97511" lon="4.15663">
        <ele>1243.12</ele>
        <time>2021-05-23T11:54:36Z</time>
      </trkpt>
      <trkpt lat="44.9751" lon="4.15644">
        <ele>1244.08</ele>
        <time>2021-05-23T11:54:46Z</time>
      </trkpt>
      <trkpt lat="44.9751" lon="4.15622">
        <ele>1244.56</ele>
        <time>2021-05-23T11:54:56Z</time>
      </trkpt>
      <trkpt lat="44.9751" lon="4.15618">
        <ele>1245.04</ele>
        <time>2021-05-23T11:54:59Z</time>
      </trkpt>
      <trkpt lat="44.97511" lon="4.15613">
        <ele>1245.04</ele>
        <time>2021-05-23T11:55:02Z</time>
      </trkpt>
      <trkpt lat="44.97505" lon="4.156">
        <ele>1245.53</ele>
        <time>2021-05-23T11:55:12Z</time>
      </trkpt>
      <trkpt lat="44.97485" lon="4.15584">
        <ele>1246.97</ele>
        <time>2021-05-23T11:55:24Z</time>
      </trkpt>
      <trkpt lat="44.97483" lon="4.15582">
        <ele>1246.49</ele>
        <time>2021-05-23T11:55:26Z</time>
      </trkpt>
      <trkpt lat="44.97469" lon="4.15574">
        <ele>1247.45</ele>
        <time>2021-05-23T11:55:37Z</time>
      </trkpt>
      <trkpt lat="44.97459" lon="4.15567">
        <ele>1248.41</ele>
        <time>2021-05-23T11:55:47Z</time>
      </trkpt>
      <trkpt lat="44.97454" lon="4.15563">
        <ele>1249.37</ele>
        <time>2021-05-23T11:55:51Z</time>
      </trkpt>
      <trkpt lat="44.9745" lon="4.15544">
        <ele>1249.85</ele>
        <time>2021-05-23T11:56:03Z</time>
      </trkpt>
      <trkpt lat="44.9745" lon="4.15526">
        <ele>1248.41</ele>
        <time>2021-05-23T11:56:13Z</time>
      </trkpt>
      <trkpt lat="44.9745" lon="4.15519">
        <ele>1247.93</ele>
        <time>2021-05-23T11:56:16Z</time>
      </trkpt>
      <trkpt lat="44.97453" lon="4.15501">
        <ele>1246.01</ele>
        <time>2021-05-23T11:56:28Z</time>
      </trkpt>
      <trkpt lat="44.97452" lon="4.15483">
        <ele>1244.08</ele>
        <time>2021-05-23T11:56:38Z</time>
      </trkpt>
      <trkpt lat="44.9745" lon="4.15458">
        <ele>1242.64</ele>
        <time>2021-05-23T11:56:50Z</time>
      </trkpt>
      <trkpt lat="44.97451" lon="4.15452">
        <ele>1243.12</ele>
        <time>2021-05-23T11:56:54Z</time>
      </trkpt>
      <trkpt lat="44.97452" lon="4.15433">
        <ele>1243.6</ele>
        <time>2021-05-23T11:57:04Z</time>
      </trkpt>
      <trkpt lat="44.97453" lon="4.15414">
        <ele>1245.04</ele>
        <time>2021-05-23T11:57:14Z</time>
      </trkpt>
      <trkpt lat="44.97453" lon="4.15395">
        <ele>1245.53</ele>
        <time>2021-05-23T11:57:24Z</time>
      </trkpt>
      <trkpt lat="44.97454" lon="4.1538">
        <ele>1246.97</ele>
        <time>2021-05-23T11:57:33Z</time>
      </trkpt>
      <trkpt lat="44.97454" lon="4.15376">
        <ele>1246.97</ele>
        <time>2021-05-23T11:57:34Z</time>
      </trkpt>
      <trkpt lat="44.97455" lon="4.15369">
        <ele>1247.93</ele>
        <time>2021-05-23T11:57:39Z</time>
      </trkpt>
      <trkpt lat="44.97455" lon="4.15352">
        <ele>1249.37</ele>
        <time>2021-05-23T11:57:49Z</time>
      </trkpt>
      <trkpt lat="44.97455" lon="4.15335">
        <ele>1250.33</ele>
        <time>2021-05-23T11:57:57Z</time>
      </trkpt>
      <trkpt lat="44.97458" lon="4.15314">
        <ele>1250.81</ele>
        <time>2021-05-23T11:58:08Z</time>
      </trkpt>
      <trkpt lat="44.9746" lon="4.15293">
        <ele>1249.85</ele>
        <time>2021-05-23T11:58:18Z</time>
      </trkpt>
      <trkpt lat="44.97463" lon="4.15275">
        <ele>1248.89</ele>
        <time>2021-05-23T11:58:27Z</time>
      </trkpt>
      <trkpt lat="44.97464" lon="4.15265">
        <ele>1248.89</ele>
        <time>2021-05-23T11:58:33Z</time>
      </trkpt>
      <trkpt lat="44.97467" lon="4.15243">
        <ele>1248.41</ele>
        <time>2021-05-23T11:58:44Z</time>
      </trkpt>
      <trkpt lat="44.97468" lon="4.15228">
        <ele>1247.93</ele>
        <time>2021-05-23T11:58:53Z</time>
      </trkpt>
      <trkpt lat="44.97469" lon="4.15212">
        <ele>1247.93</ele>
        <time>2021-05-23T11:59:01Z</time>
      </trkpt>
      <trkpt lat="44.9747" lon="4.15205">
        <ele>1246.97</ele>
        <time>2021-05-23T11:59:05Z</time>
      </trkpt>
      <trkpt lat="44.97472" lon="4.15189">
        <ele>1245.53</ele>
        <time>2021-05-23T11:59:15Z</time>
      </trkpt>
      <trkpt lat="44.97473" lon="4.15169">
        <ele>1245.53</ele>
        <time>2021-05-23T11:59:27Z</time>
      </trkpt>
      <trkpt lat="44.97477" lon="4.1514">
        <ele>1245.53</ele>
        <time>2021-05-23T11:59:44Z</time>
      </trkpt>
      <trkpt lat="44.97481" lon="4.15121">
        <ele>1245.53</ele>
        <time>2021-05-23T11:59:53Z</time>
      </trkpt>
      <trkpt lat="44.97487" lon="4.15107">
        <ele>1246.49</ele>
        <time>2021-05-23T12:00:02Z</time>
      </trkpt>
      <trkpt lat="44.97491" lon="4.15097">
        <ele>1246.49</ele>
        <time>2021-05-23T12:00:08Z</time>
      </trkpt>
      <trkpt lat="44.97492" lon="4.15095">
        <ele>1246.01</ele>
        <time>2021-05-23T12:00:11Z</time>
      </trkpt>
      <trkpt lat="44.97495" lon="4.15082">
        <ele>1246.49</ele>
        <time>2021-05-23T12:00:20Z</time>
      </trkpt>
      <trkpt lat="44.97499" lon="4.15063">
        <ele>1246.49</ele>
        <time>2021-05-23T12:00:30Z</time>
      </trkpt>
      <trkpt lat="44.97502" lon="4.15049">
        <ele>1246.49</ele>
        <time>2021-05-23T12:00:38Z</time>
      </trkpt>
      <trkpt lat="44.97506" lon="4.15032">
        <ele>1246.97</ele>
        <time>2021-05-23T12:00:48Z</time>
      </trkpt>
      <trkpt lat="44.9751" lon="4.15015">
        <ele>1247.45</ele>
        <time>2021-05-23T12:00:57Z</time>
      </trkpt>
      <trkpt lat="44.97514" lon="4.14994">
        <ele>1246.97</ele>
        <time>2021-05-23T12:01:08Z</time>
      </trkpt>
      <trkpt lat="44.97517" lon="4.14978">
        <ele>1245.53</ele>
        <time>2021-05-23T12:01:17Z</time>
      </trkpt>
      <trkpt lat="44.97518" lon="4.14964">
        <ele>1244.56</ele>
        <time>2021-05-23T12:01:27Z</time>
      </trkpt>
      <trkpt lat="44.97522" lon="4.14947">
        <ele>1243.12</ele>
        <time>2021-05-23T12:01:36Z</time>
      </trkpt>
      <trkpt lat="44.97525" lon="4.14934">
        <ele>1243.12</ele>
        <time>2021-05-23T12:01:43Z</time>
      </trkpt>
      <trkpt lat="44.97525" lon="4.14924">
        <ele>1242.64</ele>
        <time>2021-05-23T12:01:48Z</time>
      </trkpt>
      <trkpt lat="44.97526" lon="4.14918">
        <ele>1242.64</ele>
        <time>2021-05-23T12:01:51Z</time>
      </trkpt>
      <trkpt lat="44.97527" lon="4.14894">
        <ele>1241.68</ele>
        <time>2021-05-23T12:02:03Z</time>
      </trkpt>
      <trkpt lat="44.97528" lon="4.14893">
        <ele>1241.2</ele>
        <time>2021-05-23T12:02:10Z</time>
      </trkpt>
      <trkpt lat="44.97531" lon="4.14881">
        <ele>1241.2</ele>
        <time>2021-05-23T12:02:19Z</time>
      </trkpt>
      <trkpt lat="44.97532" lon="4.14875">
        <ele>1240.72</ele>
        <time>2021-05-23T12:02:21Z</time>
      </trkpt>
      <trkpt lat="44.97537" lon="4.14856">
        <ele>1239.76</ele>
        <time>2021-05-23T12:02:32Z</time>
      </trkpt>
      <trkpt lat="44.97538" lon="4.14855">
        <ele>1239.28</ele>
        <time>2021-05-23T12:02:34Z</time>
      </trkpt>
      <trkpt lat="44.97543" lon="4.14834">
        <ele>1237.83</ele>
        <time>2021-05-23T12:02:45Z</time>
      </trkpt>
      <trkpt lat="44.97546" lon="4.14821">
        <ele>1237.83</ele>
        <time>2021-05-23T12:02:52Z</time>
      </trkpt>
      <trkpt lat="44.97548" lon="4.14805">
        <ele>1237.35</ele>
        <time>2021-05-23T12:03:02Z</time>
      </trkpt>
      <trkpt lat="44.9755" lon="4.14792">
        <ele>1236.87</ele>
        <time>2021-05-23T12:03:12Z</time>
      </trkpt>
      <trkpt lat="44.97554" lon="4.14776">
        <ele>1235.91</ele>
        <time>2021-05-23T12:03:21Z</time>
      </trkpt>
      <trkpt lat="44.97557" lon="4.14761">
        <ele>1233.51</ele>
        <time>2021-05-23T12:03:31Z</time>
      </trkpt>
      <trkpt lat="44.97557" lon="4.14758">
        <ele>1233.03</ele>
        <time>2021-05-23T12:03:40Z</time>
      </trkpt>
      <trkpt lat="44.97555" lon="4.14738">
        <ele>1233.03</ele>
        <time>2021-05-23T12:03:53Z</time>
      </trkpt>
      <trkpt lat="44.97554" lon="4.14723">
        <ele>1231.11</ele>
        <time>2021-05-23T12:04:09Z</time>
      </trkpt>
      <trkpt lat="44.97553" lon="4.14706">
        <ele>1229.18</ele>
        <time>2021-05-23T12:04:21Z</time>
      </trkpt>
      <trkpt lat="44.97551" lon="4.14692">
        <ele>1228.7</ele>
        <time>2021-05-23T12:04:28Z</time>
      </trkpt>
      <trkpt lat="44.9755" lon="4.14681">
        <ele>1228.22</ele>
        <time>2021-05-23T12:04:38Z</time>
      </trkpt>
      <trkpt lat="44.9755" lon="4.14675">
        <ele>1227.74</ele>
        <time>2021-05-23T12:04:44Z</time>
      </trkpt>
      <trkpt lat="44.97549" lon="4.14665">
        <ele>1226.3</ele>
        <time>2021-05-23T12:04:52Z</time>
      </trkpt>
      <trkpt lat="44.97546" lon="4.14646">
        <ele>1223.9</ele>
        <time>2021-05-23T12:05:05Z</time>
      </trkpt>
      <trkpt lat="44.97546" lon="4.14639">
        <ele>1222.45</ele>
        <time>2021-05-23T12:05:17Z</time>
      </trkpt>
      <trkpt lat="44.97546" lon="4.14638">
        <ele>1221.97</ele>
        <time>2021-05-23T12:05:20Z</time>
      </trkpt>
      <trkpt lat="44.97548" lon="4.14629">
        <ele>1220.53</ele>
        <time>2021-05-23T12:05:32Z</time>
      </trkpt>
      <trkpt lat="44.97549" lon="4.14628">
        <ele>1220.05</ele>
        <time>2021-05-23T12:05:35Z</time>
      </trkpt>
      <trkpt lat="44.97551" lon="4.14624">
        <ele>1219.09</ele>
        <time>2021-05-23T12:05:40Z</time>
      </trkpt>
      <trkpt lat="44.97556" lon="4.14615">
        <ele>1215.72</ele>
        <time>2021-05-23T12:05:53Z</time>
      </trkpt>
      <trkpt lat="44.97559" lon="4.14601">
        <ele>1212.84</ele>
        <time>2021-05-23T12:06:02Z</time>
      </trkpt>
      <trkpt lat="44.97563" lon="4.14592">
        <ele>1210.44</ele>
        <time>2021-05-23T12:06:10Z</time>
      </trkpt>
      <trkpt lat="44.97564" lon="4.14584">
        <ele>1209.48</ele>
        <time>2021-05-23T12:06:20Z</time>
      </trkpt>
      <trkpt lat="44.97565" lon="4.14576">
        <ele>1208.51</ele>
        <time>2021-05-23T12:06:25Z</time>
      </trkpt>
      <trkpt lat="44.97566" lon="4.14564">
        <ele>1208.03</ele>
        <time>2021-05-23T12:06:37Z</time>
      </trkpt>
      <trkpt lat="44.9757" lon="4.14553">
        <ele>1206.11</ele>
        <time>2021-05-23T12:06:45Z</time>
      </trkpt>
      <trkpt lat="44.97569" lon="4.14546">
        <ele>1204.19</ele>
        <time>2021-05-23T12:06:50Z</time>
      </trkpt>
      <trkpt lat="44.97569" lon="4.14541">
        <ele>1202.75</ele>
        <time>2021-05-23T12:06:54Z</time>
      </trkpt>
      <trkpt lat="44.97566" lon="4.14531">
        <ele>1201.79</ele>
        <time>2021-05-23T12:07:01Z</time>
      </trkpt>
      <trkpt lat="44.97563" lon="4.14512">
        <ele>1199.86</ele>
        <time>2021-05-23T12:07:11Z</time>
      </trkpt>
      <trkpt lat="44.97563" lon="4.14498">
        <ele>1198.9</ele>
        <time>2021-05-23T12:07:19Z</time>
      </trkpt>
      <trkpt lat="44.97564" lon="4.14491">
        <ele>1198.9</ele>
        <time>2021-05-23T12:07:24Z</time>
      </trkpt>
      <trkpt lat="44.97565" lon="4.14479">
        <ele>1199.38</ele>
        <time>2021-05-23T12:07:34Z</time>
      </trkpt>
      <trkpt lat="44.97566" lon="4.14476">
        <ele>1198.9</ele>
        <time>2021-05-23T12:07:51Z</time>
      </trkpt>
      <trkpt lat="44.97565" lon="4.14475">
        <ele>1198.9</ele>
        <time>2021-05-23T12:08:18Z</time>
      </trkpt>
      <trkpt lat="44.97564" lon="4.14478">
        <ele>1199.38</ele>
        <time>2021-05-23T12:08:41Z</time>
      </trkpt>
      <trkpt lat="44.97564" lon="4.14477">
        <ele>1198.9</ele>
        <time>2021-05-23T12:09:01Z</time>
      </trkpt>
      <trkpt lat="44.97563" lon="4.14477">
        <ele>1198.42</ele>
        <time>2021-05-23T12:09:19Z</time>
      </trkpt>
      <trkpt lat="44.97558" lon="4.14465">
        <ele>1199.86</ele>
        <time>2021-05-23T12:09:28Z</time>
      </trkpt>
      <trkpt lat="44.97559" lon="4.14464">
        <ele>1199.86</ele>
        <time>2021-05-23T12:09:41Z</time>
      </trkpt>
      <trkpt lat="44.97558" lon="4.14455">
        <ele>1199.38</ele>
        <time>2021-05-23T12:09:58Z</time>
      </trkpt>
      <trkpt lat="44.97552" lon="4.1444">
        <ele>1198.42</ele>
        <time>2021-05-23T12:10:09Z</time>
      </trkpt>
      <trkpt lat="44.97549" lon="4.14433">
        <ele>1198.9</ele>
        <time>2021-05-23T12:10:12Z</time>
      </trkpt>
      <trkpt lat="44.97556" lon="4.14416">
        <ele>1198.9</ele>
        <time>2021-05-23T12:10:22Z</time>
      </trkpt>
      <trkpt lat="44.97559" lon="4.14412">
        <ele>1199.38</ele>
        <time>2021-05-23T12:10:32Z</time>
      </trkpt>
      <trkpt lat="44.97568" lon="4.14401">
        <ele>1200.34</ele>
        <time>2021-05-23T12:10:41Z</time>
      </trkpt>
      <trkpt lat="44.97576" lon="4.1439">
        <ele>1200.82</ele>
        <time>2021-05-23T12:10:50Z</time>
      </trkpt>
      <trkpt lat="44.97588" lon="4.14374">
        <ele>1200.82</ele>
        <time>2021-05-23T12:11:07Z</time>
      </trkpt>
      <trkpt lat="44.97598" lon="4.14358">
        <ele>1201.3</ele>
        <time>2021-05-23T12:11:22Z</time>
      </trkpt>
      <trkpt lat="44.97611" lon="4.14336">
        <ele>1202.75</ele>
        <time>2021-05-23T12:11:38Z</time>
      </trkpt>
      <trkpt lat="44.97623" lon="4.14321">
        <ele>1204.67</ele>
        <time>2021-05-23T12:11:49Z</time>
      </trkpt>
      <trkpt lat="44.97635" lon="4.14302">
        <ele>1207.07</ele>
        <time>2021-05-23T12:12:05Z</time>
      </trkpt>
      <trkpt lat="44.97641" lon="4.14295">
        <ele>1207.55</ele>
        <time>2021-05-23T12:12:19Z</time>
      </trkpt>
      <trkpt lat="44.97641" lon="4.14294">
        <ele>1207.55</ele>
        <time>2021-05-23T12:12:21Z</time>
      </trkpt>
      <trkpt lat="44.97655" lon="4.14279">
        <ele>1209</ele>
        <time>2021-05-23T12:12:41Z</time>
      </trkpt>
      <trkpt lat="44.97663" lon="4.14272">
        <ele>1210.92</ele>
        <time>2021-05-23T12:12:58Z</time>
      </trkpt>
      <trkpt lat="44.97678" lon="4.14279">
        <ele>1209.96</ele>
        <time>2021-05-23T12:13:12Z</time>
      </trkpt>
      <trkpt lat="44.97692" lon="4.14281">
        <ele>1210.92</ele>
        <time>2021-05-23T12:13:31Z</time>
      </trkpt>
      <trkpt lat="44.97709" lon="4.14279">
        <ele>1208.03</ele>
        <time>2021-05-23T12:13:52Z</time>
      </trkpt>
      <trkpt lat="44.9771" lon="4.14278">
        <ele>1208.03</ele>
        <time>2021-05-23T12:13:53Z</time>
      </trkpt>
      <trkpt lat="44.97737" lon="4.1428">
        <ele>1201.79</ele>
        <time>2021-05-23T12:14:10Z</time>
      </trkpt>
      <trkpt lat="44.97744" lon="4.1428">
        <ele>1200.34</ele>
        <time>2021-05-23T12:14:19Z</time>
      </trkpt>
      <trkpt lat="44.97771" lon="4.14281">
        <ele>1202.75</ele>
        <time>2021-05-23T12:14:39Z</time>
      </trkpt>
      <trkpt lat="44.97791" lon="4.14289">
        <ele>1202.27</ele>
        <time>2021-05-23T12:14:56Z</time>
      </trkpt>
      <trkpt lat="44.97809" lon="4.14294">
        <ele>1206.59</ele>
        <time>2021-05-23T12:15:17Z</time>
      </trkpt>
      <trkpt lat="44.97811" lon="4.14292">
        <ele>1206.11</ele>
        <time>2021-05-23T12:15:19Z</time>
      </trkpt>
      <trkpt lat="44.97835" lon="4.14295">
        <ele>1206.11</ele>
        <time>2021-05-23T12:15:39Z</time>
      </trkpt>
      <trkpt lat="44.97844" lon="4.14304">
        <ele>1209</ele>
        <time>2021-05-23T12:15:58Z</time>
      </trkpt>
      <trkpt lat="44.97847" lon="4.14317">
        <ele>1212.84</ele>
        <time>2021-05-23T12:16:07Z</time>
      </trkpt>
      <trkpt lat="44.97862" lon="4.14328">
        <ele>1209.96</ele>
        <time>2021-05-23T12:16:23Z</time>
      </trkpt>
      <trkpt lat="44.97875" lon="4.14337">
        <ele>1209.96</ele>
        <time>2021-05-23T12:16:37Z</time>
      </trkpt>
      <trkpt lat="44.97874" lon="4.14345">
        <ele>1211.4</ele>
        <time>2021-05-23T12:17:02Z</time>
      </trkpt>
      <trkpt lat="44.97879" lon="4.14347">
        <ele>1211.4</ele>
        <time>2021-05-23T12:17:10Z</time>
      </trkpt>
      <trkpt lat="44.97891" lon="4.14354">
        <ele>1211.88</ele>
        <time>2021-05-23T12:17:21Z</time>
      </trkpt>
      <trkpt lat="44.9791" lon="4.14364">
        <ele>1212.84</ele>
        <time>2021-05-23T12:17:38Z</time>
      </trkpt>
      <trkpt lat="44.97929" lon="4.14374">
        <ele>1212.36</ele>
        <time>2021-05-23T12:17:56Z</time>
      </trkpt>
      <trkpt lat="44.97948" lon="4.14396">
        <ele>1211.4</ele>
        <time>2021-05-23T12:18:14Z</time>
      </trkpt>
      <trkpt lat="44.97963" lon="4.14418">
        <ele>1211.4</ele>
        <time>2021-05-23T12:18:30Z</time>
      </trkpt>
      <trkpt lat="44.9798" lon="4.14448">
        <ele>1212.84</ele>
        <time>2021-05-23T12:18:49Z</time>
      </trkpt>
      <trkpt lat="44.97991" lon="4.14465">
        <ele>1211.4</ele>
        <time>2021-05-23T12:19:03Z</time>
      </trkpt>
      <trkpt lat="44.98005" lon="4.14483">
        <ele>1209.48</ele>
        <time>2021-05-23T12:19:15Z</time>
      </trkpt>
      <trkpt lat="44.98016" lon="4.14498">
        <ele>1209.96</ele>
        <time>2021-05-23T12:19:25Z</time>
      </trkpt>
      <trkpt lat="44.98021" lon="4.14507">
        <ele>1209</ele>
        <time>2021-05-23T12:19:32Z</time>
      </trkpt>
      <trkpt lat="44.98023" lon="4.1451">
        <ele>1208.51</ele>
        <time>2021-05-23T12:19:35Z</time>
      </trkpt>
      <trkpt lat="44.9803" lon="4.1452">
        <ele>1208.03</ele>
        <time>2021-05-23T12:19:47Z</time>
      </trkpt>
      <trkpt lat="44.98036" lon="4.14528">
        <ele>1207.07</ele>
        <time>2021-05-23T12:19:59Z</time>
      </trkpt>
      <trkpt lat="44.98036" lon="4.14529">
        <ele>1206.11</ele>
        <time>2021-05-23T12:20:00Z</time>
      </trkpt>
      <trkpt lat="44.98044" lon="4.14541">
        <ele>1203.71</ele>
        <time>2021-05-23T12:20:06Z</time>
      </trkpt>
      <trkpt lat="44.98056" lon="4.14549">
        <ele>1200.82</ele>
        <time>2021-05-23T12:20:18Z</time>
      </trkpt>
      <trkpt lat="44.98066" lon="4.14555">
        <ele>1199.86</ele>
        <time>2021-05-23T12:20:28Z</time>
      </trkpt>
      <trkpt lat="44.98075" lon="4.14561">
        <ele>1199.38</ele>
        <time>2021-05-23T12:20:39Z</time>
      </trkpt>
      <trkpt lat="44.98088" lon="4.14561">
        <ele>1198.42</ele>
        <time>2021-05-23T12:20:49Z</time>
      </trkpt>
      <trkpt lat="44.98097" lon="4.14558">
        <ele>1198.9</ele>
        <time>2021-05-23T12:20:58Z</time>
      </trkpt>
      <trkpt lat="44.98106" lon="4.14553">
        <ele>1196.02</ele>
        <time>2021-05-23T12:21:07Z</time>
      </trkpt>
      <trkpt lat="44.98109" lon="4.14551">
        <ele>1195.06</ele>
        <time>2021-05-23T12:21:20Z</time>
      </trkpt>
      <trkpt lat="44.98119" lon="4.14549">
        <ele>1194.58</ele>
        <time>2021-05-23T12:21:28Z</time>
      </trkpt>
      <trkpt lat="44.98136" lon="4.14545">
        <ele>1192.65</ele>
        <time>2021-05-23T12:21:41Z</time>
      </trkpt>
      <trkpt lat="44.98139" lon="4.14546">
        <ele>1191.69</ele>
        <time>2021-05-23T12:21:45Z</time>
      </trkpt>
      <trkpt lat="44.98147" lon="4.14543">
        <ele>1190.73</ele>
        <time>2021-05-23T12:21:56Z</time>
      </trkpt>
      <trkpt lat="44.98155" lon="4.14542">
        <ele>1189.77</ele>
        <time>2021-05-23T12:22:05Z</time>
      </trkpt>
      <trkpt lat="44.98165" lon="4.14539">
        <ele>1188.81</ele>
        <time>2021-05-23T12:22:15Z</time>
      </trkpt>
      <trkpt lat="44.98178" lon="4.14538">
        <ele>1186.88</ele>
        <time>2021-05-23T12:22:26Z</time>
      </trkpt>
      <trkpt lat="44.98194" lon="4.14533">
        <ele>1184.96</ele>
        <time>2021-05-23T12:22:37Z</time>
      </trkpt>
      <trkpt lat="44.98203" lon="4.14532">
        <ele>1182.56</ele>
        <time>2021-05-23T12:22:47Z</time>
      </trkpt>
      <trkpt lat="44.98204" lon="4.14532">
        <ele>1182.08</ele>
        <time>2021-05-23T12:22:48Z</time>
      </trkpt>
      <trkpt lat="44.98214" lon="4.14526">
        <ele>1180.64</ele>
        <time>2021-05-23T12:22:56Z</time>
      </trkpt>
      <trkpt lat="44.9823" lon="4.14513">
        <ele>1179.19</ele>
        <time>2021-05-23T12:23:09Z</time>
      </trkpt>
      <trkpt lat="44.98239" lon="4.14505">
        <ele>1177.27</ele>
        <time>2021-05-23T12:23:18Z</time>
      </trkpt>
      <trkpt lat="44.9825" lon="4.14498">
        <ele>1175.35</ele>
        <time>2021-05-23T12:23:27Z</time>
      </trkpt>
      <trkpt lat="44.98252" lon="4.14496">
        <ele>1175.35</ele>
        <time>2021-05-23T12:23:29Z</time>
      </trkpt>
      <trkpt lat="44.98259" lon="4.14492">
        <ele>1173.91</ele>
        <time>2021-05-23T12:23:37Z</time>
      </trkpt>
      <trkpt lat="44.98267" lon="4.14487">
        <ele>1172.95</ele>
        <time>2021-05-23T12:23:44Z</time>
      </trkpt>
      <trkpt lat="44.98275" lon="4.14482">
        <ele>1171.98</ele>
        <time>2021-05-23T12:23:55Z</time>
      </trkpt>
      <trkpt lat="44.98277" lon="4.1448">
        <ele>1171.98</ele>
        <time>2021-05-23T12:23:57Z</time>
      </trkpt>
      <trkpt lat="44.98284" lon="4.14477">
        <ele>1171.5</ele>
        <time>2021-05-23T12:24:05Z</time>
      </trkpt>
      <trkpt lat="44.98297" lon="4.14472">
        <ele>1171.02</ele>
        <time>2021-05-23T12:24:17Z</time>
      </trkpt>
      <trkpt lat="44.9831" lon="4.14464">
        <ele>1170.54</ele>
        <time>2021-05-23T12:24:30Z</time>
      </trkpt>
      <trkpt lat="44.98316" lon="4.14461">
        <ele>1169.58</ele>
        <time>2021-05-23T12:24:35Z</time>
      </trkpt>
      <trkpt lat="44.98331" lon="4.14449">
        <ele>1169.58</ele>
        <time>2021-05-23T12:24:47Z</time>
      </trkpt>
      <trkpt lat="44.98341" lon="4.14443">
        <ele>1167.18</ele>
        <time>2021-05-23T12:24:57Z</time>
      </trkpt>
      <trkpt lat="44.98341" lon="4.14443">
        <ele>1167.18</ele>
        <time>2021-05-23T12:24:58Z</time>
      </trkpt>
      <trkpt lat="44.98354" lon="4.14432">
        <ele>1165.74</ele>
        <time>2021-05-23T12:25:08Z</time>
      </trkpt>
      <trkpt lat="44.98365" lon="4.14426">
        <ele>1163.81</ele>
        <time>2021-05-23T12:25:18Z</time>
      </trkpt>
      <trkpt lat="44.98373" lon="4.14421">
        <ele>1164.77</ele>
        <time>2021-05-23T12:25:27Z</time>
      </trkpt>
      <trkpt lat="44.98384" lon="4.14414">
        <ele>1164.29</ele>
        <time>2021-05-23T12:25:38Z</time>
      </trkpt>
      <trkpt lat="44.9839" lon="4.14411">
        <ele>1163.33</ele>
        <time>2021-05-23T12:25:54Z</time>
      </trkpt>
      <trkpt lat="44.98394" lon="4.14409">
        <ele>1163.33</ele>
        <time>2021-05-23T12:26:00Z</time>
      </trkpt>
      <trkpt lat="44.98408" lon="4.14403">
        <ele>1162.37</ele>
        <time>2021-05-23T12:26:12Z</time>
      </trkpt>
      <trkpt lat="44.98423" lon="4.14395">
        <ele>1159.97</ele>
        <time>2021-05-23T12:26:25Z</time>
      </trkpt>
      <trkpt lat="44.98426" lon="4.14394">
        <ele>1159.01</ele>
        <time>2021-05-23T12:26:29Z</time>
      </trkpt>
      <trkpt lat="44.98438" lon="4.14389">
        <ele>1157.08</ele>
        <time>2021-05-23T12:26:41Z</time>
      </trkpt>
      <trkpt lat="44.98443" lon="4.14383">
        <ele>1155.64</ele>
        <time>2021-05-23T12:26:50Z</time>
      </trkpt>
      <trkpt lat="44.9845" lon="4.14378">
        <ele>1153.72</ele>
        <time>2021-05-23T12:26:58Z</time>
      </trkpt>
      <trkpt lat="44.98452" lon="4.14383">
        <ele>1152.28</ele>
        <time>2021-05-23T12:27:01Z</time>
      </trkpt>
      <trkpt lat="44.98449" lon="4.1439">
        <ele>1152.28</ele>
        <time>2021-05-23T12:27:11Z</time>
      </trkpt>
      <trkpt lat="44.98441" lon="4.144">
        <ele>1153.24</ele>
        <time>2021-05-23T12:27:22Z</time>
      </trkpt>
      <trkpt lat="44.98431" lon="4.14409">
        <ele>1153.72</ele>
        <time>2021-05-23T12:27:35Z</time>
      </trkpt>
      <trkpt lat="44.98422" lon="4.14424">
        <ele>1155.16</ele>
        <time>2021-05-23T12:27:49Z</time>
      </trkpt>
      <trkpt lat="44.98416" lon="4.14433">
        <ele>1154.68</ele>
        <time>2021-05-23T12:27:55Z</time>
      </trkpt>
      <trkpt lat="44.98401" lon="4.14455">
        <ele>1151.8</ele>
        <time>2021-05-23T12:28:09Z</time>
      </trkpt>
      <trkpt lat="44.9839" lon="4.14473">
        <ele>1147.95</ele>
        <time>2021-05-23T12:28:20Z</time>
      </trkpt>
      <trkpt lat="44.98389" lon="4.14474">
        <ele>1147.95</ele>
        <time>2021-05-23T12:28:21Z</time>
      </trkpt>
      <trkpt lat="44.98386" lon="4.14485">
        <ele>1146.99</ele>
        <time>2021-05-23T12:28:31Z</time>
      </trkpt>
      <trkpt lat="44.98384" lon="4.14491">
        <ele>1147.47</ele>
        <time>2021-05-23T12:28:40Z</time>
      </trkpt>
      <trkpt lat="44.98393" lon="4.14506">
        <ele>1148.43</ele>
        <time>2021-05-23T12:28:50Z</time>
      </trkpt>
      <trkpt lat="44.98398" lon="4.1452">
        <ele>1149.87</ele>
        <time>2021-05-23T12:29:03Z</time>
      </trkpt>
      <trkpt lat="44.98404" lon="4.14526">
        <ele>1150.35</ele>
        <time>2021-05-23T12:29:15Z</time>
      </trkpt>
      <trkpt lat="44.98408" lon="4.14532">
        <ele>1149.87</ele>
        <time>2021-05-23T12:29:28Z</time>
      </trkpt>
      <trkpt lat="44.98412" lon="4.14536">
        <ele>1150.35</ele>
        <time>2021-05-23T12:29:38Z</time>
      </trkpt>
      <trkpt lat="44.98413" lon="4.14536">
        <ele>1149.39</ele>
        <time>2021-05-23T12:29:54Z</time>
      </trkpt>
      <trkpt lat="44.98414" lon="4.14537">
        <ele>1149.87</ele>
        <time>2021-05-23T12:29:59Z</time>
      </trkpt>
      <trkpt lat="44.98415" lon="4.14536">
        <ele>1149.87</ele>
        <time>2021-05-23T12:30:02Z</time>
      </trkpt>
      <trkpt lat="44.98419" lon="4.14539">
        <ele>1149.39</ele>
        <time>2021-05-23T12:30:07Z</time>
      </trkpt>
      <trkpt lat="44.98421" lon="4.14543">
        <ele>1149.39</ele>
        <time>2021-05-23T12:30:11Z</time>
      </trkpt>
      <trkpt lat="44.98418" lon="4.14554">
        <ele>1150.35</ele>
        <time>2021-05-23T12:30:23Z</time>
      </trkpt>
      <trkpt lat="44.98415" lon="4.14557">
        <ele>1150.35</ele>
        <time>2021-05-23T12:30:27Z</time>
      </trkpt>
      <trkpt lat="44.98413" lon="4.14559">
        <ele>1150.84</ele>
        <time>2021-05-23T12:30:30Z</time>
      </trkpt>
      <trkpt lat="44.9841" lon="4.14563">
        <ele>1151.8</ele>
        <time>2021-05-23T12:30:35Z</time>
      </trkpt>
      <trkpt lat="44.98398" lon="4.1458">
        <ele>1153.72</ele>
        <time>2021-05-23T12:30:49Z</time>
      </trkpt>
      <trkpt lat="44.98391" lon="4.14587">
        <ele>1152.76</ele>
        <time>2021-05-23T12:31:00Z</time>
      </trkpt>
      <trkpt lat="44.98389" lon="4.14592">
        <ele>1152.28</ele>
        <time>2021-05-23T12:31:17Z</time>
      </trkpt>
      <trkpt lat="44.98376" lon="4.14615">
        <ele>1152.28</ele>
        <time>2021-05-23T12:31:38Z</time>
      </trkpt>
      <trkpt lat="44.98377" lon="4.14633">
        <ele>1152.76</ele>
        <time>2021-05-23T12:31:58Z</time>
      </trkpt>
      <trkpt lat="44.98388" lon="4.14625">
        <ele>1155.16</ele>
        <time>2021-05-23T12:32:18Z</time>
      </trkpt>
      <trkpt lat="44.9839" lon="4.14624">
        <ele>1155.64</ele>
        <time>2021-05-23T12:32:39Z</time>
      </trkpt>
      <trkpt lat="44.98407" lon="4.14626">
        <ele>1157.56</ele>
        <time>2021-05-23T12:33:02Z</time>
      </trkpt>
      <trkpt lat="44.98424" lon="4.14629">
        <ele>1159.49</ele>
        <time>2021-05-23T12:33:26Z</time>
      </trkpt>
      <trkpt lat="44.98451" lon="4.1464">
        <ele>1161.89</ele>
        <time>2021-05-23T12:33:45Z</time>
      </trkpt>
      <trkpt lat="44.98472" lon="4.14641">
        <ele>1163.33</ele>
        <time>2021-05-23T12:34:00Z</time>
      </trkpt>
      <trkpt lat="44.98484" lon="4.14644">
        <ele>1170.06</ele>
        <time>2021-05-23T12:34:16Z</time>
      </trkpt>
      <trkpt lat="44.98497" lon="4.14652">
        <ele>1171.02</ele>
        <time>2021-05-23T12:34:30Z</time>
      </trkpt>
      <trkpt lat="44.98504" lon="4.14652">
        <ele>1172.95</ele>
        <time>2021-05-23T12:34:42Z</time>
      </trkpt>
      <trkpt lat="44.98513" lon="4.14655">
        <ele>1172.95</ele>
        <time>2021-05-23T12:34:52Z</time>
      </trkpt>
      <trkpt lat="44.98526" lon="4.1466">
        <ele>1174.39</ele>
        <time>2021-05-23T12:35:05Z</time>
      </trkpt>
      <trkpt lat="44.9853" lon="4.14661">
        <ele>1174.87</ele>
        <time>2021-05-23T12:35:09Z</time>
      </trkpt>
      <trkpt lat="44.98541" lon="4.14664">
        <ele>1176.31</ele>
        <time>2021-05-23T12:35:19Z</time>
      </trkpt>
      <trkpt lat="44.98552" lon="4.1466">
        <ele>1177.75</ele>
        <time>2021-05-23T12:35:31Z</time>
      </trkpt>
      <trkpt lat="44.98558" lon="4.14655">
        <ele>1179.67</ele>
        <time>2021-05-23T12:35:41Z</time>
      </trkpt>
      <trkpt lat="44.98562" lon="4.14649">
        <ele>1179.67</ele>
        <time>2021-05-23T12:35:47Z</time>
      </trkpt>
      <trkpt lat="44.98567" lon="4.14638">
        <ele>1182.08</ele>
        <time>2021-05-23T12:35:57Z</time>
      </trkpt>
      <trkpt lat="44.9857" lon="4.14635">
        <ele>1183.04</ele>
        <time>2021-05-23T12:36:08Z</time>
      </trkpt>
      <trkpt lat="44.98579" lon="4.14628">
        <ele>1184</ele>
        <time>2021-05-23T12:36:17Z</time>
      </trkpt>
      <trkpt lat="44.98587" lon="4.14623">
        <ele>1184.96</ele>
        <time>2021-05-23T12:36:25Z</time>
      </trkpt>
      <trkpt lat="44.98597" lon="4.14616">
        <ele>1185.44</ele>
        <time>2021-05-23T12:36:33Z</time>
      </trkpt>
      <trkpt lat="44.98604" lon="4.14611">
        <ele>1185.44</ele>
        <time>2021-05-23T12:36:41Z</time>
      </trkpt>
      <trkpt lat="44.98613" lon="4.14607">
        <ele>1184</ele>
        <time>2021-05-23T12:36:51Z</time>
      </trkpt>
      <trkpt lat="44.98616" lon="4.14605">
        <ele>1182.56</ele>
        <time>2021-05-23T12:37:09Z</time>
      </trkpt>
      <trkpt lat="44.98621" lon="4.14604">
        <ele>1182.08</ele>
        <time>2021-05-23T12:37:26Z</time>
      </trkpt>
      <trkpt lat="44.98639" lon="4.14614">
        <ele>1181.6</ele>
        <time>2021-05-23T12:37:42Z</time>
      </trkpt>
      <trkpt lat="44.98646" lon="4.14627">
        <ele>1182.08</ele>
        <time>2021-05-23T12:37:58Z</time>
      </trkpt>
      <trkpt lat="44.98652" lon="4.14639">
        <ele>1183.52</ele>
        <time>2021-05-23T12:38:07Z</time>
      </trkpt>
      <trkpt lat="44.98665" lon="4.1465">
        <ele>1184.48</ele>
        <time>2021-05-23T12:38:20Z</time>
      </trkpt>
      <trkpt lat="44.98671" lon="4.14664">
        <ele>1184.48</ele>
        <time>2021-05-23T12:38:29Z</time>
      </trkpt>
      <trkpt lat="44.9868" lon="4.14691">
        <ele>1185.44</ele>
        <time>2021-05-23T12:38:45Z</time>
      </trkpt>
      <trkpt lat="44.98689" lon="4.14725">
        <ele>1187.37</ele>
        <time>2021-05-23T12:39:05Z</time>
      </trkpt>
      <trkpt lat="44.98684" lon="4.14736">
        <ele>1187.85</ele>
        <time>2021-05-23T12:39:13Z</time>
      </trkpt>
      <trkpt lat="44.98667" lon="4.14756">
        <ele>1187.37</ele>
        <time>2021-05-23T12:39:33Z</time>
      </trkpt>
      <trkpt lat="44.98667" lon="4.1477">
        <ele>1187.37</ele>
        <time>2021-05-23T12:39:45Z</time>
      </trkpt>
      <trkpt lat="44.98674" lon="4.14785">
        <ele>1188.33</ele>
        <time>2021-05-23T12:39:57Z</time>
      </trkpt>
      <trkpt lat="44.98693" lon="4.14812">
        <ele>1189.29</ele>
        <time>2021-05-23T12:40:16Z</time>
      </trkpt>
      <trkpt lat="44.98712" lon="4.1482">
        <ele>1188.81</ele>
        <time>2021-05-23T12:40:33Z</time>
      </trkpt>
      <trkpt lat="44.98732" lon="4.14831">
        <ele>1188.33</ele>
        <time>2021-05-23T12:40:51Z</time>
      </trkpt>
      <trkpt lat="44.98751" lon="4.14842">
        <ele>1186.88</ele>
        <time>2021-05-23T12:41:09Z</time>
      </trkpt>
      <trkpt lat="44.98753" lon="4.14843">
        <ele>1186.88</ele>
        <time>2021-05-23T12:41:11Z</time>
      </trkpt>
      <trkpt lat="44.9878" lon="4.14854">
        <ele>1186.4</ele>
        <time>2021-05-23T12:41:31Z</time>
      </trkpt>
      <trkpt lat="44.98801" lon="4.14862">
        <ele>1186.88</ele>
        <time>2021-05-23T12:41:48Z</time>
      </trkpt>
      <trkpt lat="44.98814" lon="4.1487">
        <ele>1185.92</ele>
        <time>2021-05-23T12:42:00Z</time>
      </trkpt>
      <trkpt lat="44.98821" lon="4.14873">
        <ele>1185.44</ele>
        <time>2021-05-23T12:42:05Z</time>
      </trkpt>
      <trkpt lat="44.9885" lon="4.14889">
        <ele>1188.33</ele>
        <time>2021-05-23T12:42:26Z</time>
      </trkpt>
      <trkpt lat="44.98871" lon="4.14904">
        <ele>1191.69</ele>
        <time>2021-05-23T12:42:44Z</time>
      </trkpt>
      <trkpt lat="44.9889" lon="4.1493">
        <ele>1194.09</ele>
        <time>2021-05-23T12:43:05Z</time>
      </trkpt>
      <trkpt lat="44.98911" lon="4.14954">
        <ele>1196.98</ele>
        <time>2021-05-23T12:43:25Z</time>
      </trkpt>
      <trkpt lat="44.98933" lon="4.14968">
        <ele>1199.38</ele>
        <time>2021-05-23T12:43:44Z</time>
      </trkpt>
      <trkpt lat="44.98939" lon="4.14979">
        <ele>1200.34</ele>
        <time>2021-05-23T12:43:53Z</time>
      </trkpt>
      <trkpt lat="44.98945" lon="4.14988">
        <ele>1200.82</ele>
        <time>2021-05-23T12:43:59Z</time>
      </trkpt>
      <trkpt lat="44.98969" lon="4.15012">
        <ele>1202.75</ele>
        <time>2021-05-23T12:44:20Z</time>
      </trkpt>
      <trkpt lat="44.98977" lon="4.15015">
        <ele>1202.27</ele>
        <time>2021-05-23T12:44:27Z</time>
      </trkpt>
      <trkpt lat="44.98999" lon="4.15019">
        <ele>1202.75</ele>
        <time>2021-05-23T12:44:48Z</time>
      </trkpt>
      <trkpt lat="44.99004" lon="4.15018">
        <ele>1203.23</ele>
        <time>2021-05-23T12:44:53Z</time>
      </trkpt>
      <trkpt lat="44.99026" lon="4.15012">
        <ele>1204.67</ele>
        <time>2021-05-23T12:45:12Z</time>
      </trkpt>
      <trkpt lat="44.99034" lon="4.15008">
        <ele>1205.63</ele>
        <time>2021-05-23T12:45:27Z</time>
      </trkpt>
      <trkpt lat="44.99039" lon="4.14996">
        <ele>1203.71</ele>
        <time>2021-05-23T12:45:49Z</time>
      </trkpt>
      <trkpt lat="44.99038" lon="4.14978">
        <ele>1201.79</ele>
        <time>2021-05-23T12:45:59Z</time>
      </trkpt>
      <trkpt lat="44.99035" lon="4.14955">
        <ele>1198.9</ele>
        <time>2021-05-23T12:46:14Z</time>
      </trkpt>
      <trkpt lat="44.99031" lon="4.14931">
        <ele>1197.94</ele>
        <time>2021-05-23T12:46:28Z</time>
      </trkpt>
      <trkpt lat="44.9903" lon="4.14925">
        <ele>1197.94</ele>
        <time>2021-05-23T12:46:33Z</time>
      </trkpt>
      <trkpt lat="44.99027" lon="4.14897">
        <ele>1202.27</ele>
        <time>2021-05-23T12:46:48Z</time>
      </trkpt>
      <trkpt lat="44.99024" lon="4.14872">
        <ele>1203.71</ele>
        <time>2021-05-23T12:46:59Z</time>
      </trkpt>
      <trkpt lat="44.99022" lon="4.14863">
        <ele>1203.71</ele>
        <time>2021-05-23T12:47:05Z</time>
      </trkpt>
      <trkpt lat="44.99023" lon="4.14851">
        <ele>1202.75</ele>
        <time>2021-05-23T12:47:12Z</time>
      </trkpt>
      <trkpt lat="44.99021" lon="4.14843">
        <ele>1203.71</ele>
        <time>2021-05-23T12:47:16Z</time>
      </trkpt>
      <trkpt lat="44.99018" lon="4.14821">
        <ele>1206.11</ele>
        <time>2021-05-23T12:47:29Z</time>
      </trkpt>
      <trkpt lat="44.99016" lon="4.14794">
        <ele>1208.51</ele>
        <time>2021-05-23T12:47:41Z</time>
      </trkpt>
      <trkpt lat="44.99014" lon="4.14774">
        <ele>1209.48</ele>
        <time>2021-05-23T12:47:51Z</time>
      </trkpt>
      <trkpt lat="44.99013" lon="4.14764">
        <ele>1208.51</ele>
        <time>2021-05-23T12:47:55Z</time>
      </trkpt>
      <trkpt lat="44.99016" lon="4.14746">
        <ele>1206.11</ele>
        <time>2021-05-23T12:48:06Z</time>
      </trkpt>
      <trkpt lat="44.99017" lon="4.14725">
        <ele>1204.67</ele>
        <time>2021-05-23T12:48:18Z</time>
      </trkpt>
      <trkpt lat="44.99018" lon="4.14702">
        <ele>1202.75</ele>
        <time>2021-05-23T12:48:29Z</time>
      </trkpt>
      <trkpt lat="44.99018" lon="4.14676">
        <ele>1201.3</ele>
        <time>2021-05-23T12:48:43Z</time>
      </trkpt>
      <trkpt lat="44.99018" lon="4.14671">
        <ele>1201.3</ele>
        <time>2021-05-23T12:48:47Z</time>
      </trkpt>
      <trkpt lat="44.99016" lon="4.14651">
        <ele>1200.82</ele>
        <time>2021-05-23T12:49:00Z</time>
      </trkpt>
      <trkpt lat="44.99015" lon="4.14641">
        <ele>1200.34</ele>
        <time>2021-05-23T12:49:15Z</time>
      </trkpt>
      <trkpt lat="44.99015" lon="4.14638">
        <ele>1200.34</ele>
        <time>2021-05-23T12:49:42Z</time>
      </trkpt>
      <trkpt lat="44.99015" lon="4.14637">
        <ele>1200.34</ele>
        <time>2021-05-23T12:50:05Z</time>
      </trkpt>
      <trkpt lat="44.99015" lon="4.14636">
        <ele>1200.34</ele>
        <time>2021-05-23T12:50:27Z</time>
      </trkpt>
      <trkpt lat="44.99015" lon="4.14633">
        <ele>1199.38</ele>
        <time>2021-05-23T12:50:47Z</time>
      </trkpt>
      <trkpt lat="44.99014" lon="4.14625">
        <ele>1199.38</ele>
        <time>2021-05-23T12:51:03Z</time>
      </trkpt>
      <trkpt lat="44.9901" lon="4.14604">
        <ele>1198.9</ele>
        <time>2021-05-23T12:51:18Z</time>
      </trkpt>
      <trkpt lat="44.99009" lon="4.14594">
        <ele>1197.46</ele>
        <time>2021-05-23T12:51:36Z</time>
      </trkpt>
      <trkpt lat="44.99006" lon="4.14582">
        <ele>1194.58</ele>
        <time>2021-05-23T12:51:54Z</time>
      </trkpt>
      <trkpt lat="44.99012" lon="4.14525">
        <ele>1191.21</ele>
        <time>2021-05-23T12:52:12Z</time>
      </trkpt>
      <trkpt lat="44.99024" lon="4.14493">
        <ele>1186.4</ele>
        <time>2021-05-23T12:52:32Z</time>
      </trkpt>
      <trkpt lat="44.99035" lon="4.1447">
        <ele>1182.08</ele>
        <time>2021-05-23T12:52:53Z</time>
      </trkpt>
      <trkpt lat="44.99046" lon="4.14454">
        <ele>1181.12</ele>
        <time>2021-05-23T12:53:04Z</time>
      </trkpt>
      <trkpt lat="44.99065" lon="4.14424">
        <ele>1180.16</ele>
        <time>2021-05-23T12:53:24Z</time>
      </trkpt>
      <trkpt lat="44.99077" lon="4.144">
        <ele>1177.27</ele>
        <time>2021-05-23T12:53:42Z</time>
      </trkpt>
      <trkpt lat="44.99087" lon="4.14376">
        <ele>1173.43</ele>
        <time>2021-05-23T12:54:00Z</time>
      </trkpt>
      <trkpt lat="44.99104" lon="4.14354">
        <ele>1170.54</ele>
        <time>2021-05-23T12:54:17Z</time>
      </trkpt>
      <trkpt lat="44.99121" lon="4.14333">
        <ele>1171.02</ele>
        <time>2021-05-23T12:54:35Z</time>
      </trkpt>
      <trkpt lat="44.99137" lon="4.1431">
        <ele>1169.1</ele>
        <time>2021-05-23T12:54:52Z</time>
      </trkpt>
      <trkpt lat="44.99146" lon="4.14294">
        <ele>1171.5</ele>
        <time>2021-05-23T12:55:00Z</time>
      </trkpt>
      <trkpt lat="44.99156" lon="4.14279">
        <ele>1171.98</ele>
        <time>2021-05-23T12:55:09Z</time>
      </trkpt>
      <trkpt lat="44.99157" lon="4.14269">
        <ele>1171.98</ele>
        <time>2021-05-23T12:55:14Z</time>
      </trkpt>
      <trkpt lat="44.99164" lon="4.14249">
        <ele>1171.98</ele>
        <time>2021-05-23T12:55:25Z</time>
      </trkpt>
      <trkpt lat="44.99165" lon="4.14239">
        <ele>1172.95</ele>
        <time>2021-05-23T12:55:30Z</time>
      </trkpt>
      <trkpt lat="44.99166" lon="4.1423">
        <ele>1171.98</ele>
        <time>2021-05-23T12:55:36Z</time>
      </trkpt>
      <trkpt lat="44.99167" lon="4.14211">
        <ele>1171.5</ele>
        <time>2021-05-23T12:55:48Z</time>
      </trkpt>
      <trkpt lat="44.9917" lon="4.14201">
        <ele>1170.06</ele>
        <time>2021-05-23T12:55:53Z</time>
      </trkpt>
      <trkpt lat="44.99173" lon="4.14178">
        <ele>1169.1</ele>
        <time>2021-05-23T12:56:05Z</time>
      </trkpt>
      <trkpt lat="44.99181" lon="4.14162">
        <ele>1168.14</ele>
        <time>2021-05-23T12:56:16Z</time>
      </trkpt>
      <trkpt lat="44.99194" lon="4.14148">
        <ele>1168.14</ele>
        <time>2021-05-23T12:56:29Z</time>
      </trkpt>
      <trkpt lat="44.99203" lon="4.14137">
        <ele>1169.1</ele>
        <time>2021-05-23T12:56:39Z</time>
      </trkpt>
      <trkpt lat="44.99212" lon="4.14115">
        <ele>1171.02</ele>
        <time>2021-05-23T12:56:50Z</time>
      </trkpt>
      <trkpt lat="44.99218" lon="4.14096">
        <ele>1169.58</ele>
        <time>2021-05-23T12:57:00Z</time>
      </trkpt>
      <trkpt lat="44.99226" lon="4.14081">
        <ele>1169.58</ele>
        <time>2021-05-23T12:57:12Z</time>
      </trkpt>
      <trkpt lat="44.99234" lon="4.14064">
        <ele>1170.54</ele>
        <time>2021-05-23T12:57:23Z</time>
      </trkpt>
      <trkpt lat="44.99244" lon="4.14054">
        <ele>1171.02</ele>
        <time>2021-05-23T12:57:33Z</time>
      </trkpt>
      <trkpt lat="44.99255" lon="4.14042">
        <ele>1173.91</ele>
        <time>2021-05-23T12:57:44Z</time>
      </trkpt>
      <trkpt lat="44.99258" lon="4.14036">
        <ele>1174.39</ele>
        <time>2021-05-23T12:57:49Z</time>
      </trkpt>
      <trkpt lat="44.9927" lon="4.14021">
        <ele>1176.79</ele>
        <time>2021-05-23T12:58:01Z</time>
      </trkpt>
      <trkpt lat="44.99279" lon="4.14008">
        <ele>1179.67</ele>
        <time>2021-05-23T12:58:14Z</time>
      </trkpt>
      <trkpt lat="44.99287" lon="4.13996">
        <ele>1180.64</ele>
        <time>2021-05-23T12:58:24Z</time>
      </trkpt>
      <trkpt lat="44.99293" lon="4.13984">
        <ele>1183.04</ele>
        <time>2021-05-23T12:58:33Z</time>
      </trkpt>
      <trkpt lat="44.99295" lon="4.13979">
        <ele>1183.52</ele>
        <time>2021-05-23T12:58:37Z</time>
      </trkpt>
      <trkpt lat="44.993" lon="4.13959">
        <ele>1183.52</ele>
        <time>2021-05-23T12:58:48Z</time>
      </trkpt>
      <trkpt lat="44.99307" lon="4.13941">
        <ele>1183.04</ele>
        <time>2021-05-23T12:58:58Z</time>
      </trkpt>
      <trkpt lat="44.99313" lon="4.13926">
        <ele>1184</ele>
        <time>2021-05-23T12:59:09Z</time>
      </trkpt>
      <trkpt lat="44.99318" lon="4.13913">
        <ele>1185.92</ele>
        <time>2021-05-23T12:59:19Z</time>
      </trkpt>
      <trkpt lat="44.99324" lon="4.13896">
        <ele>1189.77</ele>
        <time>2021-05-23T12:59:32Z</time>
      </trkpt>
      <trkpt lat="44.99326" lon="4.13889">
        <ele>1192.65</ele>
        <time>2021-05-23T12:59:38Z</time>
      </trkpt>
      <trkpt lat="44.99329" lon="4.13877">
        <ele>1196.02</ele>
        <time>2021-05-23T12:59:46Z</time>
      </trkpt>
      <trkpt lat="44.99333" lon="4.13866">
        <ele>1198.9</ele>
        <time>2021-05-23T12:59:56Z</time>
      </trkpt>
      <trkpt lat="44.99333" lon="4.13864">
        <ele>1199.38</ele>
        <time>2021-05-23T13:00:19Z</time>
      </trkpt>
      <trkpt lat="44.99333" lon="4.13865">
        <ele>1200.34</ele>
        <time>2021-05-23T13:00:40Z</time>
      </trkpt>
      <trkpt lat="44.99332" lon="4.13865">
        <ele>1201.3</ele>
        <time>2021-05-23T13:00:58Z</time>
      </trkpt>
      <trkpt lat="44.99333" lon="4.13865">
        <ele>1201.79</ele>
        <time>2021-05-23T13:01:18Z</time>
      </trkpt>
      <trkpt lat="44.99333" lon="4.13864">
        <ele>1202.27</ele>
        <time>2021-05-23T13:01:40Z</time>
      </trkpt>
      <trkpt lat="44.99334" lon="4.13861">
        <ele>1204.19</ele>
        <time>2021-05-23T13:01:55Z</time>
      </trkpt>
      <trkpt lat="44.99337" lon="4.13854">
        <ele>1204.67</ele>
        <time>2021-05-23T13:02:05Z</time>
      </trkpt>
      <trkpt lat="44.99339" lon="4.1385">
        <ele>1204.67</ele>
        <time>2021-05-23T13:02:08Z</time>
      </trkpt>
      <trkpt lat="44.99341" lon="4.13848">
        <ele>1205.63</ele>
        <time>2021-05-23T13:02:13Z</time>
      </trkpt>
      <trkpt lat="44.99344" lon="4.13849">
        <ele>1206.11</ele>
        <time>2021-05-23T13:02:17Z</time>
      </trkpt>
      <trkpt lat="44.99353" lon="4.13861">
        <ele>1208.03</ele>
        <time>2021-05-23T13:02:28Z</time>
      </trkpt>
      <trkpt lat="44.99358" lon="4.13872">
        <ele>1209.48</ele>
        <time>2021-05-23T13:02:36Z</time>
      </trkpt>
      <trkpt lat="44.9936" lon="4.13877">
        <ele>1210.44</ele>
        <time>2021-05-23T13:02:42Z</time>
      </trkpt>
      <trkpt lat="44.99369" lon="4.13891">
        <ele>1211.88</ele>
        <time>2021-05-23T13:02:53Z</time>
      </trkpt>
      <trkpt lat="44.99373" lon="4.13896">
        <ele>1211.4</ele>
        <time>2021-05-23T13:02:59Z</time>
      </trkpt>
      <trkpt lat="44.99374" lon="4.139">
        <ele>1211.4</ele>
        <time>2021-05-23T13:03:03Z</time>
      </trkpt>
      <trkpt lat="44.99382" lon="4.13915">
        <ele>1213.32</ele>
        <time>2021-05-23T13:03:12Z</time>
      </trkpt>
      <trkpt lat="44.99383" lon="4.13917">
        <ele>1213.8</ele>
        <time>2021-05-23T13:03:14Z</time>
      </trkpt>
      <trkpt lat="44.99386" lon="4.13924">
        <ele>1215.24</ele>
        <time>2021-05-23T13:03:18Z</time>
      </trkpt>
      <trkpt lat="44.99394" lon="4.1394">
        <ele>1217.17</ele>
        <time>2021-05-23T13:03:28Z</time>
      </trkpt>
      <trkpt lat="44.99402" lon="4.1395">
        <ele>1218.61</ele>
        <time>2021-05-23T13:03:37Z</time>
      </trkpt>
      <trkpt lat="44.99412" lon="4.13962">
        <ele>1219.09</ele>
        <time>2021-05-23T13:03:46Z</time>
      </trkpt>
      <trkpt lat="44.99421" lon="4.13974">
        <ele>1220.53</ele>
        <time>2021-05-23T13:03:57Z</time>
      </trkpt>
      <trkpt lat="44.99428" lon="4.13986">
        <ele>1221.97</ele>
        <time>2021-05-23T13:04:06Z</time>
      </trkpt>
      <trkpt lat="44.99436" lon="4.14002">
        <ele>1222.93</ele>
        <time>2021-05-23T13:04:16Z</time>
      </trkpt>
      <trkpt lat="44.9944" lon="4.14005">
        <ele>1223.9</ele>
        <time>2021-05-23T13:04:21Z</time>
      </trkpt>
      <trkpt lat="44.99451" lon="4.14">
        <ele>1225.82</ele>
        <time>2021-05-23T13:04:33Z</time>
      </trkpt>
      <trkpt lat="44.99474" lon="4.1399">
        <ele>1228.22</ele>
        <time>2021-05-23T13:04:54Z</time>
      </trkpt>
      <trkpt lat="44.99488" lon="4.13995">
        <ele>1229.66</ele>
        <time>2021-05-23T13:05:06Z</time>
      </trkpt>
      <trkpt lat="44.995" lon="4.14008">
        <ele>1231.59</ele>
        <time>2021-05-23T13:05:21Z</time>
      </trkpt>
      <trkpt lat="44.99501" lon="4.14015">
        <ele>1231.11</ele>
        <time>2021-05-23T13:05:25Z</time>
      </trkpt>
      <trkpt lat="44.99505" lon="4.14031">
        <ele>1231.59</ele>
        <time>2021-05-23T13:05:35Z</time>
      </trkpt>
      <trkpt lat="44.99508" lon="4.14043">
        <ele>1232.55</ele>
        <time>2021-05-23T13:05:43Z</time>
      </trkpt>
      <trkpt lat="44.99512" lon="4.14058">
        <ele>1234.47</ele>
        <time>2021-05-23T13:05:53Z</time>
      </trkpt>
      <trkpt lat="44.99516" lon="4.14075">
        <ele>1235.43</ele>
        <time>2021-05-23T13:06:04Z</time>
      </trkpt>
      <trkpt lat="44.9952" lon="4.14089">
        <ele>1236.39</ele>
        <time>2021-05-23T13:06:13Z</time>
      </trkpt>
      <trkpt lat="44.99524" lon="4.14106">
        <ele>1237.83</ele>
        <time>2021-05-23T13:06:23Z</time>
      </trkpt>
      <trkpt lat="44.99524" lon="4.1412">
        <ele>1238.8</ele>
        <time>2021-05-23T13:06:31Z</time>
      </trkpt>
      <trkpt lat="44.99522" lon="4.14135">
        <ele>1239.76</ele>
        <time>2021-05-23T13:06:40Z</time>
      </trkpt>
      <trkpt lat="44.9952" lon="4.14143">
        <ele>1240.24</ele>
        <time>2021-05-23T13:06:47Z</time>
      </trkpt>
      <trkpt lat="44.99519" lon="4.14157">
        <ele>1240.24</ele>
        <time>2021-05-23T13:06:57Z</time>
      </trkpt>
      <trkpt lat="44.9952" lon="4.14172">
        <ele>1240.24</ele>
        <time>2021-05-23T13:07:05Z</time>
      </trkpt>
      <trkpt lat="44.9952" lon="4.14186">
        <ele>1241.2</ele>
        <time>2021-05-23T13:07:13Z</time>
      </trkpt>
      <trkpt lat="44.99519" lon="4.14195">
        <ele>1241.68</ele>
        <time>2021-05-23T13:07:21Z</time>
      </trkpt>
      <trkpt lat="44.99516" lon="4.14212">
        <ele>1241.68</ele>
        <time>2021-05-23T13:07:30Z</time>
      </trkpt>
      <trkpt lat="44.99512" lon="4.14243">
        <ele>1241.68</ele>
        <time>2021-05-23T13:07:48Z</time>
      </trkpt>
      <trkpt lat="44.99519" lon="4.14279">
        <ele>1242.16</ele>
        <time>2021-05-23T13:08:09Z</time>
      </trkpt>
      <trkpt lat="44.9953" lon="4.14311">
        <ele>1240.24</ele>
        <time>2021-05-23T13:08:28Z</time>
      </trkpt>
      <trkpt lat="44.99538" lon="4.14344">
        <ele>1236.39</ele>
        <time>2021-05-23T13:08:48Z</time>
      </trkpt>
      <trkpt lat="44.99544" lon="4.14376">
        <ele>1233.51</ele>
        <time>2021-05-23T13:09:07Z</time>
      </trkpt>
      <trkpt lat="44.99558" lon="4.14398">
        <ele>1233.99</ele>
        <time>2021-05-23T13:09:25Z</time>
      </trkpt>
      <trkpt lat="44.99571" lon="4.14392">
        <ele>1234.47</ele>
        <time>2021-05-23T13:09:37Z</time>
      </trkpt>
      <trkpt lat="44.99577" lon="4.14394">
        <ele>1234.47</ele>
        <time>2021-05-23T13:09:42Z</time>
      </trkpt>
      <trkpt lat="44.99585" lon="4.14425">
        <ele>1233.99</ele>
        <time>2021-05-23T13:09:59Z</time>
      </trkpt>
      <trkpt lat="44.99587" lon="4.14452">
        <ele>1233.03</ele>
        <time>2021-05-23T13:10:15Z</time>
      </trkpt>
      <trkpt lat="44.99594" lon="4.14487">
        <ele>1233.03</ele>
        <time>2021-05-23T13:10:35Z</time>
      </trkpt>
      <trkpt lat="44.99602" lon="4.14514">
        <ele>1233.99</ele>
        <time>2021-05-23T13:10:52Z</time>
      </trkpt>
      <trkpt lat="44.99611" lon="4.1454">
        <ele>1234.47</ele>
        <time>2021-05-23T13:11:09Z</time>
      </trkpt>
      <trkpt lat="44.99622" lon="4.14566">
        <ele>1236.87</ele>
        <time>2021-05-23T13:11:27Z</time>
      </trkpt>
      <trkpt lat="44.99634" lon="4.14597">
        <ele>1239.28</ele>
        <time>2021-05-23T13:11:47Z</time>
      </trkpt>
      <trkpt lat="44.99646" lon="4.14623">
        <ele>1240.24</ele>
        <time>2021-05-23T13:12:04Z</time>
      </trkpt>
      <trkpt lat="44.99662" lon="4.14648">
        <ele>1238.8</ele>
        <time>2021-05-23T13:12:24Z</time>
      </trkpt>
      <trkpt lat="44.99676" lon="4.14679">
        <ele>1237.83</ele>
        <time>2021-05-23T13:12:42Z</time>
      </trkpt>
      <trkpt lat="44.99689" lon="4.14714">
        <ele>1237.35</ele>
        <time>2021-05-23T13:13:01Z</time>
      </trkpt>
      <trkpt lat="44.99695" lon="4.14744">
        <ele>1241.68</ele>
        <time>2021-05-23T13:13:18Z</time>
      </trkpt>
      <trkpt lat="44.99705" lon="4.14778">
        <ele>1245.04</ele>
        <time>2021-05-23T13:13:37Z</time>
      </trkpt>
      <trkpt lat="44.99714" lon="4.14805">
        <ele>1245.04</ele>
        <time>2021-05-23T13:13:53Z</time>
      </trkpt>
      <trkpt lat="44.99727" lon="4.1483">
        <ele>1244.56</ele>
        <time>2021-05-23T13:14:11Z</time>
      </trkpt>
      <trkpt lat="44.99738" lon="4.14854">
        <ele>1242.64</ele>
        <time>2021-05-23T13:14:28Z</time>
      </trkpt>
      <trkpt lat="44.99752" lon="4.1488">
        <ele>1242.16</ele>
        <time>2021-05-23T13:14:46Z</time>
      </trkpt>
      <trkpt lat="44.99765" lon="4.14906">
        <ele>1240.24</ele>
        <time>2021-05-23T13:15:03Z</time>
      </trkpt>
      <trkpt lat="44.99781" lon="4.14938">
        <ele>1243.12</ele>
        <time>2021-05-23T13:15:23Z</time>
      </trkpt>
      <trkpt lat="44.99786" lon="4.14945">
        <ele>1243.12</ele>
        <time>2021-05-23T13:15:29Z</time>
      </trkpt>
      <trkpt lat="44.99791" lon="4.14953">
        <ele>1244.08</ele>
        <time>2021-05-23T13:15:36Z</time>
      </trkpt>
      <trkpt lat="44.99799" lon="4.14971">
        <ele>1250.33</ele>
        <time>2021-05-23T13:15:49Z</time>
      </trkpt>
      <trkpt lat="44.99803" lon="4.14982">
        <ele>1252.74</ele>
        <time>2021-05-23T13:15:57Z</time>
      </trkpt>
      <trkpt lat="44.99809" lon="4.15001">
        <ele>1256.58</ele>
        <time>2021-05-23T13:16:06Z</time>
      </trkpt>
      <trkpt lat="44.99814" lon="4.15019">
        <ele>1258.98</ele>
        <time>2021-05-23T13:16:15Z</time>
      </trkpt>
      <trkpt lat="44.99817" lon="4.15033">
        <ele>1260.43</ele>
        <time>2021-05-23T13:16:23Z</time>
      </trkpt>
      <trkpt lat="44.9982" lon="4.15045">
        <ele>1261.87</ele>
        <time>2021-05-23T13:16:31Z</time>
      </trkpt>
      <trkpt lat="44.99821" lon="4.15061">
        <ele>1262.83</ele>
        <time>2021-05-23T13:16:40Z</time>
      </trkpt>
      <trkpt lat="44.99821" lon="4.15062">
        <ele>1262.83</ele>
        <time>2021-05-23T13:16:43Z</time>
      </trkpt>
      <trkpt lat="44.99822" lon="4.15082">
        <ele>1263.79</ele>
        <time>2021-05-23T13:16:53Z</time>
      </trkpt>
      <trkpt lat="44.99824" lon="4.15099">
        <ele>1264.27</ele>
        <time>2021-05-23T13:17:02Z</time>
      </trkpt>
      <trkpt lat="44.99826" lon="4.15117">
        <ele>1265.23</ele>
        <time>2021-05-23T13:17:11Z</time>
      </trkpt>
      <trkpt lat="44.99828" lon="4.15133">
        <ele>1265.71</ele>
        <time>2021-05-23T13:17:20Z</time>
      </trkpt>
      <trkpt lat="44.99831" lon="4.1515">
        <ele>1268.12</ele>
        <time>2021-05-23T13:17:29Z</time>
      </trkpt>
      <trkpt lat="44.99834" lon="4.1516">
        <ele>1267.64</ele>
        <time>2021-05-23T13:17:37Z</time>
      </trkpt>
      <trkpt lat="44.99838" lon="4.15168">
        <ele>1267.64</ele>
        <time>2021-05-23T13:17:41Z</time>
      </trkpt>
      <trkpt lat="44.99845" lon="4.15173">
        <ele>1267.64</ele>
        <time>2021-05-23T13:17:49Z</time>
      </trkpt>
      <trkpt lat="44.99846" lon="4.15172">
        <ele>1267.16</ele>
        <time>2021-05-23T13:18:05Z</time>
      </trkpt>
      <trkpt lat="44.99846" lon="4.15172">
        <ele>1267.16</ele>
        <time>2021-05-23T13:18:06Z</time>
      </trkpt>
      <trkpt lat="44.99859" lon="4.15178">
        <ele>1266.67</ele>
        <time>2021-05-23T13:18:16Z</time>
      </trkpt>
      <trkpt lat="44.99877" lon="4.15183">
        <ele>1264.75</ele>
        <time>2021-05-23T13:18:29Z</time>
      </trkpt>
      <trkpt lat="44.9989" lon="4.15187">
        <ele>1260.43</ele>
        <time>2021-05-23T13:18:39Z</time>
      </trkpt>
      <trkpt lat="44.99914" lon="4.15194">
        <ele>1257.06</ele>
        <time>2021-05-23T13:18:58Z</time>
      </trkpt>
      <trkpt lat="44.99929" lon="4.15191">
        <ele>1254.66</ele>
        <time>2021-05-23T13:19:09Z</time>
      </trkpt>
      <trkpt lat="44.99931" lon="4.15192">
        <ele>1253.22</ele>
        <time>2021-05-23T13:19:12Z</time>
      </trkpt>
      <trkpt lat="44.99948" lon="4.15184">
        <ele>1251.77</ele>
        <time>2021-05-23T13:19:26Z</time>
      </trkpt>
      <trkpt lat="44.99958" lon="4.15181">
        <ele>1248.41</ele>
        <time>2021-05-23T13:19:35Z</time>
      </trkpt>
      <trkpt lat="44.99972" lon="4.15179">
        <ele>1243.12</ele>
        <time>2021-05-23T13:19:48Z</time>
      </trkpt>
      <trkpt lat="44.99989" lon="4.15173">
        <ele>1242.16</ele>
        <time>2021-05-23T13:19:59Z</time>
      </trkpt>
      <trkpt lat="45.00003" lon="4.15168">
        <ele>1241.2</ele>
        <time>2021-05-23T13:20:10Z</time>
      </trkpt>
      <trkpt lat="45.00019" lon="4.15162">
        <ele>1239.76</ele>
        <time>2021-05-23T13:20:22Z</time>
      </trkpt>
      <trkpt lat="45.00035" lon="4.15157">
        <ele>1238.8</ele>
        <time>2021-05-23T13:20:34Z</time>
      </trkpt>
      <trkpt lat="45.00049" lon="4.15153">
        <ele>1236.87</ele>
        <time>2021-05-23T13:20:46Z</time>
      </trkpt>
      <trkpt lat="45.00057" lon="4.15149">
        <ele>1236.39</ele>
        <time>2021-05-23T13:20:57Z</time>
      </trkpt>
      <trkpt lat="45.00058" lon="4.15149">
        <ele>1236.39</ele>
        <time>2021-05-23T13:21:03Z</time>
      </trkpt>
      <trkpt lat="45.00066" lon="4.15147">
        <ele>1235.43</ele>
        <time>2021-05-23T13:21:11Z</time>
      </trkpt>
      <trkpt lat="45.00082" lon="4.15136">
        <ele>1233.99</ele>
        <time>2021-05-23T13:21:24Z</time>
      </trkpt>
      <trkpt lat="45.00094" lon="4.15133">
        <ele>1233.03</ele>
        <time>2021-05-23T13:21:34Z</time>
      </trkpt>
      <trkpt lat="45.00106" lon="4.15126">
        <ele>1234.47</ele>
        <time>2021-05-23T13:21:44Z</time>
      </trkpt>
      <trkpt lat="45.00115" lon="4.15119">
        <ele>1234.47</ele>
        <time>2021-05-23T13:21:53Z</time>
      </trkpt>
      <trkpt lat="45.00119" lon="4.15118">
        <ele>1233.51</ele>
        <time>2021-05-23T13:21:59Z</time>
      </trkpt>
      <trkpt lat="45.00128" lon="4.15112">
        <ele>1234.95</ele>
        <time>2021-05-23T13:22:10Z</time>
      </trkpt>
      <trkpt lat="45.00127" lon="4.1511">
        <ele>1234.95</ele>
        <time>2021-05-23T13:22:29Z</time>
      </trkpt>
      <trkpt lat="45.00127" lon="4.1511">
        <ele>1233.99</ele>
        <time>2021-05-23T13:22:40Z</time>
      </trkpt>
      <trkpt lat="45.00129" lon="4.15109">
        <ele>1231.59</ele>
        <time>2021-05-23T13:22:48Z</time>
      </trkpt>
      <trkpt lat="45.00136" lon="4.15106">
        <ele>1230.14</ele>
        <time>2021-05-23T13:22:55Z</time>
      </trkpt>
      <trkpt lat="45.00145" lon="4.15107">
        <ele>1230.14</ele>
        <time>2021-05-23T13:23:04Z</time>
      </trkpt>
      <trkpt lat="45.00158" lon="4.15102">
        <ele>1226.78</ele>
        <time>2021-05-23T13:23:15Z</time>
      </trkpt>
      <trkpt lat="45.00171" lon="4.15103">
        <ele>1224.86</ele>
        <time>2021-05-23T13:23:25Z</time>
      </trkpt>
      <trkpt lat="45.00182" lon="4.15108">
        <ele>1225.34</ele>
        <time>2021-05-23T13:23:34Z</time>
      </trkpt>
      <trkpt lat="45.00198" lon="4.1511">
        <ele>1224.86</ele>
        <time>2021-05-23T13:23:45Z</time>
      </trkpt>
      <trkpt lat="45.00209" lon="4.15109">
        <ele>1223.9</ele>
        <time>2021-05-23T13:23:55Z</time>
      </trkpt>
      <trkpt lat="45.0022" lon="4.15107">
        <ele>1223.9</ele>
        <time>2021-05-23T13:24:04Z</time>
      </trkpt>
      <trkpt lat="45.00228" lon="4.15106">
        <ele>1223.9</ele>
        <time>2021-05-23T13:24:10Z</time>
      </trkpt>
      <trkpt lat="45.00242" lon="4.15093">
        <ele>1223.9</ele>
        <time>2021-05-23T13:24:21Z</time>
      </trkpt>
      <trkpt lat="45.00249" lon="4.15081">
        <ele>1223.42</ele>
        <time>2021-05-23T13:24:30Z</time>
      </trkpt>
      <trkpt lat="45.00253" lon="4.15077">
        <ele>1222.93</ele>
        <time>2021-05-23T13:24:35Z</time>
      </trkpt>
      <trkpt lat="45.00261" lon="4.15063">
        <ele>1222.93</ele>
        <time>2021-05-23T13:24:45Z</time>
      </trkpt>
      <trkpt lat="45.00268" lon="4.15049">
        <ele>1223.9</ele>
        <time>2021-05-23T13:24:53Z</time>
      </trkpt>
      <trkpt lat="45.00279" lon="4.15037">
        <ele>1222.45</ele>
        <time>2021-05-23T13:25:03Z</time>
      </trkpt>
      <trkpt lat="45.00288" lon="4.15024">
        <ele>1221.49</ele>
        <time>2021-05-23T13:25:13Z</time>
      </trkpt>
      <trkpt lat="45.00297" lon="4.15013">
        <ele>1221.49</ele>
        <time>2021-05-23T13:25:23Z</time>
      </trkpt>
      <trkpt lat="45.00306" lon="4.15005">
        <ele>1221.97</ele>
        <time>2021-05-23T13:25:32Z</time>
      </trkpt>
      <trkpt lat="45.0031" lon="4.15001">
        <ele>1221.97</ele>
        <time>2021-05-23T13:25:36Z</time>
      </trkpt>
      <trkpt lat="45.00319" lon="4.14998">
        <ele>1225.34</ele>
        <time>2021-05-23T13:25:44Z</time>
      </trkpt>
      <trkpt lat="45.0033" lon="4.14996">
        <ele>1229.66</ele>
        <time>2021-05-23T13:25:54Z</time>
      </trkpt>
      <trkpt lat="45.00338" lon="4.14993">
        <ele>1231.59</ele>
        <time>2021-05-23T13:26:01Z</time>
      </trkpt>
      <trkpt lat="45.00344" lon="4.1499">
        <ele>1231.59</ele>
        <time>2021-05-23T13:26:06Z</time>
      </trkpt>
      <trkpt lat="45.00357" lon="4.14986">
        <ele>1230.14</ele>
        <time>2021-05-23T13:26:16Z</time>
      </trkpt>
      <trkpt lat="45.00367" lon="4.14981">
        <ele>1229.18</ele>
        <time>2021-05-23T13:26:25Z</time>
      </trkpt>
      <trkpt lat="45.00367" lon="4.14981">
        <ele>1229.18</ele>
        <time>2021-05-23T13:26:26Z</time>
      </trkpt>
      <trkpt lat="45.00376" lon="4.14971">
        <ele>1228.22</ele>
        <time>2021-05-23T13:26:35Z</time>
      </trkpt>
      <trkpt lat="45.00387" lon="4.1496">
        <ele>1228.22</ele>
        <time>2021-05-23T13:26:44Z</time>
      </trkpt>
      <trkpt lat="45.00391" lon="4.14954">
        <ele>1227.26</ele>
        <time>2021-05-23T13:26:49Z</time>
      </trkpt>
      <trkpt lat="45.0039" lon="4.14941">
        <ele>1224.86</ele>
        <time>2021-05-23T13:26:58Z</time>
      </trkpt>
      <trkpt lat="45.00388" lon="4.14937">
        <ele>1224.86</ele>
        <time>2021-05-23T13:27:00Z</time>
      </trkpt>
      <trkpt lat="45.00394" lon="4.14917">
        <ele>1223.9</ele>
        <time>2021-05-23T13:27:11Z</time>
      </trkpt>
      <trkpt lat="45.00395" lon="4.14914">
        <ele>1223.42</ele>
        <time>2021-05-23T13:27:14Z</time>
      </trkpt>
      <trkpt lat="45.00397" lon="4.14895">
        <ele>1221.49</ele>
        <time>2021-05-23T13:27:24Z</time>
      </trkpt>
      <trkpt lat="45.00396" lon="4.14885">
        <ele>1220.05</ele>
        <time>2021-05-23T13:27:30Z</time>
      </trkpt>
      <trkpt lat="45.00391" lon="4.1488">
        <ele>1219.09</ele>
        <time>2021-05-23T13:27:35Z</time>
      </trkpt>
      <trkpt lat="45.00379" lon="4.14875">
        <ele>1216.69</ele>
        <time>2021-05-23T13:27:46Z</time>
      </trkpt>
      <trkpt lat="45.00368" lon="4.14868">
        <ele>1216.21</ele>
        <time>2021-05-23T13:27:55Z</time>
      </trkpt>
      <trkpt lat="45.00356" lon="4.14858">
        <ele>1216.69</ele>
        <time>2021-05-23T13:28:05Z</time>
      </trkpt>
      <trkpt lat="45.00354" lon="4.14856">
        <ele>1216.69</ele>
        <time>2021-05-23T13:28:08Z</time>
      </trkpt>
      <trkpt lat="45.00354" lon="4.14844">
        <ele>1216.21</ele>
        <time>2021-05-23T13:28:14Z</time>
      </trkpt>
      <trkpt lat="45.00361" lon="4.14823">
        <ele>1215.24</ele>
        <time>2021-05-23T13:28:25Z</time>
      </trkpt>
      <trkpt lat="45.00369" lon="4.14813">
        <ele>1212.84</ele>
        <time>2021-05-23T13:28:35Z</time>
      </trkpt>
      <trkpt lat="45.00378" lon="4.14802">
        <ele>1210.44</ele>
        <time>2021-05-23T13:28:45Z</time>
      </trkpt>
      <trkpt lat="45.00385" lon="4.14792">
        <ele>1209.48</ele>
        <time>2021-05-23T13:28:52Z</time>
      </trkpt>
      <trkpt lat="45.00387" lon="4.14775">
        <ele>1207.55</ele>
        <time>2021-05-23T13:29:01Z</time>
      </trkpt>
      <trkpt lat="45.00386" lon="4.14758">
        <ele>1205.63</ele>
        <time>2021-05-23T13:29:11Z</time>
      </trkpt>
      <trkpt lat="45.00385" lon="4.14746">
        <ele>1204.67</ele>
        <time>2021-05-23T13:29:19Z</time>
      </trkpt>
      <trkpt lat="45.00382" lon="4.14724">
        <ele>1203.23</ele>
        <time>2021-05-23T13:29:30Z</time>
      </trkpt>
      <trkpt lat="45.00378" lon="4.1471">
        <ele>1201.3</ele>
        <time>2021-05-23T13:29:39Z</time>
      </trkpt>
      <trkpt lat="45.00373" lon="4.14689">
        <ele>1200.34</ele>
        <time>2021-05-23T13:29:50Z</time>
      </trkpt>
      <trkpt lat="45.0037" lon="4.14674">
        <ele>1201.79</ele>
        <time>2021-05-23T13:29:59Z</time>
      </trkpt>
      <trkpt lat="45.00367" lon="4.14657">
        <ele>1201.79</ele>
        <time>2021-05-23T13:30:09Z</time>
      </trkpt>
      <trkpt lat="45.00366" lon="4.14649">
        <ele>1201.3</ele>
        <time>2021-05-23T13:30:13Z</time>
      </trkpt>
      <trkpt lat="45.00365" lon="4.14643">
        <ele>1200.82</ele>
        <time>2021-05-23T13:30:18Z</time>
      </trkpt>
      <trkpt lat="45.00364" lon="4.14622">
        <ele>1203.23</ele>
        <time>2021-05-23T13:30:30Z</time>
      </trkpt>
      <trkpt lat="45.00363" lon="4.14618">
        <ele>1203.71</ele>
        <time>2021-05-23T13:30:33Z</time>
      </trkpt>
      <trkpt lat="45.00357" lon="4.14592">
        <ele>1205.15</ele>
        <time>2021-05-23T13:30:45Z</time>
      </trkpt>
      <trkpt lat="45.00354" lon="4.14577">
        <ele>1206.11</ele>
        <time>2021-05-23T13:30:55Z</time>
      </trkpt>
      <trkpt lat="45.00346" lon="4.14557">
        <ele>1209.48</ele>
        <time>2021-05-23T13:31:07Z</time>
      </trkpt>
      <trkpt lat="45.00345" lon="4.14545">
        <ele>1209</ele>
        <time>2021-05-23T13:31:12Z</time>
      </trkpt>
      <trkpt lat="45.00341" lon="4.14523">
        <ele>1209.48</ele>
        <time>2021-05-23T13:31:23Z</time>
      </trkpt>
      <trkpt lat="45.00343" lon="4.14502">
        <ele>1210.44</ele>
        <time>2021-05-23T13:31:35Z</time>
      </trkpt>
      <trkpt lat="45.00353" lon="4.14471">
        <ele>1208.51</ele>
        <time>2021-05-23T13:31:50Z</time>
      </trkpt>
      <trkpt lat="45.00354" lon="4.14467">
        <ele>1208.03</ele>
        <time>2021-05-23T13:31:52Z</time>
      </trkpt>
      <trkpt lat="45.00358" lon="4.14447">
        <ele>1211.4</ele>
        <time>2021-05-23T13:32:04Z</time>
      </trkpt>
      <trkpt lat="45.0036" lon="4.14437">
        <ele>1212.84</ele>
        <time>2021-05-23T13:32:10Z</time>
      </trkpt>
      <trkpt lat="45.00366" lon="4.14406">
        <ele>1211.88</ele>
        <time>2021-05-23T13:32:26Z</time>
      </trkpt>
      <trkpt lat="45.00368" lon="4.14397">
        <ele>1211.4</ele>
        <time>2021-05-23T13:32:31Z</time>
      </trkpt>
      <trkpt lat="45.00369" lon="4.14391">
        <ele>1211.4</ele>
        <time>2021-05-23T13:32:34Z</time>
      </trkpt>
      <trkpt lat="45.00371" lon="4.1437">
        <ele>1209</ele>
        <time>2021-05-23T13:32:45Z</time>
      </trkpt>
      <trkpt lat="45.00369" lon="4.14365">
        <ele>1208.51</ele>
        <time>2021-05-23T13:32:48Z</time>
      </trkpt>
      <trkpt lat="45.0037" lon="4.1436">
        <ele>1208.03</ele>
        <time>2021-05-23T13:32:53Z</time>
      </trkpt>
      <trkpt lat="45.00369" lon="4.14342">
        <ele>1208.51</ele>
        <time>2021-05-23T13:33:05Z</time>
      </trkpt>
      <trkpt lat="45.00378" lon="4.14323">
        <ele>1208.03</ele>
        <time>2021-05-23T13:33:18Z</time>
      </trkpt>
      <trkpt lat="45.00387" lon="4.14309">
        <ele>1205.15</ele>
        <time>2021-05-23T13:33:30Z</time>
      </trkpt>
      <trkpt lat="45.00388" lon="4.14308">
        <ele>1205.15</ele>
        <time>2021-05-23T13:33:32Z</time>
      </trkpt>
      <trkpt lat="45.0039" lon="4.14301">
        <ele>1204.19</ele>
        <time>2021-05-23T13:33:37Z</time>
      </trkpt>
      <trkpt lat="45.0039" lon="4.14299">
        <ele>1204.19</ele>
        <time>2021-05-23T13:33:39Z</time>
      </trkpt>
      <trkpt lat="45.00394" lon="4.14283">
        <ele>1204.19</ele>
        <time>2021-05-23T13:33:50Z</time>
      </trkpt>
      <trkpt lat="45.00394" lon="4.14274">
        <ele>1204.67</ele>
        <time>2021-05-23T13:33:56Z</time>
      </trkpt>
      <trkpt lat="45.00395" lon="4.14258">
        <ele>1208.03</ele>
        <time>2021-05-23T13:34:07Z</time>
      </trkpt>
      <trkpt lat="45.00397" lon="4.14244">
        <ele>1209.96</ele>
        <time>2021-05-23T13:34:16Z</time>
      </trkpt>
      <trkpt lat="45.00398" lon="4.14242">
        <ele>1209.96</ele>
        <time>2021-05-23T13:34:17Z</time>
      </trkpt>
      <trkpt lat="45.00406" lon="4.14238">
        <ele>1210.92</ele>
        <time>2021-05-23T13:34:26Z</time>
      </trkpt>
      <trkpt lat="45.0041" lon="4.14233">
        <ele>1211.88</ele>
        <time>2021-05-23T13:34:39Z</time>
      </trkpt>
      <trkpt lat="45.00413" lon="4.1423">
        <ele>1212.36</ele>
        <time>2021-05-23T13:35:01Z</time>
      </trkpt>
      <trkpt lat="45.00416" lon="4.14225">
        <ele>1213.8</ele>
        <time>2021-05-23T13:35:15Z</time>
      </trkpt>
      <trkpt lat="45.00415" lon="4.14225">
        <ele>1212.84</ele>
        <time>2021-05-23T13:35:29Z</time>
      </trkpt>
      <trkpt lat="45.00418" lon="4.14219">
        <ele>1212.84</ele>
        <time>2021-05-23T13:35:34Z</time>
      </trkpt>
      <trkpt lat="45.00418" lon="4.14216">
        <ele>1213.32</ele>
        <time>2021-05-23T13:35:36Z</time>
      </trkpt>
      <trkpt lat="45.00419" lon="4.14195">
        <ele>1213.8</ele>
        <time>2021-05-23T13:35:46Z</time>
      </trkpt>
      <trkpt lat="45.00426" lon="4.14182">
        <ele>1214.28</ele>
        <time>2021-05-23T13:35:55Z</time>
      </trkpt>
      <trkpt lat="45.00428" lon="4.14179">
        <ele>1214.76</ele>
        <time>2021-05-23T13:35:58Z</time>
      </trkpt>
      <trkpt lat="45.00436" lon="4.14169">
        <ele>1215.24</ele>
        <time>2021-05-23T13:36:07Z</time>
      </trkpt>
      <trkpt lat="45.00443" lon="4.14158">
        <ele>1216.21</ele>
        <time>2021-05-23T13:36:15Z</time>
      </trkpt>
      <trkpt lat="45.00449" lon="4.14144">
        <ele>1217.65</ele>
        <time>2021-05-23T13:36:25Z</time>
      </trkpt>
      <trkpt lat="45.0045" lon="4.14137">
        <ele>1217.65</ele>
        <time>2021-05-23T13:36:31Z</time>
      </trkpt>
      <trkpt lat="45.0045" lon="4.14123">
        <ele>1218.13</ele>
        <time>2021-05-23T13:36:37Z</time>
      </trkpt>
      <trkpt lat="45.00449" lon="4.14106">
        <ele>1216.69</ele>
        <time>2021-05-23T13:36:47Z</time>
      </trkpt>
      <trkpt lat="45.00447" lon="4.14089">
        <ele>1216.69</ele>
        <time>2021-05-23T13:36:57Z</time>
      </trkpt>
      <trkpt lat="45.00444" lon="4.14073">
        <ele>1216.21</ele>
        <time>2021-05-23T13:37:06Z</time>
      </trkpt>
      <trkpt lat="45.00442" lon="4.14069">
        <ele>1215.72</ele>
        <time>2021-05-23T13:37:08Z</time>
      </trkpt>
      <trkpt lat="45.00438" lon="4.14052">
        <ele>1213.32</ele>
        <time>2021-05-23T13:37:19Z</time>
      </trkpt>
      <trkpt lat="45.00437" lon="4.14047">
        <ele>1212.84</ele>
        <time>2021-05-23T13:37:22Z</time>
      </trkpt>
      <trkpt lat="45.00436" lon="4.14032">
        <ele>1212.84</ele>
        <time>2021-05-23T13:37:30Z</time>
      </trkpt>
      <trkpt lat="45.0044" lon="4.14014">
        <ele>1210.44</ele>
        <time>2021-05-23T13:37:40Z</time>
      </trkpt>
      <trkpt lat="45.00446" lon="4.13997">
        <ele>1209.48</ele>
        <time>2021-05-23T13:37:51Z</time>
      </trkpt>
      <trkpt lat="45.00447" lon="4.13996">
        <ele>1209.48</ele>
        <time>2021-05-23T13:37:52Z</time>
      </trkpt>
      <trkpt lat="45.00451" lon="4.13974">
        <ele>1207.55</ele>
        <time>2021-05-23T13:38:03Z</time>
      </trkpt>
      <trkpt lat="45.00456" lon="4.13951">
        <ele>1205.63</ele>
        <time>2021-05-23T13:38:14Z</time>
      </trkpt>
      <trkpt lat="45.00458" lon="4.13929">
        <ele>1205.15</ele>
        <time>2021-05-23T13:38:25Z</time>
      </trkpt>
      <trkpt lat="45.00458" lon="4.1391">
        <ele>1203.23</ele>
        <time>2021-05-23T13:38:35Z</time>
      </trkpt>
      <trkpt lat="45.00457" lon="4.13894">
        <ele>1202.27</ele>
        <time>2021-05-23T13:38:43Z</time>
      </trkpt>
      <trkpt lat="45.00454" lon="4.13874">
        <ele>1200.82</ele>
        <time>2021-05-23T13:38:53Z</time>
      </trkpt>
      <trkpt lat="45.00455" lon="4.13873">
        <ele>1201.79</ele>
        <time>2021-05-23T13:38:57Z</time>
      </trkpt>
      <trkpt lat="45.00457" lon="4.1386">
        <ele>1201.3</ele>
        <time>2021-05-23T13:39:05Z</time>
      </trkpt>
      <trkpt lat="45.00459" lon="4.13847">
        <ele>1199.86</ele>
        <time>2021-05-23T13:39:14Z</time>
      </trkpt>
      <trkpt lat="45.00462" lon="4.13831">
        <ele>1197.94</ele>
        <time>2021-05-23T13:39:23Z</time>
      </trkpt>
      <trkpt lat="45.00469" lon="4.13813">
        <ele>1195.54</ele>
        <time>2021-05-23T13:39:34Z</time>
      </trkpt>
      <trkpt lat="45.00469" lon="4.13812">
        <ele>1195.54</ele>
        <time>2021-05-23T13:39:36Z</time>
      </trkpt>
      <trkpt lat="45.00473" lon="4.138">
        <ele>1194.09</ele>
        <time>2021-05-23T13:39:43Z</time>
      </trkpt>
      <trkpt lat="45.0048" lon="4.13779">
        <ele>1193.13</ele>
        <time>2021-05-23T13:39:54Z</time>
      </trkpt>
      <trkpt lat="45.00485" lon="4.13763">
        <ele>1192.17</ele>
        <time>2021-05-23T13:40:03Z</time>
      </trkpt>
      <trkpt lat="45.00489" lon="4.1375">
        <ele>1192.17</ele>
        <time>2021-05-23T13:40:12Z</time>
      </trkpt>
      <trkpt lat="45.00489" lon="4.13747">
        <ele>1191.69</ele>
        <time>2021-05-23T13:40:15Z</time>
      </trkpt>
      <trkpt lat="45.00487" lon="4.13742">
        <ele>1192.65</ele>
        <time>2021-05-23T13:40:22Z</time>
      </trkpt>
      <trkpt lat="45.00487" lon="4.13738">
        <ele>1194.09</ele>
        <time>2021-05-23T13:40:25Z</time>
      </trkpt>
      <trkpt lat="45.00485" lon="4.13735">
        <ele>1195.06</ele>
        <time>2021-05-23T13:40:28Z</time>
      </trkpt>
      <trkpt lat="45.00485" lon="4.13726">
        <ele>1195.54</ele>
        <time>2021-05-23T13:40:35Z</time>
      </trkpt>
      <trkpt lat="45.00484" lon="4.13717">
        <ele>1192.65</ele>
        <time>2021-05-23T13:40:41Z</time>
      </trkpt>
      <trkpt lat="45.00485" lon="4.13706">
        <ele>1190.25</ele>
        <time>2021-05-23T13:40:47Z</time>
      </trkpt>
      <trkpt lat="45.00489" lon="4.13686">
        <ele>1185.92</ele>
        <time>2021-05-23T13:40:59Z</time>
      </trkpt>
      <trkpt lat="45.00487" lon="4.13676">
        <ele>1184.48</ele>
        <time>2021-05-23T13:41:10Z</time>
      </trkpt>
      <trkpt lat="45.00488" lon="4.13666">
        <ele>1184</ele>
        <time>2021-05-23T13:41:22Z</time>
      </trkpt>
      <trkpt lat="45.0049" lon="4.1365">
        <ele>1182.56</ele>
        <time>2021-05-23T13:41:39Z</time>
      </trkpt>
      <trkpt lat="45.00493" lon="4.1364">
        <ele>1181.6</ele>
        <time>2021-05-23T13:41:52Z</time>
      </trkpt>
      <trkpt lat="45.00496" lon="4.1363">
        <ele>1181.12</ele>
        <time>2021-05-23T13:42:07Z</time>
      </trkpt>
      <trkpt lat="45.00496" lon="4.13611">
        <ele>1179.67</ele>
        <time>2021-05-23T13:42:22Z</time>
      </trkpt>
      <trkpt lat="45.00498" lon="4.13604">
        <ele>1177.75</ele>
        <time>2021-05-23T13:42:35Z</time>
      </trkpt>
      <trkpt lat="45.00509" lon="4.13579">
        <ele>1172.95</ele>
        <time>2021-05-23T13:42:51Z</time>
      </trkpt>
      <trkpt lat="45.00516" lon="4.13564">
        <ele>1171.5</ele>
        <time>2021-05-23T13:43:00Z</time>
      </trkpt>
      <trkpt lat="45.0052" lon="4.13559">
        <ele>1171.02</ele>
        <time>2021-05-23T13:43:04Z</time>
      </trkpt>
      <trkpt lat="45.00523" lon="4.13553">
        <ele>1170.54</ele>
        <time>2021-05-23T13:43:11Z</time>
      </trkpt>
      <trkpt lat="45.0053" lon="4.13536">
        <ele>1170.54</ele>
        <time>2021-05-23T13:43:21Z</time>
      </trkpt>
      <trkpt lat="45.00531" lon="4.13534">
        <ele>1170.06</ele>
        <time>2021-05-23T13:43:23Z</time>
      </trkpt>
      <trkpt lat="45.00537" lon="4.13515">
        <ele>1168.62</ele>
        <time>2021-05-23T13:43:34Z</time>
      </trkpt>
      <trkpt lat="45.00543" lon="4.13498">
        <ele>1167.18</ele>
        <time>2021-05-23T13:43:45Z</time>
      </trkpt>
      <trkpt lat="45.00549" lon="4.13481">
        <ele>1167.18</ele>
        <time>2021-05-23T13:43:54Z</time>
      </trkpt>
      <trkpt lat="45.00547" lon="4.13472">
        <ele>1166.7</ele>
        <time>2021-05-23T13:43:58Z</time>
      </trkpt>
      <trkpt lat="45.00537" lon="4.13456">
        <ele>1165.74</ele>
        <time>2021-05-23T13:44:08Z</time>
      </trkpt>
      <trkpt lat="45.00534" lon="4.13451">
        <ele>1164.77</ele>
        <time>2021-05-23T13:44:12Z</time>
      </trkpt>
      <trkpt lat="45.00546" lon="4.13435">
        <ele>1163.81</ele>
        <time>2021-05-23T13:44:26Z</time>
      </trkpt>
      <trkpt lat="45.00554" lon="4.13423">
        <ele>1163.33</ele>
        <time>2021-05-23T13:44:35Z</time>
      </trkpt>
      <trkpt lat="45.00555" lon="4.13421">
        <ele>1163.33</ele>
        <time>2021-05-23T13:44:36Z</time>
      </trkpt>
      <trkpt lat="45.00563" lon="4.13405">
        <ele>1163.33</ele>
        <time>2021-05-23T13:44:46Z</time>
      </trkpt>
      <trkpt lat="45.00565" lon="4.13401">
        <ele>1163.81</ele>
        <time>2021-05-23T13:44:48Z</time>
      </trkpt>
      <trkpt lat="45.00567" lon="4.13398">
        <ele>1163.33</ele>
        <time>2021-05-23T13:44:51Z</time>
      </trkpt>
      <trkpt lat="45.00569" lon="4.13391">
        <ele>1163.33</ele>
        <time>2021-05-23T13:44:55Z</time>
      </trkpt>
      <trkpt lat="45.00578" lon="4.13376">
        <ele>1161.89</ele>
        <time>2021-05-23T13:45:05Z</time>
      </trkpt>
      <trkpt lat="45.00582" lon="4.13369">
        <ele>1160.45</ele>
        <time>2021-05-23T13:45:14Z</time>
      </trkpt>
      <trkpt lat="45.00592" lon="4.13362">
        <ele>1159.97</ele>
        <time>2021-05-23T13:45:27Z</time>
      </trkpt>
      <trkpt lat="45.00607" lon="4.13355">
        <ele>1158.53</ele>
        <time>2021-05-23T13:45:39Z</time>
      </trkpt>
      <trkpt lat="45.00623" lon="4.13348">
        <ele>1157.56</ele>
        <time>2021-05-23T13:45:52Z</time>
      </trkpt>
      <trkpt lat="45.00636" lon="4.13343">
        <ele>1157.08</ele>
        <time>2021-05-23T13:46:03Z</time>
      </trkpt>
      <trkpt lat="45.00648" lon="4.13336">
        <ele>1157.08</ele>
        <time>2021-05-23T13:46:12Z</time>
      </trkpt>
      <trkpt lat="45.00658" lon="4.13329">
        <ele>1159.97</ele>
        <time>2021-05-23T13:46:23Z</time>
      </trkpt>
      <trkpt lat="45.00676" lon="4.13307">
        <ele>1162.85</ele>
        <time>2021-05-23T13:46:41Z</time>
      </trkpt>
      <trkpt lat="45.00688" lon="4.13281">
        <ele>1164.29</ele>
        <time>2021-05-23T13:46:58Z</time>
      </trkpt>
      <trkpt lat="45.00693" lon="4.13246">
        <ele>1164.29</ele>
        <time>2021-05-23T13:47:17Z</time>
      </trkpt>
      <trkpt lat="45.00693" lon="4.1324">
        <ele>1163.81</ele>
        <time>2021-05-23T13:47:21Z</time>
      </trkpt>
      <trkpt lat="45.00692" lon="4.13212">
        <ele>1161.41</ele>
        <time>2021-05-23T13:47:33Z</time>
      </trkpt>
      <trkpt lat="45.0069" lon="4.132">
        <ele>1159.97</ele>
        <time>2021-05-23T13:47:40Z</time>
      </trkpt>
      <trkpt lat="45.00689" lon="4.13181">
        <ele>1159.97</ele>
        <time>2021-05-23T13:47:51Z</time>
      </trkpt>
      <trkpt lat="45.00688" lon="4.13161">
        <ele>1160.93</ele>
        <time>2021-05-23T13:48:01Z</time>
      </trkpt>
      <trkpt lat="45.00685" lon="4.13145">
        <ele>1161.89</ele>
        <time>2021-05-23T13:48:11Z</time>
      </trkpt>
      <trkpt lat="45.00683" lon="4.13125">
        <ele>1161.89</ele>
        <time>2021-05-23T13:48:21Z</time>
      </trkpt>
      <trkpt lat="45.0068" lon="4.13105">
        <ele>1161.41</ele>
        <time>2021-05-23T13:48:31Z</time>
      </trkpt>
      <trkpt lat="45.00678" lon="4.13083">
        <ele>1160.93</ele>
        <time>2021-05-23T13:48:43Z</time>
      </trkpt>
      <trkpt lat="45.00676" lon="4.13064">
        <ele>1162.85</ele>
        <time>2021-05-23T13:48:52Z</time>
      </trkpt>
      <trkpt lat="45.00677" lon="4.13061">
        <ele>1162.85</ele>
        <time>2021-05-23T13:48:54Z</time>
      </trkpt>
      <trkpt lat="45.00675" lon="4.13047">
        <ele>1163.33</ele>
        <time>2021-05-23T13:49:00Z</time>
      </trkpt>
      <trkpt lat="45.00674" lon="4.13025">
        <ele>1164.29</ele>
        <time>2021-05-23T13:49:12Z</time>
      </trkpt>
      <trkpt lat="45.00674" lon="4.13024">
        <ele>1164.29</ele>
        <time>2021-05-23T13:49:13Z</time>
      </trkpt>
      <trkpt lat="45.00672" lon="4.13002">
        <ele>1165.26</ele>
        <time>2021-05-23T13:49:25Z</time>
      </trkpt>
      <trkpt lat="45.00669" lon="4.12983">
        <ele>1167.18</ele>
        <time>2021-05-23T13:49:33Z</time>
      </trkpt>
      <trkpt lat="45.00669" lon="4.12972">
        <ele>1168.14</ele>
        <time>2021-05-23T13:49:39Z</time>
      </trkpt>
      <trkpt lat="45.00664" lon="4.12947">
        <ele>1168.14</ele>
        <time>2021-05-23T13:49:52Z</time>
      </trkpt>
      <trkpt lat="45.00664" lon="4.12939">
        <ele>1168.14</ele>
        <time>2021-05-23T13:49:57Z</time>
      </trkpt>
      <trkpt lat="45.00662" lon="4.12922">
        <ele>1168.62</ele>
        <time>2021-05-23T13:50:05Z</time>
      </trkpt>
      <trkpt lat="45.00659" lon="4.129">
        <ele>1169.1</ele>
        <time>2021-05-23T13:50:18Z</time>
      </trkpt>
      <trkpt lat="45.00653" lon="4.12879">
        <ele>1169.58</ele>
        <time>2021-05-23T13:50:28Z</time>
      </trkpt>
      <trkpt lat="45.00647" lon="4.12862">
        <ele>1167.66</ele>
        <time>2021-05-23T13:50:38Z</time>
      </trkpt>
      <trkpt lat="45.00642" lon="4.12844">
        <ele>1166.22</ele>
        <time>2021-05-23T13:50:50Z</time>
      </trkpt>
      <trkpt lat="45.00635" lon="4.12824">
        <ele>1165.26</ele>
        <time>2021-05-23T13:51:01Z</time>
      </trkpt>
      <trkpt lat="45.00628" lon="4.12805">
        <ele>1164.77</ele>
        <time>2021-05-23T13:51:12Z</time>
      </trkpt>
      <trkpt lat="45.00618" lon="4.12769">
        <ele>1163.33</ele>
        <time>2021-05-23T13:51:32Z</time>
      </trkpt>
      <trkpt lat="45.00609" lon="4.12737">
        <ele>1162.37</ele>
        <time>2021-05-23T13:51:50Z</time>
      </trkpt>
      <trkpt lat="45.00603" lon="4.12709">
        <ele>1161.89</ele>
        <time>2021-05-23T13:52:07Z</time>
      </trkpt>
      <trkpt lat="45.00602" lon="4.12692">
        <ele>1162.85</ele>
        <time>2021-05-23T13:52:17Z</time>
      </trkpt>
      <trkpt lat="45.00597" lon="4.1267">
        <ele>1161.41</ele>
        <time>2021-05-23T13:52:29Z</time>
      </trkpt>
      <trkpt lat="45.00595" lon="4.12646">
        <ele>1160.93</ele>
        <time>2021-05-23T13:52:40Z</time>
      </trkpt>
      <trkpt lat="45.00594" lon="4.12639">
        <ele>1160.93</ele>
        <time>2021-05-23T13:52:45Z</time>
      </trkpt>
      <trkpt lat="45.00589" lon="4.12616">
        <ele>1158.53</ele>
        <time>2021-05-23T13:53:00Z</time>
      </trkpt>
      <trkpt lat="45.00589" lon="4.12614">
        <ele>1158.53</ele>
        <time>2021-05-23T13:53:01Z</time>
      </trkpt>
      <trkpt lat="45.00586" lon="4.126">
        <ele>1156.6</ele>
        <time>2021-05-23T13:53:11Z</time>
      </trkpt>
      <trkpt lat="45.00574" lon="4.12561">
        <ele>1155.16</ele>
        <time>2021-05-23T13:53:32Z</time>
      </trkpt>
      <trkpt lat="45.00565" lon="4.12526">
        <ele>1158.05</ele>
        <time>2021-05-23T13:53:51Z</time>
      </trkpt>
      <trkpt lat="45.00562" lon="4.12511">
        <ele>1158.05</ele>
        <time>2021-05-23T13:53:59Z</time>
      </trkpt>
      <trkpt lat="45.00559" lon="4.12497">
        <ele>1157.56</ele>
        <time>2021-05-23T13:54:07Z</time>
      </trkpt>
      <trkpt lat="45.00558" lon="4.12488">
        <ele>1158.05</ele>
        <time>2021-05-23T13:54:13Z</time>
      </trkpt>
      <trkpt lat="45.00556" lon="4.12479">
        <ele>1158.53</ele>
        <time>2021-05-23T13:54:17Z</time>
      </trkpt>
      <trkpt lat="45.00548" lon="4.12456">
        <ele>1159.01</ele>
        <time>2021-05-23T13:54:29Z</time>
      </trkpt>
      <trkpt lat="45.00548" lon="4.12451">
        <ele>1158.53</ele>
        <time>2021-05-23T13:54:32Z</time>
      </trkpt>
      <trkpt lat="45.00548" lon="4.12447">
        <ele>1158.53</ele>
        <time>2021-05-23T13:54:35Z</time>
      </trkpt>
      <trkpt lat="45.00541" lon="4.12425">
        <ele>1158.53</ele>
        <time>2021-05-23T13:54:47Z</time>
      </trkpt>
      <trkpt lat="45.00538" lon="4.12408">
        <ele>1157.56</ele>
        <time>2021-05-23T13:54:56Z</time>
      </trkpt>
      <trkpt lat="45.00534" lon="4.12393">
        <ele>1157.08</ele>
        <time>2021-05-23T13:55:06Z</time>
      </trkpt>
      <trkpt lat="45.00531" lon="4.12378">
        <ele>1156.6</ele>
        <time>2021-05-23T13:55:15Z</time>
      </trkpt>
      <trkpt lat="45.00528" lon="4.12354">
        <ele>1156.6</ele>
        <time>2021-05-23T13:55:26Z</time>
      </trkpt>
      <trkpt lat="45.00525" lon="4.1234">
        <ele>1156.12</ele>
        <time>2021-05-23T13:55:36Z</time>
      </trkpt>
      <trkpt lat="45.00522" lon="4.12322">
        <ele>1154.68</ele>
        <time>2021-05-23T13:55:45Z</time>
      </trkpt>
      <trkpt lat="45.00517" lon="4.12298">
        <ele>1152.28</ele>
        <time>2021-05-23T13:55:57Z</time>
      </trkpt>
      <trkpt lat="45.00514" lon="4.12278">
        <ele>1151.8</ele>
        <time>2021-05-23T13:56:08Z</time>
      </trkpt>
      <trkpt lat="45.00511" lon="4.1226">
        <ele>1151.8</ele>
        <time>2021-05-23T13:56:19Z</time>
      </trkpt>
      <trkpt lat="45.00508" lon="4.12242">
        <ele>1150.84</ele>
        <time>2021-05-23T13:56:29Z</time>
      </trkpt>
      <trkpt lat="45.00507" lon="4.12242">
        <ele>1150.84</ele>
        <time>2021-05-23T13:56:30Z</time>
      </trkpt>
      <trkpt lat="45.00501" lon="4.12209">
        <ele>1150.35</ele>
        <time>2021-05-23T13:56:47Z</time>
      </trkpt>
      <trkpt lat="45.00496" lon="4.1219">
        <ele>1148.43</ele>
        <time>2021-05-23T13:56:57Z</time>
      </trkpt>
      <trkpt lat="45.00493" lon="4.12175">
        <ele>1146.03</ele>
        <time>2021-05-23T13:57:06Z</time>
      </trkpt>
      <trkpt lat="45.00491" lon="4.12163">
        <ele>1143.14</ele>
        <time>2021-05-23T13:57:22Z</time>
      </trkpt>
      <trkpt lat="45.00494" lon="4.12164">
        <ele>1142.66</ele>
        <time>2021-05-23T13:57:39Z</time>
      </trkpt>
      <trkpt lat="45.00495" lon="4.12164">
        <ele>1144.59</ele>
        <time>2021-05-23T13:57:50Z</time>
      </trkpt>
      <trkpt lat="45.00503" lon="4.12165">
        <ele>1145.07</ele>
        <time>2021-05-23T13:57:59Z</time>
      </trkpt>
      <trkpt lat="45.00512" lon="4.12167">
        <ele>1146.03</ele>
        <time>2021-05-23T13:58:06Z</time>
      </trkpt>
      <trkpt lat="45.00516" lon="4.12169">
        <ele>1146.51</ele>
        <time>2021-05-23T13:58:10Z</time>
      </trkpt>
      <trkpt lat="45.00529" lon="4.12174">
        <ele>1147.47</ele>
        <time>2021-05-23T13:58:20Z</time>
      </trkpt>
      <trkpt lat="45.00544" lon="4.1218">
        <ele>1149.87</ele>
        <time>2021-05-23T13:58:31Z</time>
      </trkpt>
      <trkpt lat="45.00564" lon="4.12189">
        <ele>1147.95</ele>
        <time>2021-05-23T13:58:45Z</time>
      </trkpt>
      <trkpt lat="45.00577" lon="4.12199">
        <ele>1146.51</ele>
        <time>2021-05-23T13:58:57Z</time>
      </trkpt>
      <trkpt lat="45.00589" lon="4.12204">
        <ele>1145.55</ele>
        <time>2021-05-23T13:59:07Z</time>
      </trkpt>
      <trkpt lat="45.00608" lon="4.12213">
        <ele>1144.59</ele>
        <time>2021-05-23T13:59:22Z</time>
      </trkpt>
      <trkpt lat="45.00614" lon="4.12216">
        <ele>1143.14</ele>
        <time>2021-05-23T13:59:28Z</time>
      </trkpt>
      <trkpt lat="45.00632" lon="4.12232">
        <ele>1138.34</ele>
        <time>2021-05-23T13:59:45Z</time>
      </trkpt>
      <trkpt lat="45.00648" lon="4.12247">
        <ele>1134.49</ele>
        <time>2021-05-23T14:00:00Z</time>
      </trkpt>
      <trkpt lat="45.00659" lon="4.12265">
        <ele>1133.53</ele>
        <time>2021-05-23T14:00:12Z</time>
      </trkpt>
      <trkpt lat="45.00668" lon="4.12286">
        <ele>1128.24</ele>
        <time>2021-05-23T14:00:26Z</time>
      </trkpt>
      <trkpt lat="45.00669" lon="4.1229">
        <ele>1127.28</ele>
        <time>2021-05-23T14:00:29Z</time>
      </trkpt>
      <trkpt lat="45.00683" lon="4.12304">
        <ele>1123.92</ele>
        <time>2021-05-23T14:00:43Z</time>
      </trkpt>
      <trkpt lat="45.00688" lon="4.12305">
        <ele>1122.96</ele>
        <time>2021-05-23T14:00:48Z</time>
      </trkpt>
      <trkpt lat="45.00704" lon="4.12313">
        <ele>1122.96</ele>
        <time>2021-05-23T14:01:01Z</time>
      </trkpt>
      <trkpt lat="45.00706" lon="4.12313">
        <ele>1123.44</ele>
        <time>2021-05-23T14:01:04Z</time>
      </trkpt>
      <trkpt lat="45.00719" lon="4.12315">
        <ele>1123.44</ele>
        <time>2021-05-23T14:01:17Z</time>
      </trkpt>
      <trkpt lat="45.00735" lon="4.12323">
        <ele>1120.55</ele>
        <time>2021-05-23T14:01:31Z</time>
      </trkpt>
      <trkpt lat="45.00744" lon="4.12329">
        <ele>1119.11</ele>
        <time>2021-05-23T14:01:43Z</time>
      </trkpt>
      <trkpt lat="45.00745" lon="4.12331">
        <ele>1118.15</ele>
        <time>2021-05-23T14:01:45Z</time>
      </trkpt>
      <trkpt lat="45.00756" lon="4.12344">
        <ele>1117.19</ele>
        <time>2021-05-23T14:01:54Z</time>
      </trkpt>
      <trkpt lat="45.00763" lon="4.1236">
        <ele>1117.19</ele>
        <time>2021-05-23T14:02:04Z</time>
      </trkpt>
      <trkpt lat="45.00778" lon="4.12369">
        <ele>1122</ele>
        <time>2021-05-23T14:02:18Z</time>
      </trkpt>
      <trkpt lat="45.00794" lon="4.12383">
        <ele>1123.44</ele>
        <time>2021-05-23T14:02:31Z</time>
      </trkpt>
      <trkpt lat="45.00804" lon="4.12399">
        <ele>1122</ele>
        <time>2021-05-23T14:02:44Z</time>
      </trkpt>
      <trkpt lat="45.00816" lon="4.12423">
        <ele>1119.59</ele>
        <time>2021-05-23T14:02:59Z</time>
      </trkpt>
      <trkpt lat="45.00825" lon="4.12448">
        <ele>1117.67</ele>
        <time>2021-05-23T14:03:12Z</time>
      </trkpt>
      <trkpt lat="45.00834" lon="4.12462">
        <ele>1115.27</ele>
        <time>2021-05-23T14:03:23Z</time>
      </trkpt>
      <trkpt lat="45.00837" lon="4.1246">
        <ele>1114.31</ele>
        <time>2021-05-23T14:03:31Z</time>
      </trkpt>
      <trkpt lat="45.00837" lon="4.12459">
        <ele>1113.82</ele>
        <time>2021-05-23T14:03:36Z</time>
      </trkpt>
      <trkpt lat="45.0084" lon="4.12453">
        <ele>1112.86</ele>
        <time>2021-05-23T14:03:42Z</time>
      </trkpt>
      <trkpt lat="45.00846" lon="4.12433">
        <ele>1111.42</ele>
        <time>2021-05-23T14:03:57Z</time>
      </trkpt>
      <trkpt lat="45.00846" lon="4.12426">
        <ele>1109.98</ele>
        <time>2021-05-23T14:04:04Z</time>
      </trkpt>
      <trkpt lat="45.00844" lon="4.12408">
        <ele>1106.13</ele>
        <time>2021-05-23T14:04:18Z</time>
      </trkpt>
      <trkpt lat="45.00844" lon="4.12399">
        <ele>1105.17</ele>
        <time>2021-05-23T14:04:25Z</time>
      </trkpt>
      <trkpt lat="45.00844" lon="4.12394">
        <ele>1105.17</ele>
        <time>2021-05-23T14:04:30Z</time>
      </trkpt>
      <trkpt lat="45.00837" lon="4.12371">
        <ele>1104.21</ele>
        <time>2021-05-23T14:04:43Z</time>
      </trkpt>
      <trkpt lat="45.0083" lon="4.12348">
        <ele>1097.96</ele>
        <time>2021-05-23T14:04:56Z</time>
      </trkpt>
      <trkpt lat="45.00825" lon="4.12333">
        <ele>1095.08</ele>
        <time>2021-05-23T14:05:08Z</time>
      </trkpt>
      <trkpt lat="45.00825" lon="4.1233">
        <ele>1094.6</ele>
        <time>2021-05-23T14:05:12Z</time>
      </trkpt>
      <trkpt lat="45.0083" lon="4.12314">
        <ele>1092.2</ele>
        <time>2021-05-23T14:05:22Z</time>
      </trkpt>
      <trkpt lat="45.00832" lon="4.12315">
        <ele>1091.71</ele>
        <time>2021-05-23T14:05:26Z</time>
      </trkpt>
      <trkpt lat="45.00845" lon="4.12324">
        <ele>1089.79</ele>
        <time>2021-05-23T14:05:40Z</time>
      </trkpt>
      <trkpt lat="45.00857" lon="4.12334">
        <ele>1084.99</ele>
        <time>2021-05-23T14:05:51Z</time>
      </trkpt>
      <trkpt lat="45.0087" lon="4.12343">
        <ele>1081.62</ele>
        <time>2021-05-23T14:06:01Z</time>
      </trkpt>
      <trkpt lat="45.00882" lon="4.12349">
        <ele>1078.26</ele>
        <time>2021-05-23T14:06:12Z</time>
      </trkpt>
      <trkpt lat="45.00897" lon="4.1235">
        <ele>1080.66</ele>
        <time>2021-05-23T14:06:25Z</time>
      </trkpt>
      <trkpt lat="45.00904" lon="4.12352">
        <ele>1081.62</ele>
        <time>2021-05-23T14:06:32Z</time>
      </trkpt>
      <trkpt lat="45.00919" lon="4.12351">
        <ele>1083.06</ele>
        <time>2021-05-23T14:06:44Z</time>
      </trkpt>
      <trkpt lat="45.00932" lon="4.12356">
        <ele>1083.06</ele>
        <time>2021-05-23T14:06:54Z</time>
      </trkpt>
      <trkpt lat="45.00947" lon="4.12364">
        <ele>1082.58</ele>
        <time>2021-05-23T14:07:05Z</time>
      </trkpt>
      <trkpt lat="45.0096" lon="4.12375">
        <ele>1082.58</ele>
        <time>2021-05-23T14:07:17Z</time>
      </trkpt>
      <trkpt lat="45.00973" lon="4.12383">
        <ele>1080.66</ele>
        <time>2021-05-23T14:07:29Z</time>
      </trkpt>
      <trkpt lat="45.00974" lon="4.12383">
        <ele>1080.66</ele>
        <time>2021-05-23T14:07:30Z</time>
      </trkpt>
      <trkpt lat="45.00979" lon="4.12384">
        <ele>1080.18</ele>
        <time>2021-05-23T14:07:35Z</time>
      </trkpt>
      <trkpt lat="45.01006" lon="4.12387">
        <ele>1075.85</ele>
        <time>2021-05-23T14:07:56Z</time>
      </trkpt>
      <trkpt lat="45.01028" lon="4.1239">
        <ele>1071.05</ele>
        <time>2021-05-23T14:08:14Z</time>
      </trkpt>
      <trkpt lat="45.01046" lon="4.12403">
        <ele>1069.6</ele>
        <time>2021-05-23T14:08:32Z</time>
      </trkpt>
      <trkpt lat="45.01048" lon="4.1241">
        <ele>1069.12</ele>
        <time>2021-05-23T14:08:47Z</time>
      </trkpt>
      <trkpt lat="45.01051" lon="4.12414">
        <ele>1068.16</ele>
        <time>2021-05-23T14:09:07Z</time>
      </trkpt>
      <trkpt lat="45.01053" lon="4.12418">
        <ele>1067.68</ele>
        <time>2021-05-23T14:09:10Z</time>
      </trkpt>
      <trkpt lat="45.01058" lon="4.12426">
        <ele>1066.72</ele>
        <time>2021-05-23T14:09:16Z</time>
      </trkpt>
      <trkpt lat="45.01071" lon="4.12454">
        <ele>1064.32</ele>
        <time>2021-05-23T14:09:33Z</time>
      </trkpt>
      <trkpt lat="45.0108" lon="4.12475">
        <ele>1063.84</ele>
        <time>2021-05-23T14:09:47Z</time>
      </trkpt>
      <trkpt lat="45.01091" lon="4.12497">
        <ele>1061.91</ele>
        <time>2021-05-23T14:10:04Z</time>
      </trkpt>
      <trkpt lat="45.01101" lon="4.12516">
        <ele>1059.99</ele>
        <time>2021-05-23T14:10:20Z</time>
      </trkpt>
      <trkpt lat="45.01106" lon="4.1252">
        <ele>1059.03</ele>
        <time>2021-05-23T14:10:26Z</time>
      </trkpt>
      <trkpt lat="45.01127" lon="4.1252">
        <ele>1057.59</ele>
        <time>2021-05-23T14:10:42Z</time>
      </trkpt>
      <trkpt lat="45.01134" lon="4.12519">
        <ele>1057.11</ele>
        <time>2021-05-23T14:10:48Z</time>
      </trkpt>
      <trkpt lat="45.01149" lon="4.12524">
        <ele>1056.63</ele>
        <time>2021-05-23T14:11:01Z</time>
      </trkpt>
      <trkpt lat="45.01162" lon="4.12537">
        <ele>1057.59</ele>
        <time>2021-05-23T14:11:14Z</time>
      </trkpt>
      <trkpt lat="45.0117" lon="4.1255">
        <ele>1057.59</ele>
        <time>2021-05-23T14:11:26Z</time>
      </trkpt>
      <trkpt lat="45.01179" lon="4.12559">
        <ele>1059.03</ele>
        <time>2021-05-23T14:11:35Z</time>
      </trkpt>
      <trkpt lat="45.01189" lon="4.12567">
        <ele>1060.47</ele>
        <time>2021-05-23T14:11:45Z</time>
      </trkpt>
      <trkpt lat="45.01199" lon="4.12571">
        <ele>1059.99</ele>
        <time>2021-05-23T14:11:55Z</time>
      </trkpt>
      <trkpt lat="45.01203" lon="4.1257">
        <ele>1059.99</ele>
        <time>2021-05-23T14:12:00Z</time>
      </trkpt>
      <trkpt lat="45.01216" lon="4.12572">
        <ele>1059.03</ele>
        <time>2021-05-23T14:12:11Z</time>
      </trkpt>
      <trkpt lat="45.01224" lon="4.12573">
        <ele>1059.51</ele>
        <time>2021-05-23T14:12:19Z</time>
      </trkpt>
      <trkpt lat="45.01231" lon="4.12572">
        <ele>1059.99</ele>
        <time>2021-05-23T14:12:26Z</time>
      </trkpt>
      <trkpt lat="45.0124" lon="4.12562">
        <ele>1059.51</ele>
        <time>2021-05-23T14:12:35Z</time>
      </trkpt>
      <trkpt lat="45.01248" lon="4.12551">
        <ele>1055.67</ele>
        <time>2021-05-23T14:12:43Z</time>
      </trkpt>
      <trkpt lat="45.01257" lon="4.12539">
        <ele>1053.26</ele>
        <time>2021-05-23T14:12:54Z</time>
      </trkpt>
      <trkpt lat="45.01266" lon="4.12531">
        <ele>1051.34</ele>
        <time>2021-05-23T14:13:02Z</time>
      </trkpt>
      <trkpt lat="45.01267" lon="4.1253">
        <ele>1050.38</ele>
        <time>2021-05-23T14:13:04Z</time>
      </trkpt>
      <trkpt lat="45.01278" lon="4.12525">
        <ele>1048.45</ele>
        <time>2021-05-23T14:13:17Z</time>
      </trkpt>
      <trkpt lat="45.01279" lon="4.12524">
        <ele>1046.53</ele>
        <time>2021-05-23T14:13:41Z</time>
      </trkpt>
      <trkpt lat="45.0128" lon="4.12524">
        <ele>1046.53</ele>
        <time>2021-05-23T14:14:04Z</time>
      </trkpt>
      <trkpt lat="45.0128" lon="4.12524">
        <ele>1046.53</ele>
        <time>2021-05-23T14:14:05Z</time>
      </trkpt>
      <trkpt lat="45.01284" lon="4.12523">
        <ele>1049.42</ele>
        <time>2021-05-23T14:14:10Z</time>
      </trkpt>
      <trkpt lat="45.01289" lon="4.12523">
        <ele>1052.78</ele>
        <time>2021-05-23T14:14:15Z</time>
      </trkpt>
      <trkpt lat="45.01299" lon="4.12526">
        <ele>1057.59</ele>
        <time>2021-05-23T14:14:23Z</time>
      </trkpt>
      <trkpt lat="45.01314" lon="4.12525">
        <ele>1060.95</ele>
        <time>2021-05-23T14:14:35Z</time>
      </trkpt>
      <trkpt lat="45.01323" lon="4.12522">
        <ele>1061.91</ele>
        <time>2021-05-23T14:14:43Z</time>
      </trkpt>
      <trkpt lat="45.01326" lon="4.1252">
        <ele>1062.39</ele>
        <time>2021-05-23T14:14:45Z</time>
      </trkpt>
      <trkpt lat="45.01334" lon="4.12513">
        <ele>1062.39</ele>
        <time>2021-05-23T14:14:56Z</time>
      </trkpt>
      <trkpt lat="45.01338" lon="4.12512">
        <ele>1062.39</ele>
        <time>2021-05-23T14:15:00Z</time>
      </trkpt>
      <trkpt lat="45.01351" lon="4.12513">
        <ele>1061.43</ele>
        <time>2021-05-23T14:15:10Z</time>
      </trkpt>
      <trkpt lat="45.01361" lon="4.12517">
        <ele>1061.91</ele>
        <time>2021-05-23T14:15:19Z</time>
      </trkpt>
      <trkpt lat="45.01373" lon="4.12529">
        <ele>1062.39</ele>
        <time>2021-05-23T14:15:30Z</time>
      </trkpt>
      <trkpt lat="45.01382" lon="4.12537">
        <ele>1062.39</ele>
        <time>2021-05-23T14:15:39Z</time>
      </trkpt>
      <trkpt lat="45.01387" lon="4.12541">
        <ele>1061.91</ele>
        <time>2021-05-23T14:15:44Z</time>
      </trkpt>
      <trkpt lat="45.01391" lon="4.12541">
        <ele>1062.39</ele>
        <time>2021-05-23T14:15:48Z</time>
      </trkpt>
      <trkpt lat="45.01394" lon="4.1254">
        <ele>1059.51</ele>
        <time>2021-05-23T14:15:58Z</time>
      </trkpt>
      <trkpt lat="45.01395" lon="4.12537">
        <ele>1057.59</ele>
        <time>2021-05-23T14:16:10Z</time>
      </trkpt>
      <trkpt lat="45.01395" lon="4.12538">
        <ele>1057.59</ele>
        <time>2021-05-23T14:16:17Z</time>
      </trkpt>
      <trkpt lat="45.014" lon="4.12552">
        <ele>1057.11</ele>
        <time>2021-05-23T14:16:30Z</time>
      </trkpt>
      <trkpt lat="45.0141" lon="4.12563">
        <ele>1059.51</ele>
        <time>2021-05-23T14:16:42Z</time>
      </trkpt>
      <trkpt lat="45.01419" lon="4.12572">
        <ele>1060.95</ele>
        <time>2021-05-23T14:16:52Z</time>
      </trkpt>
      <trkpt lat="45.01426" lon="4.12584">
        <ele>1061.91</ele>
        <time>2021-05-23T14:17:01Z</time>
      </trkpt>
      <trkpt lat="45.01429" lon="4.1259">
        <ele>1062.39</ele>
        <time>2021-05-23T14:17:06Z</time>
      </trkpt>
      <trkpt lat="45.01434" lon="4.12595">
        <ele>1060.95</ele>
        <time>2021-05-23T14:17:16Z</time>
      </trkpt>
      <trkpt lat="45.01436" lon="4.12596">
        <ele>1061.91</ele>
        <time>2021-05-23T14:17:27Z</time>
      </trkpt>
      <trkpt lat="45.01449" lon="4.12594">
        <ele>1062.39</ele>
        <time>2021-05-23T14:17:39Z</time>
      </trkpt>
      <trkpt lat="45.01456" lon="4.12589">
        <ele>1063.36</ele>
        <time>2021-05-23T14:17:47Z</time>
      </trkpt>
      <trkpt lat="45.01466" lon="4.12594">
        <ele>1065.28</ele>
        <time>2021-05-23T14:17:57Z</time>
      </trkpt>
      <trkpt lat="45.01475" lon="4.12601">
        <ele>1068.16</ele>
        <time>2021-05-23T14:18:07Z</time>
      </trkpt>
      <trkpt lat="45.01485" lon="4.12616">
        <ele>1071.05</ele>
        <time>2021-05-23T14:18:17Z</time>
      </trkpt>
      <trkpt lat="45.01492" lon="4.12628">
        <ele>1071.53</ele>
        <time>2021-05-23T14:18:25Z</time>
      </trkpt>
      <trkpt lat="45.01503" lon="4.12641">
        <ele>1072.01</ele>
        <time>2021-05-23T14:18:36Z</time>
      </trkpt>
      <trkpt lat="45.01513" lon="4.12651">
        <ele>1073.93</ele>
        <time>2021-05-23T14:18:46Z</time>
      </trkpt>
      <trkpt lat="45.01525" lon="4.12661">
        <ele>1076.81</ele>
        <time>2021-05-23T14:18:56Z</time>
      </trkpt>
      <trkpt lat="45.01537" lon="4.12667">
        <ele>1078.74</ele>
        <time>2021-05-23T14:19:06Z</time>
      </trkpt>
      <trkpt lat="45.01551" lon="4.1268">
        <ele>1078.26</ele>
        <time>2021-05-23T14:19:16Z</time>
      </trkpt>
      <trkpt lat="45.01561" lon="4.1269">
        <ele>1077.78</ele>
        <time>2021-05-23T14:19:26Z</time>
      </trkpt>
      <trkpt lat="45.01572" lon="4.12701">
        <ele>1078.74</ele>
        <time>2021-05-23T14:19:36Z</time>
      </trkpt>
      <trkpt lat="45.01582" lon="4.12712">
        <ele>1080.66</ele>
        <time>2021-05-23T14:19:47Z</time>
      </trkpt>
      <trkpt lat="45.01599" lon="4.12724">
        <ele>1083.06</ele>
        <time>2021-05-23T14:19:59Z</time>
      </trkpt>
      <trkpt lat="45.01614" lon="4.1273">
        <ele>1085.47</ele>
        <time>2021-05-23T14:20:10Z</time>
      </trkpt>
      <trkpt lat="45.0163" lon="4.12733">
        <ele>1087.39</ele>
        <time>2021-05-23T14:20:25Z</time>
      </trkpt>
      <trkpt lat="45.01642" lon="4.12736">
        <ele>1088.35</ele>
        <time>2021-05-23T14:20:35Z</time>
      </trkpt>
      <trkpt lat="45.01657" lon="4.12743">
        <ele>1088.83</ele>
        <time>2021-05-23T14:20:46Z</time>
      </trkpt>
      <trkpt lat="45.01673" lon="4.12745">
        <ele>1090.27</ele>
        <time>2021-05-23T14:20:59Z</time>
      </trkpt>
      <trkpt lat="45.01693" lon="4.12741">
        <ele>1090.75</ele>
        <time>2021-05-23T14:21:12Z</time>
      </trkpt>
      <trkpt lat="45.01706" lon="4.12739">
        <ele>1090.27</ele>
        <time>2021-05-23T14:21:22Z</time>
      </trkpt>
      <trkpt lat="45.01719" lon="4.12738">
        <ele>1090.75</ele>
        <time>2021-05-23T14:21:32Z</time>
      </trkpt>
      <trkpt lat="45.01732" lon="4.12736">
        <ele>1090.27</ele>
        <time>2021-05-23T14:21:42Z</time>
      </trkpt>
      <trkpt lat="45.01738" lon="4.12735">
        <ele>1090.27</ele>
        <time>2021-05-23T14:21:47Z</time>
      </trkpt>
      <trkpt lat="45.0175" lon="4.12728">
        <ele>1090.75</ele>
        <time>2021-05-23T14:21:57Z</time>
      </trkpt>
      <trkpt lat="45.01754" lon="4.12726">
        <ele>1090.75</ele>
        <time>2021-05-23T14:22:01Z</time>
      </trkpt>
      <trkpt lat="45.0176" lon="4.12721">
        <ele>1091.23</ele>
        <time>2021-05-23T14:22:07Z</time>
      </trkpt>
      <trkpt lat="45.01768" lon="4.12713">
        <ele>1091.23</ele>
        <time>2021-05-23T14:22:19Z</time>
      </trkpt>
      <trkpt lat="45.01771" lon="4.1271">
        <ele>1091.71</ele>
        <time>2021-05-23T14:22:25Z</time>
      </trkpt>
      <trkpt lat="45.01771" lon="4.12706">
        <ele>1092.2</ele>
        <time>2021-05-23T14:22:29Z</time>
      </trkpt>
      <trkpt lat="45.0177" lon="4.12702">
        <ele>1093.16</ele>
        <time>2021-05-23T14:22:34Z</time>
      </trkpt>
      <trkpt lat="45.01777" lon="4.12687">
        <ele>1096.04</ele>
        <time>2021-05-23T14:22:45Z</time>
      </trkpt>
      <trkpt lat="45.01782" lon="4.12674">
        <ele>1098.44</ele>
        <time>2021-05-23T14:22:56Z</time>
      </trkpt>
      <trkpt lat="45.01784" lon="4.12669">
        <ele>1098.92</ele>
        <time>2021-05-23T14:23:00Z</time>
      </trkpt>
      <trkpt lat="45.01792" lon="4.12665">
        <ele>1102.29</ele>
        <time>2021-05-23T14:23:21Z</time>
      </trkpt>
      <trkpt lat="45.01792" lon="4.12665">
        <ele>1101.33</ele>
        <time>2021-05-23T14:23:45Z</time>
      </trkpt>
      <trkpt lat="45.01793" lon="4.12665">
        <ele>1100.37</ele>
        <time>2021-05-23T14:24:10Z</time>
      </trkpt>
      <trkpt lat="45.018" lon="4.12659">
        <ele>1100.37</ele>
        <time>2021-05-23T14:24:29Z</time>
      </trkpt>
      <trkpt lat="45.01818" lon="4.12651">
        <ele>1101.33</ele>
        <time>2021-05-23T14:24:47Z</time>
      </trkpt>
      <trkpt lat="45.01845" lon="4.12649">
        <ele>1101.33</ele>
        <time>2021-05-23T14:25:09Z</time>
      </trkpt>
      <trkpt lat="45.01846" lon="4.12649">
        <ele>1101.33</ele>
        <time>2021-05-23T14:25:10Z</time>
      </trkpt>
      <trkpt lat="45.01857" lon="4.12646">
        <ele>1101.81</ele>
        <time>2021-05-23T14:25:19Z</time>
      </trkpt>
      <trkpt lat="45.01873" lon="4.12639">
        <ele>1101.81</ele>
        <time>2021-05-23T14:25:34Z</time>
      </trkpt>
      <trkpt lat="45.01891" lon="4.12628">
        <ele>1100.37</ele>
        <time>2021-05-23T14:25:51Z</time>
      </trkpt>
      <trkpt lat="45.01905" lon="4.1262">
        <ele>1103.25</ele>
        <time>2021-05-23T14:26:01Z</time>
      </trkpt>
      <trkpt lat="45.01914" lon="4.12614">
        <ele>1104.69</ele>
        <time>2021-05-23T14:26:11Z</time>
      </trkpt>
      <trkpt lat="45.0193" lon="4.12604">
        <ele>1106.61</ele>
        <time>2021-05-23T14:26:25Z</time>
      </trkpt>
      <trkpt lat="45.01946" lon="4.12593">
        <ele>1109.98</ele>
        <time>2021-05-23T14:26:40Z</time>
      </trkpt>
      <trkpt lat="45.0196" lon="4.12574">
        <ele>1111.42</ele>
        <time>2021-05-23T14:26:54Z</time>
      </trkpt>
      <trkpt lat="45.01968" lon="4.12559">
        <ele>1110.94</ele>
        <time>2021-05-23T14:27:06Z</time>
      </trkpt>
      <trkpt lat="45.01974" lon="4.12551">
        <ele>1110.94</ele>
        <time>2021-05-23T14:27:13Z</time>
      </trkpt>
      <trkpt lat="45.01994" lon="4.12536">
        <ele>1109.02</ele>
        <time>2021-05-23T14:27:26Z</time>
      </trkpt>
      <trkpt lat="45.02006" lon="4.1253">
        <ele>1110.46</ele>
        <time>2021-05-23T14:27:38Z</time>
      </trkpt>
      <trkpt lat="45.0202" lon="4.12528">
        <ele>1112.86</ele>
        <time>2021-05-23T14:27:52Z</time>
      </trkpt>
      <trkpt lat="45.02021" lon="4.12528">
        <ele>1112.86</ele>
        <time>2021-05-23T14:27:53Z</time>
      </trkpt>
      <trkpt lat="45.02026" lon="4.12525">
        <ele>1113.82</ele>
        <time>2021-05-23T14:27:58Z</time>
      </trkpt>
      <trkpt lat="45.0204" lon="4.12522">
        <ele>1116.23</ele>
        <time>2021-05-23T14:28:08Z</time>
      </trkpt>
      <trkpt lat="45.02054" lon="4.12524">
        <ele>1119.59</ele>
        <time>2021-05-23T14:28:18Z</time>
      </trkpt>
      <trkpt lat="45.02061" lon="4.12528">
        <ele>1120.07</ele>
        <time>2021-05-23T14:28:24Z</time>
      </trkpt>
      <trkpt lat="45.02075" lon="4.12527">
        <ele>1121.52</ele>
        <time>2021-05-23T14:28:34Z</time>
      </trkpt>
      <trkpt lat="45.02077" lon="4.12527">
        <ele>1122</ele>
        <time>2021-05-23T14:28:36Z</time>
      </trkpt>
      <trkpt lat="45.02096" lon="4.12517">
        <ele>1123.92</ele>
        <time>2021-05-23T14:28:49Z</time>
      </trkpt>
      <trkpt lat="45.02101" lon="4.12516">
        <ele>1124.4</ele>
        <time>2021-05-23T14:28:52Z</time>
      </trkpt>
      <trkpt lat="45.02108" lon="4.12511">
        <ele>1125.36</ele>
        <time>2021-05-23T14:28:56Z</time>
      </trkpt>
      <trkpt lat="45.02114" lon="4.12507">
        <ele>1125.84</ele>
        <time>2021-05-23T14:29:01Z</time>
      </trkpt>
      <trkpt lat="45.02131" lon="4.12478">
        <ele>1126.32</ele>
        <time>2021-05-23T14:29:17Z</time>
      </trkpt>
      <trkpt lat="45.02143" lon="4.12465">
        <ele>1130.17</ele>
        <time>2021-05-23T14:29:33Z</time>
      </trkpt>
      <trkpt lat="45.02159" lon="4.12439">
        <ele>1132.57</ele>
        <time>2021-05-23T14:29:51Z</time>
      </trkpt>
      <trkpt lat="45.0217" lon="4.12425">
        <ele>1134.49</ele>
        <time>2021-05-23T14:30:03Z</time>
      </trkpt>
      <trkpt lat="45.02184" lon="4.12419">
        <ele>1140.26</ele>
        <time>2021-05-23T14:30:17Z</time>
      </trkpt>
      <trkpt lat="45.02193" lon="4.12414">
        <ele>1142.18</ele>
        <time>2021-05-23T14:30:24Z</time>
      </trkpt>
      <trkpt lat="45.02198" lon="4.12413">
        <ele>1141.22</ele>
        <time>2021-05-23T14:30:36Z</time>
      </trkpt>
      <trkpt lat="45.022" lon="4.12412">
        <ele>1141.22</ele>
        <time>2021-05-23T14:30:39Z</time>
      </trkpt>
      <trkpt lat="45.02211" lon="4.12409">
        <ele>1136.9</ele>
        <time>2021-05-23T14:30:59Z</time>
      </trkpt>
      <trkpt lat="45.02214" lon="4.12412">
        <ele>1136.9</ele>
        <time>2021-05-23T14:31:18Z</time>
      </trkpt>
      <trkpt lat="45.02228" lon="4.12414">
        <ele>1134.49</ele>
        <time>2021-05-23T14:31:38Z</time>
      </trkpt>
      <trkpt lat="45.02236" lon="4.12415">
        <ele>1134.49</ele>
        <time>2021-05-23T14:32:00Z</time>
      </trkpt>
      <trkpt lat="45.02243" lon="4.12416">
        <ele>1134.49</ele>
        <time>2021-05-23T14:32:19Z</time>
      </trkpt>
      <trkpt lat="45.02253" lon="4.12413">
        <ele>1134.49</ele>
        <time>2021-05-23T14:32:34Z</time>
      </trkpt>
      <trkpt lat="45.02267" lon="4.12418">
        <ele>1133.53</ele>
        <time>2021-05-23T14:32:47Z</time>
      </trkpt>
      <trkpt lat="45.0228" lon="4.12422">
        <ele>1134.49</ele>
        <time>2021-05-23T14:33:02Z</time>
      </trkpt>
      <trkpt lat="45.02291" lon="4.12426">
        <ele>1134.97</ele>
        <time>2021-05-23T14:33:15Z</time>
      </trkpt>
      <trkpt lat="45.02304" lon="4.1243">
        <ele>1137.38</ele>
        <time>2021-05-23T14:33:32Z</time>
      </trkpt>
      <trkpt lat="45.02317" lon="4.12433">
        <ele>1138.34</ele>
        <time>2021-05-23T14:33:53Z</time>
      </trkpt>
      <trkpt lat="45.02325" lon="4.12437">
        <ele>1139.78</ele>
        <time>2021-05-23T14:34:10Z</time>
      </trkpt>
      <trkpt lat="45.02337" lon="4.12439">
        <ele>1138.82</ele>
        <time>2021-05-23T14:34:25Z</time>
      </trkpt>
      <trkpt lat="45.02361" lon="4.1244">
        <ele>1138.82</ele>
        <time>2021-05-23T14:34:42Z</time>
      </trkpt>
      <trkpt lat="45.02384" lon="4.12432">
        <ele>1140.26</ele>
        <time>2021-05-23T14:35:00Z</time>
      </trkpt>
      <trkpt lat="45.02396" lon="4.12412">
        <ele>1142.66</ele>
        <time>2021-05-23T14:35:19Z</time>
      </trkpt>
      <trkpt lat="45.02404" lon="4.12405">
        <ele>1144.11</ele>
        <time>2021-05-23T14:35:34Z</time>
      </trkpt>
      <trkpt lat="45.02419" lon="4.12398">
        <ele>1146.03</ele>
        <time>2021-05-23T14:35:49Z</time>
      </trkpt>
      <trkpt lat="45.02427" lon="4.12388">
        <ele>1147.95</ele>
        <time>2021-05-23T14:35:59Z</time>
      </trkpt>
      <trkpt lat="45.02434" lon="4.12364">
        <ele>1149.87</ele>
        <time>2021-05-23T14:36:17Z</time>
      </trkpt>
      <trkpt lat="45.0244" lon="4.12349">
        <ele>1150.84</ele>
        <time>2021-05-23T14:36:32Z</time>
      </trkpt>
      <trkpt lat="45.02454" lon="4.12334">
        <ele>1152.76</ele>
        <time>2021-05-23T14:36:51Z</time>
      </trkpt>
      <trkpt lat="45.02467" lon="4.1232">
        <ele>1153.24</ele>
        <time>2021-05-23T14:37:08Z</time>
      </trkpt>
      <trkpt lat="45.02479" lon="4.1231">
        <ele>1153.24</ele>
        <time>2021-05-23T14:37:24Z</time>
      </trkpt>
      <trkpt lat="45.02492" lon="4.12296">
        <ele>1155.16</ele>
        <time>2021-05-23T14:37:40Z</time>
      </trkpt>
      <trkpt lat="45.02507" lon="4.12285">
        <ele>1158.05</ele>
        <time>2021-05-23T14:37:59Z</time>
      </trkpt>
      <trkpt lat="45.02513" lon="4.12279">
        <ele>1160.93</ele>
        <time>2021-05-23T14:38:16Z</time>
      </trkpt>
      <trkpt lat="45.02533" lon="4.12268">
        <ele>1166.22</ele>
        <time>2021-05-23T14:38:33Z</time>
      </trkpt>
      <trkpt lat="45.02549" lon="4.12262">
        <ele>1168.14</ele>
        <time>2021-05-23T14:38:49Z</time>
      </trkpt>
      <trkpt lat="45.02559" lon="4.12258">
        <ele>1169.1</ele>
        <time>2021-05-23T14:38:59Z</time>
      </trkpt>
      <trkpt lat="45.02578" lon="4.12253">
        <ele>1171.02</ele>
        <time>2021-05-23T14:39:16Z</time>
      </trkpt>
      <trkpt lat="45.02596" lon="4.1225">
        <ele>1173.43</ele>
        <time>2021-05-23T14:39:32Z</time>
      </trkpt>
      <trkpt lat="45.02616" lon="4.12244">
        <ele>1177.27</ele>
        <time>2021-05-23T14:39:52Z</time>
      </trkpt>
      <trkpt lat="45.02638" lon="4.12243">
        <ele>1180.64</ele>
        <time>2021-05-23T14:40:11Z</time>
      </trkpt>
      <trkpt lat="45.02656" lon="4.12242">
        <ele>1179.67</ele>
        <time>2021-05-23T14:40:29Z</time>
      </trkpt>
      <trkpt lat="45.02676" lon="4.12248">
        <ele>1179.19</ele>
        <time>2021-05-23T14:40:48Z</time>
      </trkpt>
      <trkpt lat="45.02698" lon="4.12258">
        <ele>1177.75</ele>
        <time>2021-05-23T14:41:09Z</time>
      </trkpt>
      <trkpt lat="45.02714" lon="4.1226">
        <ele>1178.71</ele>
        <time>2021-05-23T14:41:22Z</time>
      </trkpt>
      <trkpt lat="45.02731" lon="4.12266">
        <ele>1183.04</ele>
        <time>2021-05-23T14:41:33Z</time>
      </trkpt>
      <trkpt lat="45.02743" lon="4.12273">
        <ele>1187.37</ele>
        <time>2021-05-23T14:41:45Z</time>
      </trkpt>
      <trkpt lat="45.02755" lon="4.12281">
        <ele>1193.13</ele>
        <time>2021-05-23T14:41:57Z</time>
      </trkpt>
      <trkpt lat="45.02766" lon="4.12293">
        <ele>1194.58</ele>
        <time>2021-05-23T14:42:09Z</time>
      </trkpt>
      <trkpt lat="45.02777" lon="4.12301">
        <ele>1195.54</ele>
        <time>2021-05-23T14:42:22Z</time>
      </trkpt>
      <trkpt lat="45.02788" lon="4.12311">
        <ele>1198.42</ele>
        <time>2021-05-23T14:42:33Z</time>
      </trkpt>
      <trkpt lat="45.02797" lon="4.12317">
        <ele>1201.3</ele>
        <time>2021-05-23T14:42:42Z</time>
      </trkpt>
      <trkpt lat="45.02807" lon="4.12321">
        <ele>1204.19</ele>
        <time>2021-05-23T14:42:51Z</time>
      </trkpt>
      <trkpt lat="45.02812" lon="4.12324">
        <ele>1205.15</ele>
        <time>2021-05-23T14:42:57Z</time>
      </trkpt>
      <trkpt lat="45.02819" lon="4.1233">
        <ele>1206.59</ele>
        <time>2021-05-23T14:43:08Z</time>
      </trkpt>
      <trkpt lat="45.02823" lon="4.12334">
        <ele>1206.11</ele>
        <time>2021-05-23T14:43:18Z</time>
      </trkpt>
      <trkpt lat="45.02829" lon="4.12339">
        <ele>1207.55</ele>
        <time>2021-05-23T14:43:29Z</time>
      </trkpt>
      <trkpt lat="45.02835" lon="4.12342">
        <ele>1208.03</ele>
        <time>2021-05-23T14:43:40Z</time>
      </trkpt>
      <trkpt lat="45.02837" lon="4.12343">
        <ele>1207.55</ele>
        <time>2021-05-23T14:43:42Z</time>
      </trkpt>
      <trkpt lat="45.02839" lon="4.12345">
        <ele>1207.55</ele>
        <time>2021-05-23T14:43:44Z</time>
      </trkpt>
      <trkpt lat="45.02842" lon="4.12347">
        <ele>1207.55</ele>
        <time>2021-05-23T14:43:49Z</time>
      </trkpt>
      <trkpt lat="45.02852" lon="4.12347">
        <ele>1207.07</ele>
        <time>2021-05-23T14:43:57Z</time>
      </trkpt>
      <trkpt lat="45.02863" lon="4.12349">
        <ele>1205.63</ele>
        <time>2021-05-23T14:44:06Z</time>
      </trkpt>
      <trkpt lat="45.02871" lon="4.1235">
        <ele>1206.59</ele>
        <time>2021-05-23T14:44:17Z</time>
      </trkpt>
      <trkpt lat="45.02875" lon="4.12351">
        <ele>1207.07</ele>
        <time>2021-05-23T14:44:29Z</time>
      </trkpt>
      <trkpt lat="45.02889" lon="4.12348">
        <ele>1208.03</ele>
        <time>2021-05-23T14:44:46Z</time>
      </trkpt>
      <trkpt lat="45.02904" lon="4.12349">
        <ele>1209</ele>
        <time>2021-05-23T14:44:59Z</time>
      </trkpt>
      <trkpt lat="45.02914" lon="4.12348">
        <ele>1208.51</ele>
        <time>2021-05-23T14:45:09Z</time>
      </trkpt>
      <trkpt lat="45.02925" lon="4.12344">
        <ele>1209</ele>
        <time>2021-05-23T14:45:18Z</time>
      </trkpt>
      <trkpt lat="45.02931" lon="4.12347">
        <ele>1209.48</ele>
        <time>2021-05-23T14:45:26Z</time>
      </trkpt>
      <trkpt lat="45.02938" lon="4.12348">
        <ele>1209.96</ele>
        <time>2021-05-23T14:45:32Z</time>
      </trkpt>
      <trkpt lat="45.02952" lon="4.12342">
        <ele>1211.88</ele>
        <time>2021-05-23T14:45:42Z</time>
      </trkpt>
      <trkpt lat="45.02961" lon="4.12335">
        <ele>1213.32</ele>
        <time>2021-05-23T14:45:51Z</time>
      </trkpt>
      <trkpt lat="45.02965" lon="4.12327">
        <ele>1213.32</ele>
        <time>2021-05-23T14:45:59Z</time>
      </trkpt>
      <trkpt lat="45.02968" lon="4.12323">
        <ele>1213.8</ele>
        <time>2021-05-23T14:46:08Z</time>
      </trkpt>
      <trkpt lat="45.0297" lon="4.12323">
        <ele>1212.36</ele>
        <time>2021-05-23T14:46:19Z</time>
      </trkpt>
      <trkpt lat="45.02973" lon="4.1232">
        <ele>1211.88</ele>
        <time>2021-05-23T14:46:28Z</time>
      </trkpt>
      <trkpt lat="45.02978" lon="4.12321">
        <ele>1210.92</ele>
        <time>2021-05-23T14:46:38Z</time>
      </trkpt>
      <trkpt lat="45.02985" lon="4.12323">
        <ele>1211.4</ele>
        <time>2021-05-23T14:46:47Z</time>
      </trkpt>
      <trkpt lat="45.02984" lon="4.12325">
        <ele>1211.4</ele>
        <time>2021-05-23T14:46:53Z</time>
      </trkpt>
      <trkpt lat="45.02993" lon="4.12337">
        <ele>1212.36</ele>
        <time>2021-05-23T14:47:03Z</time>
      </trkpt>
      <trkpt lat="45.02993" lon="4.12337">
        <ele>1212.84</ele>
        <time>2021-05-23T14:47:06Z</time>
      </trkpt>
      <trkpt lat="45.02998" lon="4.12338">
        <ele>1213.32</ele>
        <time>2021-05-23T14:47:11Z</time>
      </trkpt>
      <trkpt lat="45.03003" lon="4.12337">
        <ele>1213.8</ele>
        <time>2021-05-23T14:47:19Z</time>
      </trkpt>
      <trkpt lat="45.03005" lon="4.12338">
        <ele>1213.8</ele>
        <time>2021-05-23T14:47:30Z</time>
      </trkpt>
      <trkpt lat="45.03005" lon="4.1234">
        <ele>1211.88</ele>
        <time>2021-05-23T14:47:45Z</time>
      </trkpt>
      <trkpt lat="45.03005" lon="4.12339">
        <ele>1210.92</ele>
        <time>2021-05-23T14:48:07Z</time>
      </trkpt>
    </trkseg>
  </trk>
</gpx>